<?xml version="1.0" encoding="UTF-8" standalone="no" ?>
<gpx xmlns="http://www.topografix.com/GPX/1/1" xmlns:xsi="http://www.w3.org/2001/XMLSchema-instance" xsi:schemaLocation="http://www.topografix.com/GPX/1/1 http://www.topografix.com/GPX/1/1/gpx.xsd" version="1.1" creator="VisuGPX - https://www.visugpx.com">
  <metadata>
    <name>Cyclisme dans la Hague</name>
    <desc><![CDATA[Circuit regroupant partiellement  le circuit de La Hague et le circuit Plage et bocage]]></desc>
  </metadata>
  <trk>
    <name><![CDATA[circuit hague1]]></name>
    <desc><![CDATA[À partir de la Piste Active]]></desc>
    <trkseg>
      <trkpt lat="49.66351" lon="-1.83303">
        <ele>171.425781</ele>
        <time>2019-09-02T09:15:41Z</time>
      </trkpt>
      <trkpt lat="49.66354" lon="-1.8329">
        <ele>171.199219</ele>
        <time>2019-09-02T09:18:41Z</time>
      </trkpt>
      <trkpt lat="49.66363" lon="-1.83297">
        <ele>170.699219</ele>
        <time>2019-09-02T09:18:48Z</time>
      </trkpt>
      <trkpt lat="49.66361" lon="-1.83311">
        <ele>170.097656</ele>
        <time>2019-09-02T09:18:54Z</time>
      </trkpt>
      <trkpt lat="49.66353" lon="-1.83317">
        <ele>169.796875</ele>
        <time>2019-09-02T09:19:10Z</time>
      </trkpt>
      <trkpt lat="49.6635" lon="-1.83333">
        <ele>169.597656</ele>
        <time>2019-09-02T09:19:14Z</time>
      </trkpt>
      <trkpt lat="49.66354" lon="-1.83346">
        <ele>169.597656</ele>
        <time>2019-09-02T09:19:17Z</time>
      </trkpt>
      <trkpt lat="49.66399" lon="-1.8349">
        <ele>169.199219</ele>
        <time>2019-09-02T09:19:44Z</time>
      </trkpt>
      <trkpt lat="49.66401" lon="-1.83507">
        <ele>169.296875</ele>
        <time>2019-09-02T09:19:47Z</time>
      </trkpt>
      <trkpt lat="49.66398" lon="-1.83523">
        <ele>169.597656</ele>
        <time>2019-09-02T09:19:50Z</time>
      </trkpt>
      <trkpt lat="49.66392" lon="-1.83537">
        <ele>170.199219</ele>
        <time>2019-09-02T09:19:53Z</time>
      </trkpt>
      <trkpt lat="49.66324" lon="-1.83719">
        <ele>175.796875</ele>
        <time>2019-09-02T09:20:29Z</time>
      </trkpt>
      <trkpt lat="49.66322" lon="-1.83735">
        <ele>164.398438</ele>
        <time>2019-09-02T09:20:34Z</time>
      </trkpt>
      <trkpt lat="49.6632" lon="-1.83749">
        <ele>164.796875</ele>
        <time>2019-09-02T09:23:33Z</time>
      </trkpt>
      <trkpt lat="49.66344" lon="-1.84157">
        <ele>162.699219</ele>
        <time>2019-09-02T09:24:55Z</time>
      </trkpt>
      <trkpt lat="49.66351" lon="-1.8419">
        <ele>164.796875</ele>
        <time>2019-09-02T09:25:01Z</time>
      </trkpt>
      <trkpt lat="49.66381" lon="-1.84305">
        <ele>165.398438</ele>
        <time>2019-09-02T09:25:20Z</time>
      </trkpt>
      <trkpt lat="49.66421" lon="-1.84442">
        <ele>165.5</ele>
        <time>2019-09-02T09:25:40Z</time>
      </trkpt>
      <trkpt lat="49.66424" lon="-1.84456">
        <ele>165.699219</ele>
        <time>2019-09-02T09:25:42Z</time>
      </trkpt>
      <trkpt lat="49.66432" lon="-1.84503">
        <ele>166.199219</ele>
        <time>2019-09-02T09:25:49Z</time>
      </trkpt>
      <trkpt lat="49.66434" lon="-1.84522">
        <ele>166.597656</ele>
        <time>2019-09-02T09:25:52Z</time>
      </trkpt>
      <trkpt lat="49.66437" lon="-1.84557">
        <ele>167.699219</ele>
        <time>2019-09-02T09:25:58Z</time>
      </trkpt>
      <trkpt lat="49.66437" lon="-1.8459">
        <ele>168.699219</ele>
        <time>2019-09-02T09:26:04Z</time>
      </trkpt>
      <trkpt lat="49.66439" lon="-1.84771">
        <ele>174.296875</ele>
        <time>2019-09-02T09:26:34Z</time>
      </trkpt>
      <trkpt lat="49.66442" lon="-1.84785">
        <ele>169</ele>
        <time>2019-09-02T09:26:38Z</time>
      </trkpt>
      <trkpt lat="49.66449" lon="-1.84796">
        <ele>168.898438</ele>
        <time>2019-09-02T09:29:20Z</time>
      </trkpt>
      <trkpt lat="49.66452" lon="-1.84809">
        <ele>168.699219</ele>
        <time>2019-09-02T09:29:25Z</time>
      </trkpt>
      <trkpt lat="49.66458" lon="-1.8484">
        <ele>168.398438</ele>
        <time>2019-09-02T09:29:31Z</time>
      </trkpt>
      <trkpt lat="49.6646" lon="-1.84857">
        <ele>168.097656</ele>
        <time>2019-09-02T09:29:34Z</time>
      </trkpt>
      <trkpt lat="49.66458" lon="-1.84874">
        <ele>168.296875</ele>
        <time>2019-09-02T09:29:37Z</time>
      </trkpt>
      <trkpt lat="49.66452" lon="-1.84888">
        <ele>169.296875</ele>
        <time>2019-09-02T09:29:40Z</time>
      </trkpt>
      <trkpt lat="49.66445" lon="-1.84905">
        <ele>170.398438</ele>
        <time>2019-09-02T09:29:44Z</time>
      </trkpt>
      <trkpt lat="49.66438" lon="-1.84914">
        <ele>171.296875</ele>
        <time>2019-09-02T09:29:49Z</time>
      </trkpt>
      <trkpt lat="49.66427" lon="-1.84911">
        <ele>171.898438</ele>
        <time>2019-09-02T09:29:53Z</time>
      </trkpt>
      <trkpt lat="49.66418" lon="-1.8491">
        <ele>172.5</ele>
        <time>2019-09-02T09:29:56Z</time>
      </trkpt>
      <trkpt lat="49.66408" lon="-1.84912">
        <ele>173.199219</ele>
        <time>2019-09-02T09:29:59Z</time>
      </trkpt>
      <trkpt lat="49.66397" lon="-1.84917">
        <ele>173.699219</ele>
        <time>2019-09-02T09:30:03Z</time>
      </trkpt>
      <trkpt lat="49.66388" lon="-1.84924">
        <ele>174.199219</ele>
        <time>2019-09-02T09:30:06Z</time>
      </trkpt>
      <trkpt lat="49.66379" lon="-1.84928">
        <ele>174.5</ele>
        <time>2019-09-02T09:30:09Z</time>
      </trkpt>
      <trkpt lat="49.66369" lon="-1.84926">
        <ele>174.898438</ele>
        <time>2019-09-02T09:30:12Z</time>
      </trkpt>
      <trkpt lat="49.6636" lon="-1.84921">
        <ele>175.5</ele>
        <time>2019-09-02T09:30:17Z</time>
      </trkpt>
      <trkpt lat="49.6635" lon="-1.84928">
        <ele>175.699219</ele>
        <time>2019-09-02T09:30:22Z</time>
      </trkpt>
      <trkpt lat="49.66343" lon="-1.84936">
        <ele>175.699219</ele>
        <time>2019-09-02T09:30:25Z</time>
      </trkpt>
      <trkpt lat="49.66299" lon="-1.84998">
        <ele>175.398438</ele>
        <time>2019-09-02T09:30:40Z</time>
      </trkpt>
      <trkpt lat="49.66269" lon="-1.85038">
        <ele>174.699219</ele>
        <time>2019-09-02T09:30:48Z</time>
      </trkpt>
      <trkpt lat="49.66232" lon="-1.85082">
        <ele>172.898438</ele>
        <time>2019-09-02T09:30:56Z</time>
      </trkpt>
      <trkpt lat="49.66224" lon="-1.85095">
        <ele>172.699219</ele>
        <time>2019-09-02T09:30:58Z</time>
      </trkpt>
      <trkpt lat="49.66217" lon="-1.85108">
        <ele>172.5</ele>
        <time>2019-09-02T09:31:00Z</time>
      </trkpt>
      <trkpt lat="49.6621" lon="-1.85122">
        <ele>172.597656</ele>
        <time>2019-09-02T09:31:02Z</time>
      </trkpt>
      <trkpt lat="49.66193" lon="-1.85165">
        <ele>172.296875</ele>
        <time>2019-09-02T09:31:08Z</time>
      </trkpt>
      <trkpt lat="49.66182" lon="-1.85196">
        <ele>172</ele>
        <time>2019-09-02T09:31:12Z</time>
      </trkpt>
      <trkpt lat="49.66178" lon="-1.85212">
        <ele>171.898438</ele>
        <time>2019-09-02T09:31:14Z</time>
      </trkpt>
      <trkpt lat="49.66175" lon="-1.85226">
        <ele>171.898438</ele>
        <time>2019-09-02T09:31:16Z</time>
      </trkpt>
      <trkpt lat="49.66168" lon="-1.85258">
        <ele>174.699219</ele>
        <time>2019-09-02T09:31:23Z</time>
      </trkpt>
      <trkpt lat="49.66163" lon="-1.85273">
        <ele>174.597656</ele>
        <time>2019-09-02T09:33:49Z</time>
      </trkpt>
      <trkpt lat="49.6616" lon="-1.85289">
        <ele>174.5</ele>
        <time>2019-09-02T09:33:52Z</time>
      </trkpt>
      <trkpt lat="49.66099" lon="-1.85581">
        <ele>171.699219</ele>
        <time>2019-09-02T09:34:32Z</time>
      </trkpt>
      <trkpt lat="49.66098" lon="-1.85595">
        <ele>171</ele>
        <time>2019-09-02T09:34:34Z</time>
      </trkpt>
      <trkpt lat="49.66103" lon="-1.85611">
        <ele>170.097656</ele>
        <time>2019-09-02T09:34:37Z</time>
      </trkpt>
      <trkpt lat="49.66115" lon="-1.85618">
        <ele>169.597656</ele>
        <time>2019-09-02T09:34:41Z</time>
      </trkpt>
      <trkpt lat="49.66128" lon="-1.8562">
        <ele>169.199219</ele>
        <time>2019-09-02T09:34:44Z</time>
      </trkpt>
      <trkpt lat="49.66241" lon="-1.85646">
        <ele>166</ele>
        <time>2019-09-02T09:35:02Z</time>
      </trkpt>
      <trkpt lat="49.66323" lon="-1.85671">
        <ele>163.296875</ele>
        <time>2019-09-02T09:35:14Z</time>
      </trkpt>
      <trkpt lat="49.66337" lon="-1.85678">
        <ele>163.199219</ele>
        <time>2019-09-02T09:35:16Z</time>
      </trkpt>
      <trkpt lat="49.6636" lon="-1.85691">
        <ele>162.398438</ele>
        <time>2019-09-02T09:35:20Z</time>
      </trkpt>
      <trkpt lat="49.66366" lon="-1.85702">
        <ele>162</ele>
        <time>2019-09-02T09:35:22Z</time>
      </trkpt>
      <trkpt lat="49.66365" lon="-1.85716">
        <ele>161.597656</ele>
        <time>2019-09-02T09:35:24Z</time>
      </trkpt>
      <trkpt lat="49.66361" lon="-1.85729">
        <ele>161</ele>
        <time>2019-09-02T09:35:26Z</time>
      </trkpt>
      <trkpt lat="49.66345" lon="-1.8577">
        <ele>159.5</ele>
        <time>2019-09-02T09:35:32Z</time>
      </trkpt>
      <trkpt lat="49.66338" lon="-1.85784">
        <ele>159.097656</ele>
        <time>2019-09-02T09:35:34Z</time>
      </trkpt>
      <trkpt lat="49.6633" lon="-1.85795">
        <ele>158.898438</ele>
        <time>2019-09-02T09:35:36Z</time>
      </trkpt>
      <trkpt lat="49.66321" lon="-1.85804">
        <ele>158.597656</ele>
        <time>2019-09-02T09:35:38Z</time>
      </trkpt>
      <trkpt lat="49.66312" lon="-1.85813">
        <ele>158.597656</ele>
        <time>2019-09-02T09:35:40Z</time>
      </trkpt>
      <trkpt lat="49.66304" lon="-1.85823">
        <ele>158.398438</ele>
        <time>2019-09-02T09:35:42Z</time>
      </trkpt>
      <trkpt lat="49.66298" lon="-1.85835">
        <ele>157.597656</ele>
        <time>2019-09-02T09:35:44Z</time>
      </trkpt>
      <trkpt lat="49.66293" lon="-1.8585">
        <ele>157.097656</ele>
        <time>2019-09-02T09:35:46Z</time>
      </trkpt>
      <trkpt lat="49.6629" lon="-1.85865">
        <ele>156.699219</ele>
        <time>2019-09-02T09:35:48Z</time>
      </trkpt>
      <trkpt lat="49.66287" lon="-1.8588">
        <ele>156.5</ele>
        <time>2019-09-02T09:35:50Z</time>
      </trkpt>
      <trkpt lat="49.66284" lon="-1.85895">
        <ele>156.5</ele>
        <time>2019-09-02T09:35:52Z</time>
      </trkpt>
      <trkpt lat="49.6628" lon="-1.8591">
        <ele>156.5</ele>
        <time>2019-09-02T09:35:54Z</time>
      </trkpt>
      <trkpt lat="49.66278" lon="-1.85926">
        <ele>156.5</ele>
        <time>2019-09-02T09:35:56Z</time>
      </trkpt>
      <trkpt lat="49.6627" lon="-1.85992">
        <ele>155.097656</ele>
        <time>2019-09-02T09:36:04Z</time>
      </trkpt>
      <trkpt lat="49.66264" lon="-1.86104">
        <ele>151.296875</ele>
        <time>2019-09-02T09:36:18Z</time>
      </trkpt>
      <trkpt lat="49.66262" lon="-1.8619">
        <ele>146</ele>
        <time>2019-09-02T09:36:28Z</time>
      </trkpt>
      <trkpt lat="49.66264" lon="-1.86223">
        <ele>144.796875</ele>
        <time>2019-09-02T09:36:32Z</time>
      </trkpt>
      <trkpt lat="49.66267" lon="-1.86243">
        <ele>143.398438</ele>
        <time>2019-09-02T09:36:35Z</time>
      </trkpt>
      <trkpt lat="49.66271" lon="-1.86259">
        <ele>141.5</ele>
        <time>2019-09-02T09:36:37Z</time>
      </trkpt>
      <trkpt lat="49.66277" lon="-1.86277">
        <ele>139.296875</ele>
        <time>2019-09-02T09:36:39Z</time>
      </trkpt>
      <trkpt lat="49.66283" lon="-1.86299">
        <ele>137.097656</ele>
        <time>2019-09-02T09:36:41Z</time>
      </trkpt>
      <trkpt lat="49.66288" lon="-1.86322">
        <ele>135.199219</ele>
        <time>2019-09-02T09:36:43Z</time>
      </trkpt>
      <trkpt lat="49.66291" lon="-1.86345">
        <ele>133.699219</ele>
        <time>2019-09-02T09:36:45Z</time>
      </trkpt>
      <trkpt lat="49.66292" lon="-1.86368">
        <ele>132.199219</ele>
        <time>2019-09-02T09:36:47Z</time>
      </trkpt>
      <trkpt lat="49.66291" lon="-1.8639">
        <ele>130.699219</ele>
        <time>2019-09-02T09:36:49Z</time>
      </trkpt>
      <trkpt lat="49.66287" lon="-1.86413">
        <ele>128.796875</ele>
        <time>2019-09-02T09:36:51Z</time>
      </trkpt>
      <trkpt lat="49.66273" lon="-1.86482">
        <ele>124.097656</ele>
        <time>2019-09-02T09:36:57Z</time>
      </trkpt>
      <trkpt lat="49.66271" lon="-1.86506">
        <ele>122.398438</ele>
        <time>2019-09-02T09:36:59Z</time>
      </trkpt>
      <trkpt lat="49.66269" lon="-1.86529">
        <ele>120.898438</ele>
        <time>2019-09-02T09:37:01Z</time>
      </trkpt>
      <trkpt lat="49.66265" lon="-1.8655">
        <ele>119.699219</ele>
        <time>2019-09-02T09:37:03Z</time>
      </trkpt>
      <trkpt lat="49.66259" lon="-1.8657">
        <ele>118.398438</ele>
        <time>2019-09-02T09:37:05Z</time>
      </trkpt>
      <trkpt lat="49.66251" lon="-1.86589">
        <ele>116.796875</ele>
        <time>2019-09-02T09:37:07Z</time>
      </trkpt>
      <trkpt lat="49.66245" lon="-1.86609">
        <ele>114.796875</ele>
        <time>2019-09-02T09:37:09Z</time>
      </trkpt>
      <trkpt lat="49.66244" lon="-1.86632">
        <ele>112.796875</ele>
        <time>2019-09-02T09:37:11Z</time>
      </trkpt>
      <trkpt lat="49.66245" lon="-1.86656">
        <ele>110.699219</ele>
        <time>2019-09-02T09:37:13Z</time>
      </trkpt>
      <trkpt lat="49.66249" lon="-1.86704">
        <ele>106.097656</ele>
        <time>2019-09-02T09:37:17Z</time>
      </trkpt>
      <trkpt lat="49.6625" lon="-1.86727">
        <ele>104.097656</ele>
        <time>2019-09-02T09:37:19Z</time>
      </trkpt>
      <trkpt lat="49.66246" lon="-1.86749">
        <ele>102.097656</ele>
        <time>2019-09-02T09:37:21Z</time>
      </trkpt>
      <trkpt lat="49.66239" lon="-1.86772">
        <ele>100</ele>
        <time>2019-09-02T09:37:23Z</time>
      </trkpt>
      <trkpt lat="49.66231" lon="-1.86792">
        <ele>97.796875</ele>
        <time>2019-09-02T09:37:25Z</time>
      </trkpt>
      <trkpt lat="49.66219" lon="-1.86809">
        <ele>95.5</ele>
        <time>2019-09-02T09:37:27Z</time>
      </trkpt>
      <trkpt lat="49.66198" lon="-1.86842">
        <ele>90.898438</ele>
        <time>2019-09-02T09:37:31Z</time>
      </trkpt>
      <trkpt lat="49.66194" lon="-1.86862">
        <ele>88.699219</ele>
        <time>2019-09-02T09:37:33Z</time>
      </trkpt>
      <trkpt lat="49.66196" lon="-1.86886">
        <ele>86.796875</ele>
        <time>2019-09-02T09:37:35Z</time>
      </trkpt>
      <trkpt lat="49.66201" lon="-1.86908">
        <ele>85.398438</ele>
        <time>2019-09-02T09:37:37Z</time>
      </trkpt>
      <trkpt lat="49.66206" lon="-1.86927">
        <ele>84.097656</ele>
        <time>2019-09-02T09:37:39Z</time>
      </trkpt>
      <trkpt lat="49.66214" lon="-1.86942">
        <ele>82.699219</ele>
        <time>2019-09-02T09:37:41Z</time>
      </trkpt>
      <trkpt lat="49.66225" lon="-1.86953">
        <ele>81</ele>
        <time>2019-09-02T09:37:43Z</time>
      </trkpt>
      <trkpt lat="49.66238" lon="-1.86962">
        <ele>79.5</ele>
        <time>2019-09-02T09:37:45Z</time>
      </trkpt>
      <trkpt lat="49.66249" lon="-1.86969">
        <ele>77.199219</ele>
        <time>2019-09-02T09:37:47Z</time>
      </trkpt>
      <trkpt lat="49.66252" lon="-1.86986">
        <ele>74.898438</ele>
        <time>2019-09-02T09:37:50Z</time>
      </trkpt>
      <trkpt lat="49.66243" lon="-1.86999">
        <ele>72.398438</ele>
        <time>2019-09-02T09:37:52Z</time>
      </trkpt>
      <trkpt lat="49.6623" lon="-1.87014">
        <ele>69.796875</ele>
        <time>2019-09-02T09:37:54Z</time>
      </trkpt>
      <trkpt lat="49.66216" lon="-1.87032">
        <ele>68.5</ele>
        <time>2019-09-02T09:37:56Z</time>
      </trkpt>
      <trkpt lat="49.66176" lon="-1.87092">
        <ele>61.898438</ele>
        <time>2019-09-02T09:38:02Z</time>
      </trkpt>
      <trkpt lat="49.66164" lon="-1.87107">
        <ele>61.199219</ele>
        <time>2019-09-02T09:38:04Z</time>
      </trkpt>
      <trkpt lat="49.66151" lon="-1.87119">
        <ele>60.398438</ele>
        <time>2019-09-02T09:38:06Z</time>
      </trkpt>
      <trkpt lat="49.66137" lon="-1.87125">
        <ele>59.398438</ele>
        <time>2019-09-02T09:38:08Z</time>
      </trkpt>
      <trkpt lat="49.66121" lon="-1.87123">
        <ele>58.398438</ele>
        <time>2019-09-02T09:38:10Z</time>
      </trkpt>
      <trkpt lat="49.66072" lon="-1.8711">
        <ele>55.296875</ele>
        <time>2019-09-02T09:38:16Z</time>
      </trkpt>
      <trkpt lat="49.66054" lon="-1.87109">
        <ele>54.296875</ele>
        <time>2019-09-02T09:38:18Z</time>
      </trkpt>
      <trkpt lat="49.66037" lon="-1.8711">
        <ele>53.398438</ele>
        <time>2019-09-02T09:38:20Z</time>
      </trkpt>
      <trkpt lat="49.66003" lon="-1.87115">
        <ele>52</ele>
        <time>2019-09-02T09:38:24Z</time>
      </trkpt>
      <trkpt lat="49.65987" lon="-1.87119">
        <ele>51.398438</ele>
        <time>2019-09-02T09:38:26Z</time>
      </trkpt>
      <trkpt lat="49.65972" lon="-1.87125">
        <ele>50.597656</ele>
        <time>2019-09-02T09:38:28Z</time>
      </trkpt>
      <trkpt lat="49.65959" lon="-1.87134">
        <ele>49.699219</ele>
        <time>2019-09-02T09:38:30Z</time>
      </trkpt>
      <trkpt lat="49.65946" lon="-1.87145">
        <ele>48.5</ele>
        <time>2019-09-02T09:38:32Z</time>
      </trkpt>
      <trkpt lat="49.65864" lon="-1.87214">
        <ele>39.5</ele>
        <time>2019-09-02T09:38:44Z</time>
      </trkpt>
      <trkpt lat="49.65853" lon="-1.87228">
        <ele>38.898438</ele>
        <time>2019-09-02T09:38:46Z</time>
      </trkpt>
      <trkpt lat="49.65844" lon="-1.87244">
        <ele>39.097656</ele>
        <time>2019-09-02T09:38:48Z</time>
      </trkpt>
      <trkpt lat="49.65839" lon="-1.87256">
        <ele>39.097656</ele>
        <time>2019-09-02T09:38:52Z</time>
      </trkpt>
      <trkpt lat="49.65842" lon="-1.87242">
        <ele>38.796875</ele>
        <time>2019-09-02T09:38:57Z</time>
      </trkpt>
      <trkpt lat="49.65843" lon="-1.87226">
        <ele>37.898438</ele>
        <time>2019-09-02T09:39:01Z</time>
      </trkpt>
      <trkpt lat="49.65839" lon="-1.8721">
        <ele>39.097656</ele>
        <time>2019-09-02T09:39:05Z</time>
      </trkpt>
      <trkpt lat="49.65844" lon="-1.87226">
        <ele>39.296875</ele>
        <time>2019-09-02T09:40:10Z</time>
      </trkpt>
      <trkpt lat="49.65841" lon="-1.87246">
        <ele>39.597656</ele>
        <time>2019-09-02T09:40:13Z</time>
      </trkpt>
      <trkpt lat="49.65832" lon="-1.87304">
        <ele>41.699219</ele>
        <time>2019-09-02T09:40:21Z</time>
      </trkpt>
      <trkpt lat="49.65832" lon="-1.87323">
        <ele>42.597656</ele>
        <time>2019-09-02T09:40:24Z</time>
      </trkpt>
      <trkpt lat="49.65834" lon="-1.87341">
        <ele>43.597656</ele>
        <time>2019-09-02T09:40:27Z</time>
      </trkpt>
      <trkpt lat="49.65838" lon="-1.87357">
        <ele>44.796875</ele>
        <time>2019-09-02T09:40:30Z</time>
      </trkpt>
      <trkpt lat="49.65844" lon="-1.8737">
        <ele>46.199219</ele>
        <time>2019-09-02T09:40:33Z</time>
      </trkpt>
      <trkpt lat="49.65851" lon="-1.8738">
        <ele>47.5</ele>
        <time>2019-09-02T09:40:36Z</time>
      </trkpt>
      <trkpt lat="49.65888" lon="-1.87438">
        <ele>55.199219</ele>
        <time>2019-09-02T09:40:54Z</time>
      </trkpt>
      <trkpt lat="49.65894" lon="-1.87449">
        <ele>56.199219</ele>
        <time>2019-09-02T09:40:57Z</time>
      </trkpt>
      <trkpt lat="49.659" lon="-1.87461">
        <ele>57.296875</ele>
        <time>2019-09-02T09:41:00Z</time>
      </trkpt>
      <trkpt lat="49.65926" lon="-1.87525">
        <ele>59.898438</ele>
        <time>2019-09-02T09:41:15Z</time>
      </trkpt>
      <trkpt lat="49.65931" lon="-1.87539">
        <ele>59.898438</ele>
        <time>2019-09-02T09:41:18Z</time>
      </trkpt>
      <trkpt lat="49.65936" lon="-1.87555">
        <ele>60</ele>
        <time>2019-09-02T09:41:21Z</time>
      </trkpt>
      <trkpt lat="49.65956" lon="-1.87627">
        <ele>62.398438</ele>
        <time>2019-09-02T09:41:36Z</time>
      </trkpt>
      <trkpt lat="49.65963" lon="-1.87642">
        <ele>63.5</ele>
        <time>2019-09-02T09:41:40Z</time>
      </trkpt>
      <trkpt lat="49.66006" lon="-1.87738">
        <ele>70.898438</ele>
        <time>2019-09-02T09:42:05Z</time>
      </trkpt>
      <trkpt lat="49.66011" lon="-1.87753">
        <ele>71.898438</ele>
        <time>2019-09-02T09:42:08Z</time>
      </trkpt>
      <trkpt lat="49.66014" lon="-1.8777">
        <ele>73.097656</ele>
        <time>2019-09-02T09:42:11Z</time>
      </trkpt>
      <trkpt lat="49.66017" lon="-1.87786">
        <ele>74.398438</ele>
        <time>2019-09-02T09:42:14Z</time>
      </trkpt>
      <trkpt lat="49.66026" lon="-1.87849">
        <ele>80.097656</ele>
        <time>2019-09-02T09:42:26Z</time>
      </trkpt>
      <trkpt lat="49.6603" lon="-1.87863">
        <ele>81.296875</ele>
        <time>2019-09-02T09:42:29Z</time>
      </trkpt>
      <trkpt lat="49.66037" lon="-1.87891">
        <ele>83.5</ele>
        <time>2019-09-02T09:42:35Z</time>
      </trkpt>
      <trkpt lat="49.66038" lon="-1.87907">
        <ele>84.5</ele>
        <time>2019-09-02T09:42:38Z</time>
      </trkpt>
      <trkpt lat="49.66044" lon="-1.87956">
        <ele>87.296875</ele>
        <time>2019-09-02T09:42:47Z</time>
      </trkpt>
      <trkpt lat="49.66044" lon="-1.87974">
        <ele>88.296875</ele>
        <time>2019-09-02T09:42:50Z</time>
      </trkpt>
      <trkpt lat="49.66044" lon="-1.88024">
        <ele>91.5</ele>
        <time>2019-09-02T09:42:59Z</time>
      </trkpt>
      <trkpt lat="49.66045" lon="-1.8804">
        <ele>92.898438</ele>
        <time>2019-09-02T09:43:02Z</time>
      </trkpt>
      <trkpt lat="49.66048" lon="-1.88055">
        <ele>94.199219</ele>
        <time>2019-09-02T09:43:05Z</time>
      </trkpt>
      <trkpt lat="49.66056" lon="-1.88097">
        <ele>97.199219</ele>
        <time>2019-09-02T09:43:14Z</time>
      </trkpt>
      <trkpt lat="49.66066" lon="-1.8814">
        <ele>100.5</ele>
        <time>2019-09-02T09:43:23Z</time>
      </trkpt>
      <trkpt lat="49.66072" lon="-1.88183">
        <ele>104.199219</ele>
        <time>2019-09-02T09:43:32Z</time>
      </trkpt>
      <trkpt lat="49.66078" lon="-1.88224">
        <ele>108.796875</ele>
        <time>2019-09-02T09:43:41Z</time>
      </trkpt>
      <trkpt lat="49.66083" lon="-1.8824">
        <ele>110.398438</ele>
        <time>2019-09-02T09:43:45Z</time>
      </trkpt>
      <trkpt lat="49.66093" lon="-1.88234">
        <ele>112.097656</ele>
        <time>2019-09-02T09:45:08Z</time>
      </trkpt>
      <trkpt lat="49.661" lon="-1.88223">
        <ele>113.296875</ele>
        <time>2019-09-02T09:45:13Z</time>
      </trkpt>
      <trkpt lat="49.66153" lon="-1.88148">
        <ele>121.898438</ele>
        <time>2019-09-02T09:45:41Z</time>
      </trkpt>
      <trkpt lat="49.66161" lon="-1.88137">
        <ele>122.699219</ele>
        <time>2019-09-02T09:45:45Z</time>
      </trkpt>
      <trkpt lat="49.66171" lon="-1.8813">
        <ele>123.398438</ele>
        <time>2019-09-02T09:45:49Z</time>
      </trkpt>
      <trkpt lat="49.66192" lon="-1.88118">
        <ele>124.398438</ele>
        <time>2019-09-02T09:45:57Z</time>
      </trkpt>
      <trkpt lat="49.662" lon="-1.88111">
        <ele>124.597656</ele>
        <time>2019-09-02T09:46:00Z</time>
      </trkpt>
      <trkpt lat="49.66209" lon="-1.88105">
        <ele>127.199219</ele>
        <time>2019-09-02T09:46:04Z</time>
      </trkpt>
      <trkpt lat="49.66252" lon="-1.88083">
        <ele>129.398438</ele>
        <time>2019-09-02T09:47:32Z</time>
      </trkpt>
      <trkpt lat="49.66292" lon="-1.88067">
        <ele>132.597656</ele>
        <time>2019-09-02T09:47:44Z</time>
      </trkpt>
      <trkpt lat="49.66311" lon="-1.88062">
        <ele>134.097656</ele>
        <time>2019-09-02T09:47:50Z</time>
      </trkpt>
      <trkpt lat="49.66357" lon="-1.88049">
        <ele>136.199219</ele>
        <time>2019-09-02T09:48:05Z</time>
      </trkpt>
      <trkpt lat="49.66463" lon="-1.88004">
        <ele>141.296875</ele>
        <time>2019-09-02T09:48:32Z</time>
      </trkpt>
      <trkpt lat="49.66473" lon="-1.87998">
        <ele>141.898438</ele>
        <time>2019-09-02T09:48:35Z</time>
      </trkpt>
      <trkpt lat="49.66562" lon="-1.87943">
        <ele>145.097656</ele>
        <time>2019-09-02T09:48:59Z</time>
      </trkpt>
      <trkpt lat="49.66574" lon="-1.87937">
        <ele>145.597656</ele>
        <time>2019-09-02T09:49:02Z</time>
      </trkpt>
      <trkpt lat="49.66587" lon="-1.87933">
        <ele>146.296875</ele>
        <time>2019-09-02T09:49:05Z</time>
      </trkpt>
      <trkpt lat="49.66598" lon="-1.87932">
        <ele>147.097656</ele>
        <time>2019-09-02T09:49:08Z</time>
      </trkpt>
      <trkpt lat="49.6662" lon="-1.8793">
        <ele>148.699219</ele>
        <time>2019-09-02T09:49:14Z</time>
      </trkpt>
      <trkpt lat="49.6663" lon="-1.87926">
        <ele>149.597656</ele>
        <time>2019-09-02T09:49:17Z</time>
      </trkpt>
      <trkpt lat="49.6664" lon="-1.8792">
        <ele>150.296875</ele>
        <time>2019-09-02T09:49:20Z</time>
      </trkpt>
      <trkpt lat="49.66649" lon="-1.87912">
        <ele>151</ele>
        <time>2019-09-02T09:49:23Z</time>
      </trkpt>
      <trkpt lat="49.66657" lon="-1.87902">
        <ele>151.597656</ele>
        <time>2019-09-02T09:49:26Z</time>
      </trkpt>
      <trkpt lat="49.66664" lon="-1.87889">
        <ele>152.097656</ele>
        <time>2019-09-02T09:49:29Z</time>
      </trkpt>
      <trkpt lat="49.66671" lon="-1.87876">
        <ele>152.398438</ele>
        <time>2019-09-02T09:49:32Z</time>
      </trkpt>
      <trkpt lat="49.66679" lon="-1.87864">
        <ele>152.898438</ele>
        <time>2019-09-02T09:49:35Z</time>
      </trkpt>
      <trkpt lat="49.66689" lon="-1.87853">
        <ele>153.398438</ele>
        <time>2019-09-02T09:49:38Z</time>
      </trkpt>
      <trkpt lat="49.66701" lon="-1.87847">
        <ele>154</ele>
        <time>2019-09-02T09:49:41Z</time>
      </trkpt>
      <trkpt lat="49.66715" lon="-1.87847">
        <ele>154.398438</ele>
        <time>2019-09-02T09:49:44Z</time>
      </trkpt>
      <trkpt lat="49.66724" lon="-1.87849">
        <ele>155.097656</ele>
        <time>2019-09-02T09:49:46Z</time>
      </trkpt>
      <trkpt lat="49.66763" lon="-1.87857">
        <ele>154.398438</ele>
        <time>2019-09-02T09:49:55Z</time>
      </trkpt>
      <trkpt lat="49.66772" lon="-1.87862">
        <ele>153.898438</ele>
        <time>2019-09-02T09:49:57Z</time>
      </trkpt>
      <trkpt lat="49.66791" lon="-1.87876">
        <ele>152.5</ele>
        <time>2019-09-02T09:50:01Z</time>
      </trkpt>
      <trkpt lat="49.66803" lon="-1.87879">
        <ele>151.699219</ele>
        <time>2019-09-02T09:50:03Z</time>
      </trkpt>
      <trkpt lat="49.66816" lon="-1.87874">
        <ele>151.097656</ele>
        <time>2019-09-02T09:50:05Z</time>
      </trkpt>
      <trkpt lat="49.66829" lon="-1.87868">
        <ele>151.398438</ele>
        <time>2019-09-02T09:50:07Z</time>
      </trkpt>
      <trkpt lat="49.66843" lon="-1.87866">
        <ele>152</ele>
        <time>2019-09-02T09:50:09Z</time>
      </trkpt>
      <trkpt lat="49.66855" lon="-1.87868">
        <ele>152.898438</ele>
        <time>2019-09-02T09:50:11Z</time>
      </trkpt>
      <trkpt lat="49.66864" lon="-1.87878">
        <ele>153.699219</ele>
        <time>2019-09-02T09:50:13Z</time>
      </trkpt>
      <trkpt lat="49.66869" lon="-1.87891">
        <ele>155</ele>
        <time>2019-09-02T09:50:15Z</time>
      </trkpt>
      <trkpt lat="49.66873" lon="-1.87907">
        <ele>156.199219</ele>
        <time>2019-09-02T09:50:18Z</time>
      </trkpt>
      <trkpt lat="49.66877" lon="-1.87921">
        <ele>158</ele>
        <time>2019-09-02T09:50:21Z</time>
      </trkpt>
      <trkpt lat="49.66884" lon="-1.87935">
        <ele>159.398438</ele>
        <time>2019-09-02T09:50:25Z</time>
      </trkpt>
      <trkpt lat="49.66893" lon="-1.87933">
        <ele>161.199219</ele>
        <time>2019-09-02T09:50:28Z</time>
      </trkpt>
      <trkpt lat="49.66905" lon="-1.87931">
        <ele>162.199219</ele>
        <time>2019-09-02T09:50:32Z</time>
      </trkpt>
      <trkpt lat="49.66914" lon="-1.87935">
        <ele>163</ele>
        <time>2019-09-02T09:50:35Z</time>
      </trkpt>
      <trkpt lat="49.66922" lon="-1.87943">
        <ele>163.5</ele>
        <time>2019-09-02T09:50:38Z</time>
      </trkpt>
      <trkpt lat="49.66928" lon="-1.87954">
        <ele>164.199219</ele>
        <time>2019-09-02T09:50:41Z</time>
      </trkpt>
      <trkpt lat="49.66942" lon="-1.87978">
        <ele>165.898438</ele>
        <time>2019-09-02T09:50:48Z</time>
      </trkpt>
      <trkpt lat="49.66956" lon="-1.87997">
        <ele>167.398438</ele>
        <time>2019-09-02T09:50:54Z</time>
      </trkpt>
      <trkpt lat="49.66964" lon="-1.88006">
        <ele>168.097656</ele>
        <time>2019-09-02T09:50:57Z</time>
      </trkpt>
      <trkpt lat="49.6698" lon="-1.88023">
        <ele>170.097656</ele>
        <time>2019-09-02T09:51:03Z</time>
      </trkpt>
      <trkpt lat="49.66988" lon="-1.8803">
        <ele>171</ele>
        <time>2019-09-02T09:51:06Z</time>
      </trkpt>
      <trkpt lat="49.66997" lon="-1.88035">
        <ele>171.796875</ele>
        <time>2019-09-02T09:51:09Z</time>
      </trkpt>
      <trkpt lat="49.67054" lon="-1.88062">
        <ele>173.898438</ele>
        <time>2019-09-02T09:51:27Z</time>
      </trkpt>
      <trkpt lat="49.67063" lon="-1.88069">
        <ele>173.597656</ele>
        <time>2019-09-02T09:51:30Z</time>
      </trkpt>
      <trkpt lat="49.67082" lon="-1.88087">
        <ele>173.097656</ele>
        <time>2019-09-02T09:51:38Z</time>
      </trkpt>
      <trkpt lat="49.67093" lon="-1.88094">
        <ele>172.796875</ele>
        <time>2019-09-02T09:51:42Z</time>
      </trkpt>
      <trkpt lat="49.67202" lon="-1.88147">
        <ele>168.097656</ele>
        <time>2019-09-02T09:52:05Z</time>
      </trkpt>
      <trkpt lat="49.67251" lon="-1.88171">
        <ele>166.5</ele>
        <time>2019-09-02T09:52:13Z</time>
      </trkpt>
      <trkpt lat="49.67264" lon="-1.88175">
        <ele>166.199219</ele>
        <time>2019-09-02T09:52:15Z</time>
      </trkpt>
      <trkpt lat="49.67276" lon="-1.88177">
        <ele>166</ele>
        <time>2019-09-02T09:52:17Z</time>
      </trkpt>
      <trkpt lat="49.67286" lon="-1.88183">
        <ele>165.597656</ele>
        <time>2019-09-02T09:52:19Z</time>
      </trkpt>
      <trkpt lat="49.67295" lon="-1.88191">
        <ele>165</ele>
        <time>2019-09-02T09:52:21Z</time>
      </trkpt>
      <trkpt lat="49.67363" lon="-1.88248">
        <ele>158.5</ele>
        <time>2019-09-02T09:52:35Z</time>
      </trkpt>
      <trkpt lat="49.67373" lon="-1.88254">
        <ele>157.398438</ele>
        <time>2019-09-02T09:52:37Z</time>
      </trkpt>
      <trkpt lat="49.67382" lon="-1.88263">
        <ele>156.796875</ele>
        <time>2019-09-02T09:52:39Z</time>
      </trkpt>
      <trkpt lat="49.67388" lon="-1.88276">
        <ele>157.398438</ele>
        <time>2019-09-02T09:52:41Z</time>
      </trkpt>
      <trkpt lat="49.67394" lon="-1.88292">
        <ele>159.097656</ele>
        <time>2019-09-02T09:52:44Z</time>
      </trkpt>
      <trkpt lat="49.67398" lon="-1.88307">
        <ele>159.597656</ele>
        <time>2019-09-02T09:52:48Z</time>
      </trkpt>
      <trkpt lat="49.67401" lon="-1.88325">
        <ele>159.597656</ele>
        <time>2019-09-02T09:52:52Z</time>
      </trkpt>
      <trkpt lat="49.67455" lon="-1.88709">
        <ele>162.199219</ele>
        <time>2019-09-02T09:54:01Z</time>
      </trkpt>
      <trkpt lat="49.67446" lon="-1.8872">
        <ele>162.296875</ele>
        <time>2019-09-02T09:54:06Z</time>
      </trkpt>
      <trkpt lat="49.67435" lon="-1.88721">
        <ele>162.199219</ele>
        <time>2019-09-02T09:54:09Z</time>
      </trkpt>
      <trkpt lat="49.67423" lon="-1.88721">
        <ele>162.199219</ele>
        <time>2019-09-02T09:54:12Z</time>
      </trkpt>
      <trkpt lat="49.67411" lon="-1.88724">
        <ele>162.199219</ele>
        <time>2019-09-02T09:54:15Z</time>
      </trkpt>
      <trkpt lat="49.67398" lon="-1.88732">
        <ele>162.199219</ele>
        <time>2019-09-02T09:54:18Z</time>
      </trkpt>
      <trkpt lat="49.6739" lon="-1.88738">
        <ele>162</ele>
        <time>2019-09-02T09:54:20Z</time>
      </trkpt>
      <trkpt lat="49.67374" lon="-1.88753">
        <ele>161.398438</ele>
        <time>2019-09-02T09:54:24Z</time>
      </trkpt>
      <trkpt lat="49.67285" lon="-1.88842">
        <ele>154.296875</ele>
        <time>2019-09-02T09:54:42Z</time>
      </trkpt>
      <trkpt lat="49.67277" lon="-1.88858">
        <ele>153.199219</ele>
        <time>2019-09-02T09:54:44Z</time>
      </trkpt>
      <trkpt lat="49.67272" lon="-1.88879">
        <ele>152.097656</ele>
        <time>2019-09-02T09:54:46Z</time>
      </trkpt>
      <trkpt lat="49.67268" lon="-1.88902">
        <ele>151.199219</ele>
        <time>2019-09-02T09:54:48Z</time>
      </trkpt>
      <trkpt lat="49.67261" lon="-1.88948">
        <ele>150.199219</ele>
        <time>2019-09-02T09:54:52Z</time>
      </trkpt>
      <trkpt lat="49.67256" lon="-1.8897">
        <ele>149.796875</ele>
        <time>2019-09-02T09:54:54Z</time>
      </trkpt>
      <trkpt lat="49.67251" lon="-1.88991">
        <ele>149.5</ele>
        <time>2019-09-02T09:54:56Z</time>
      </trkpt>
      <trkpt lat="49.67239" lon="-1.89028">
        <ele>148.699219</ele>
        <time>2019-09-02T09:55:00Z</time>
      </trkpt>
      <trkpt lat="49.67236" lon="-1.89048">
        <ele>148.796875</ele>
        <time>2019-09-02T09:55:02Z</time>
      </trkpt>
      <trkpt lat="49.6724" lon="-1.89064">
        <ele>148.898438</ele>
        <time>2019-09-02T09:55:04Z</time>
      </trkpt>
      <trkpt lat="49.67247" lon="-1.89076">
        <ele>148.699219</ele>
        <time>2019-09-02T09:55:06Z</time>
      </trkpt>
      <trkpt lat="49.67269" lon="-1.89111">
        <ele>148.097656</ele>
        <time>2019-09-02T09:55:12Z</time>
      </trkpt>
      <trkpt lat="49.67291" lon="-1.89153">
        <ele>146.699219</ele>
        <time>2019-09-02T09:55:18Z</time>
      </trkpt>
      <trkpt lat="49.67299" lon="-1.8917">
        <ele>146</ele>
        <time>2019-09-02T09:55:20Z</time>
      </trkpt>
      <trkpt lat="49.67335" lon="-1.89264">
        <ele>142.5</ele>
        <time>2019-09-02T09:55:30Z</time>
      </trkpt>
      <trkpt lat="49.67342" lon="-1.89284">
        <ele>142.5</ele>
        <time>2019-09-02T09:55:32Z</time>
      </trkpt>
      <trkpt lat="49.67347" lon="-1.89303">
        <ele>142.398438</ele>
        <time>2019-09-02T09:55:34Z</time>
      </trkpt>
      <trkpt lat="49.67351" lon="-1.89323">
        <ele>142.5</ele>
        <time>2019-09-02T09:55:36Z</time>
      </trkpt>
      <trkpt lat="49.67353" lon="-1.89342">
        <ele>142.699219</ele>
        <time>2019-09-02T09:55:38Z</time>
      </trkpt>
      <trkpt lat="49.67354" lon="-1.89361">
        <ele>143.097656</ele>
        <time>2019-09-02T09:55:40Z</time>
      </trkpt>
      <trkpt lat="49.6736" lon="-1.89464">
        <ele>144.898438</ele>
        <time>2019-09-02T09:55:52Z</time>
      </trkpt>
      <trkpt lat="49.67363" lon="-1.89477">
        <ele>145.097656</ele>
        <time>2019-09-02T09:55:54Z</time>
      </trkpt>
      <trkpt lat="49.6737" lon="-1.89487">
        <ele>145.5</ele>
        <time>2019-09-02T09:55:56Z</time>
      </trkpt>
      <trkpt lat="49.67378" lon="-1.89492">
        <ele>146.296875</ele>
        <time>2019-09-02T09:55:58Z</time>
      </trkpt>
      <trkpt lat="49.6739" lon="-1.89496">
        <ele>147.097656</ele>
        <time>2019-09-02T09:56:01Z</time>
      </trkpt>
      <trkpt lat="49.67441" lon="-1.89511">
        <ele>150.398438</ele>
        <time>2019-09-02T09:56:16Z</time>
      </trkpt>
      <trkpt lat="49.67601" lon="-1.89565">
        <ele>156.296875</ele>
        <time>2019-09-02T09:56:58Z</time>
      </trkpt>
      <trkpt lat="49.67626" lon="-1.8957">
        <ele>158</ele>
        <time>2019-09-02T09:57:04Z</time>
      </trkpt>
      <trkpt lat="49.67674" lon="-1.8958">
        <ele>161.097656</ele>
        <time>2019-09-02T09:57:16Z</time>
      </trkpt>
      <trkpt lat="49.67684" lon="-1.89588">
        <ele>161</ele>
        <time>2019-09-02T09:57:19Z</time>
      </trkpt>
      <trkpt lat="49.67691" lon="-1.89605">
        <ele>160.796875</ele>
        <time>2019-09-02T09:57:22Z</time>
      </trkpt>
      <trkpt lat="49.67693" lon="-1.89619">
        <ele>160.5</ele>
        <time>2019-09-02T09:57:24Z</time>
      </trkpt>
      <trkpt lat="49.67729" lon="-1.89819">
        <ele>159.898438</ele>
        <time>2019-09-02T09:57:50Z</time>
      </trkpt>
      <trkpt lat="49.67738" lon="-1.89849">
        <ele>160.097656</ele>
        <time>2019-09-02T09:57:55Z</time>
      </trkpt>
      <trkpt lat="49.67738" lon="-1.89866">
        <ele>159.898438</ele>
        <time>2019-09-02T09:57:58Z</time>
      </trkpt>
      <trkpt lat="49.6774" lon="-1.89914">
        <ele>160.097656</ele>
        <time>2019-09-02T09:58:05Z</time>
      </trkpt>
      <trkpt lat="49.67742" lon="-1.89928">
        <ele>160.898438</ele>
        <time>2019-09-02T09:58:07Z</time>
      </trkpt>
      <trkpt lat="49.67748" lon="-1.89944">
        <ele>161.597656</ele>
        <time>2019-09-02T09:58:10Z</time>
      </trkpt>
      <trkpt lat="49.67794" lon="-1.90076">
        <ele>164.699219</ele>
        <time>2019-09-02T09:58:34Z</time>
      </trkpt>
      <trkpt lat="49.67827" lon="-1.90201">
        <ele>166.199219</ele>
        <time>2019-09-02T09:58:55Z</time>
      </trkpt>
      <trkpt lat="49.6783" lon="-1.90221">
        <ele>166.398438</ele>
        <time>2019-09-02T09:58:58Z</time>
      </trkpt>
      <trkpt lat="49.67831" lon="-1.90242">
        <ele>166.5</ele>
        <time>2019-09-02T09:59:01Z</time>
      </trkpt>
      <trkpt lat="49.6783" lon="-1.90256">
        <ele>166.597656</ele>
        <time>2019-09-02T09:59:03Z</time>
      </trkpt>
      <trkpt lat="49.67829" lon="-1.9027">
        <ele>166.5</ele>
        <time>2019-09-02T09:59:05Z</time>
      </trkpt>
      <trkpt lat="49.67819" lon="-1.90347">
        <ele>166.097656</ele>
        <time>2019-09-02T09:59:15Z</time>
      </trkpt>
      <trkpt lat="49.67818" lon="-1.90397">
        <ele>166.097656</ele>
        <time>2019-09-02T09:59:21Z</time>
      </trkpt>
      <trkpt lat="49.67819" lon="-1.90446">
        <ele>165.898438</ele>
        <time>2019-09-02T09:59:27Z</time>
      </trkpt>
      <trkpt lat="49.67822" lon="-1.90511">
        <ele>165.398438</ele>
        <time>2019-09-02T09:59:36Z</time>
      </trkpt>
      <trkpt lat="49.67824" lon="-1.90525">
        <ele>165.597656</ele>
        <time>2019-09-02T09:59:40Z</time>
      </trkpt>
      <trkpt lat="49.67826" lon="-1.9054">
        <ele>165.699219</ele>
        <time>2019-09-02T09:59:43Z</time>
      </trkpt>
      <trkpt lat="49.67832" lon="-1.90573">
        <ele>165.699219</ele>
        <time>2019-09-02T09:59:49Z</time>
      </trkpt>
      <trkpt lat="49.67836" lon="-1.90591">
        <ele>165.898438</ele>
        <time>2019-09-02T09:59:52Z</time>
      </trkpt>
      <trkpt lat="49.67839" lon="-1.90609">
        <ele>166</ele>
        <time>2019-09-02T09:59:55Z</time>
      </trkpt>
      <trkpt lat="49.67841" lon="-1.90626">
        <ele>165.398438</ele>
        <time>2019-09-02T09:59:58Z</time>
      </trkpt>
      <trkpt lat="49.67845" lon="-1.90643">
        <ele>164.597656</ele>
        <time>2019-09-02T10:00:01Z</time>
      </trkpt>
      <trkpt lat="49.67853" lon="-1.90691">
        <ele>163.5</ele>
        <time>2019-09-02T10:00:08Z</time>
      </trkpt>
      <trkpt lat="49.67857" lon="-1.90723">
        <ele>162.796875</ele>
        <time>2019-09-02T10:00:12Z</time>
      </trkpt>
      <trkpt lat="49.67859" lon="-1.90752">
        <ele>162.398438</ele>
        <time>2019-09-02T10:00:16Z</time>
      </trkpt>
      <trkpt lat="49.67861" lon="-1.90821">
        <ele>161.097656</ele>
        <time>2019-09-02T10:00:26Z</time>
      </trkpt>
      <trkpt lat="49.67862" lon="-1.90838">
        <ele>160.796875</ele>
        <time>2019-09-02T10:00:29Z</time>
      </trkpt>
      <trkpt lat="49.67866" lon="-1.90853">
        <ele>160.5</ele>
        <time>2019-09-02T10:00:32Z</time>
      </trkpt>
      <trkpt lat="49.67872" lon="-1.90866">
        <ele>160</ele>
        <time>2019-09-02T10:00:35Z</time>
      </trkpt>
      <trkpt lat="49.67878" lon="-1.90881">
        <ele>159.699219</ele>
        <time>2019-09-02T10:00:38Z</time>
      </trkpt>
      <trkpt lat="49.67882" lon="-1.90894">
        <ele>159.699219</ele>
        <time>2019-09-02T10:00:41Z</time>
      </trkpt>
      <trkpt lat="49.67881" lon="-1.90912">
        <ele>159.796875</ele>
        <time>2019-09-02T10:00:44Z</time>
      </trkpt>
      <trkpt lat="49.67878" lon="-1.90932">
        <ele>159.699219</ele>
        <time>2019-09-02T10:00:47Z</time>
      </trkpt>
      <trkpt lat="49.67801" lon="-1.91314">
        <ele>145.199219</ele>
        <time>2019-09-02T10:01:29Z</time>
      </trkpt>
      <trkpt lat="49.67797" lon="-1.9134">
        <ele>144.5</ele>
        <time>2019-09-02T10:01:31Z</time>
      </trkpt>
      <trkpt lat="49.67756" lon="-1.91597">
        <ele>136.5</ele>
        <time>2019-09-02T10:01:51Z</time>
      </trkpt>
      <trkpt lat="49.6776" lon="-1.91614">
        <ele>135.898438</ele>
        <time>2019-09-02T10:01:54Z</time>
      </trkpt>
      <trkpt lat="49.67771" lon="-1.9162">
        <ele>135.597656</ele>
        <time>2019-09-02T10:01:57Z</time>
      </trkpt>
      <trkpt lat="49.6778" lon="-1.9162">
        <ele>135.296875</ele>
        <time>2019-09-02T10:01:59Z</time>
      </trkpt>
      <trkpt lat="49.67789" lon="-1.91622">
        <ele>133.597656</ele>
        <time>2019-09-02T10:02:01Z</time>
      </trkpt>
      <trkpt lat="49.67798" lon="-1.91638">
        <ele>131.898438</ele>
        <time>2019-09-02T10:02:04Z</time>
      </trkpt>
      <trkpt lat="49.67802" lon="-1.91654">
        <ele>130.699219</ele>
        <time>2019-09-02T10:02:06Z</time>
      </trkpt>
      <trkpt lat="49.67804" lon="-1.91674">
        <ele>129.296875</ele>
        <time>2019-09-02T10:02:08Z</time>
      </trkpt>
      <trkpt lat="49.67805" lon="-1.91697">
        <ele>127.898438</ele>
        <time>2019-09-02T10:02:10Z</time>
      </trkpt>
      <trkpt lat="49.67806" lon="-1.91721">
        <ele>126.398438</ele>
        <time>2019-09-02T10:02:12Z</time>
      </trkpt>
      <trkpt lat="49.67805" lon="-1.91747">
        <ele>125.097656</ele>
        <time>2019-09-02T10:02:14Z</time>
      </trkpt>
      <trkpt lat="49.67801" lon="-1.91797">
        <ele>123.5</ele>
        <time>2019-09-02T10:02:18Z</time>
      </trkpt>
      <trkpt lat="49.67797" lon="-1.91837">
        <ele>122.699219</ele>
        <time>2019-09-02T10:02:22Z</time>
      </trkpt>
      <trkpt lat="49.678" lon="-1.9185">
        <ele>121.699219</ele>
        <time>2019-09-02T10:02:25Z</time>
      </trkpt>
      <trkpt lat="49.6781" lon="-1.91846">
        <ele>121</ele>
        <time>2019-09-02T10:02:28Z</time>
      </trkpt>
      <trkpt lat="49.67817" lon="-1.91837">
        <ele>120.199219</ele>
        <time>2019-09-02T10:02:30Z</time>
      </trkpt>
      <trkpt lat="49.67826" lon="-1.91829">
        <ele>119.5</ele>
        <time>2019-09-02T10:02:32Z</time>
      </trkpt>
      <trkpt lat="49.67836" lon="-1.91826">
        <ele>119.097656</ele>
        <time>2019-09-02T10:02:34Z</time>
      </trkpt>
      <trkpt lat="49.67847" lon="-1.91822">
        <ele>119.097656</ele>
        <time>2019-09-02T10:02:36Z</time>
      </trkpt>
      <trkpt lat="49.67857" lon="-1.91812">
        <ele>119.296875</ele>
        <time>2019-09-02T10:02:38Z</time>
      </trkpt>
      <trkpt lat="49.67867" lon="-1.91806">
        <ele>119.597656</ele>
        <time>2019-09-02T10:02:40Z</time>
      </trkpt>
      <trkpt lat="49.67887" lon="-1.91797">
        <ele>122.199219</ele>
        <time>2019-09-02T10:02:44Z</time>
      </trkpt>
      <trkpt lat="49.67897" lon="-1.91786">
        <ele>123.597656</ele>
        <time>2019-09-02T10:02:47Z</time>
      </trkpt>
      <trkpt lat="49.67901" lon="-1.91772">
        <ele>125</ele>
        <time>2019-09-02T10:02:50Z</time>
      </trkpt>
      <trkpt lat="49.67907" lon="-1.91759">
        <ele>125.398438</ele>
        <time>2019-09-02T10:02:54Z</time>
      </trkpt>
      <trkpt lat="49.67915" lon="-1.91752">
        <ele>125.699219</ele>
        <time>2019-09-02T10:02:57Z</time>
      </trkpt>
      <trkpt lat="49.67923" lon="-1.9174">
        <ele>126.296875</ele>
        <time>2019-09-02T10:03:00Z</time>
      </trkpt>
      <trkpt lat="49.67929" lon="-1.91726">
        <ele>126.898438</ele>
        <time>2019-09-02T10:03:03Z</time>
      </trkpt>
      <trkpt lat="49.67937" lon="-1.91713">
        <ele>127.398438</ele>
        <time>2019-09-02T10:03:06Z</time>
      </trkpt>
      <trkpt lat="49.67945" lon="-1.91702">
        <ele>127.898438</ele>
        <time>2019-09-02T10:03:09Z</time>
      </trkpt>
      <trkpt lat="49.67983" lon="-1.91657">
        <ele>126.699219</ele>
        <time>2019-09-02T10:03:21Z</time>
      </trkpt>
      <trkpt lat="49.67991" lon="-1.91648">
        <ele>126.398438</ele>
        <time>2019-09-02T10:03:23Z</time>
      </trkpt>
      <trkpt lat="49.68033" lon="-1.9161">
        <ele>125.097656</ele>
        <time>2019-09-02T10:03:33Z</time>
      </trkpt>
      <trkpt lat="49.68042" lon="-1.916">
        <ele>124.199219</ele>
        <time>2019-09-02T10:03:35Z</time>
      </trkpt>
      <trkpt lat="49.68052" lon="-1.91588">
        <ele>123.796875</ele>
        <time>2019-09-02T10:03:37Z</time>
      </trkpt>
      <trkpt lat="49.68062" lon="-1.91577">
        <ele>123.699219</ele>
        <time>2019-09-02T10:03:39Z</time>
      </trkpt>
      <trkpt lat="49.68073" lon="-1.91569">
        <ele>123.796875</ele>
        <time>2019-09-02T10:03:41Z</time>
      </trkpt>
      <trkpt lat="49.68126" lon="-1.91534">
        <ele>124.097656</ele>
        <time>2019-09-02T10:03:53Z</time>
      </trkpt>
      <trkpt lat="49.68135" lon="-1.91532">
        <ele>123.796875</ele>
        <time>2019-09-02T10:03:55Z</time>
      </trkpt>
      <trkpt lat="49.68145" lon="-1.91531">
        <ele>123.398438</ele>
        <time>2019-09-02T10:03:57Z</time>
      </trkpt>
      <trkpt lat="49.68175" lon="-1.91527">
        <ele>123</ele>
        <time>2019-09-02T10:04:03Z</time>
      </trkpt>
      <trkpt lat="49.68185" lon="-1.91524">
        <ele>122.597656</ele>
        <time>2019-09-02T10:04:05Z</time>
      </trkpt>
      <trkpt lat="49.68196" lon="-1.91523">
        <ele>121.699219</ele>
        <time>2019-09-02T10:04:07Z</time>
      </trkpt>
      <trkpt lat="49.68208" lon="-1.91526">
        <ele>120.699219</ele>
        <time>2019-09-02T10:04:09Z</time>
      </trkpt>
      <trkpt lat="49.6825" lon="-1.9154">
        <ele>118.296875</ele>
        <time>2019-09-02T10:04:15Z</time>
      </trkpt>
      <trkpt lat="49.68262" lon="-1.9155">
        <ele>118.199219</ele>
        <time>2019-09-02T10:04:17Z</time>
      </trkpt>
      <trkpt lat="49.6827" lon="-1.91568">
        <ele>118.5</ele>
        <time>2019-09-02T10:04:19Z</time>
      </trkpt>
      <trkpt lat="49.68275" lon="-1.91585">
        <ele>118.898438</ele>
        <time>2019-09-02T10:04:21Z</time>
      </trkpt>
      <trkpt lat="49.6828" lon="-1.91602">
        <ele>119</ele>
        <time>2019-09-02T10:04:23Z</time>
      </trkpt>
      <trkpt lat="49.68286" lon="-1.91618">
        <ele>119.097656</ele>
        <time>2019-09-02T10:04:25Z</time>
      </trkpt>
      <trkpt lat="49.68294" lon="-1.91631">
        <ele>119.5</ele>
        <time>2019-09-02T10:04:27Z</time>
      </trkpt>
      <trkpt lat="49.68303" lon="-1.9164">
        <ele>119.898438</ele>
        <time>2019-09-02T10:04:29Z</time>
      </trkpt>
      <trkpt lat="49.68313" lon="-1.91648">
        <ele>120.296875</ele>
        <time>2019-09-02T10:04:31Z</time>
      </trkpt>
      <trkpt lat="49.68398" lon="-1.91709">
        <ele>122.699219</ele>
        <time>2019-09-02T10:04:49Z</time>
      </trkpt>
      <trkpt lat="49.68478" lon="-1.91755">
        <ele>122.398438</ele>
        <time>2019-09-02T10:05:05Z</time>
      </trkpt>
      <trkpt lat="49.68489" lon="-1.9176">
        <ele>122.5</ele>
        <time>2019-09-02T10:05:07Z</time>
      </trkpt>
      <trkpt lat="49.68509" lon="-1.91767">
        <ele>122.796875</ele>
        <time>2019-09-02T10:05:11Z</time>
      </trkpt>
      <trkpt lat="49.68519" lon="-1.91769">
        <ele>123</ele>
        <time>2019-09-02T10:05:13Z</time>
      </trkpt>
      <trkpt lat="49.68529" lon="-1.91769">
        <ele>123.296875</ele>
        <time>2019-09-02T10:05:15Z</time>
      </trkpt>
      <trkpt lat="49.68566" lon="-1.91771">
        <ele>122.796875</ele>
        <time>2019-09-02T10:05:23Z</time>
      </trkpt>
      <trkpt lat="49.68579" lon="-1.91777">
        <ele>122.398438</ele>
        <time>2019-09-02T10:05:26Z</time>
      </trkpt>
      <trkpt lat="49.68588" lon="-1.91784">
        <ele>121.898438</ele>
        <time>2019-09-02T10:05:28Z</time>
      </trkpt>
      <trkpt lat="49.68596" lon="-1.91792">
        <ele>121.398438</ele>
        <time>2019-09-02T10:05:30Z</time>
      </trkpt>
      <trkpt lat="49.68604" lon="-1.91801">
        <ele>120.398438</ele>
        <time>2019-09-02T10:05:32Z</time>
      </trkpt>
      <trkpt lat="49.68613" lon="-1.91812">
        <ele>119</ele>
        <time>2019-09-02T10:05:34Z</time>
      </trkpt>
      <trkpt lat="49.68623" lon="-1.91826">
        <ele>117.097656</ele>
        <time>2019-09-02T10:05:36Z</time>
      </trkpt>
      <trkpt lat="49.68632" lon="-1.91844">
        <ele>115.199219</ele>
        <time>2019-09-02T10:05:38Z</time>
      </trkpt>
      <trkpt lat="49.68648" lon="-1.91879">
        <ele>111.597656</ele>
        <time>2019-09-02T10:05:42Z</time>
      </trkpt>
      <trkpt lat="49.68655" lon="-1.9189">
        <ele>110.199219</ele>
        <time>2019-09-02T10:05:44Z</time>
      </trkpt>
      <trkpt lat="49.68664" lon="-1.91895">
        <ele>108.5</ele>
        <time>2019-09-02T10:05:46Z</time>
      </trkpt>
      <trkpt lat="49.68675" lon="-1.91898">
        <ele>106.898438</ele>
        <time>2019-09-02T10:05:48Z</time>
      </trkpt>
      <trkpt lat="49.68685" lon="-1.91903">
        <ele>105.5</ele>
        <time>2019-09-02T10:05:50Z</time>
      </trkpt>
      <trkpt lat="49.68694" lon="-1.91908">
        <ele>103.796875</ele>
        <time>2019-09-02T10:05:52Z</time>
      </trkpt>
      <trkpt lat="49.68702" lon="-1.9192">
        <ele>101.796875</ele>
        <time>2019-09-02T10:05:55Z</time>
      </trkpt>
      <trkpt lat="49.68705" lon="-1.91937">
        <ele>100</ele>
        <time>2019-09-02T10:05:59Z</time>
      </trkpt>
      <trkpt lat="49.68711" lon="-1.91954">
        <ele>98.199219</ele>
        <time>2019-09-02T10:06:02Z</time>
      </trkpt>
      <trkpt lat="49.68715" lon="-1.91971">
        <ele>97.097656</ele>
        <time>2019-09-02T10:06:05Z</time>
      </trkpt>
      <trkpt lat="49.68708" lon="-1.91985">
        <ele>96.699219</ele>
        <time>2019-09-02T10:06:08Z</time>
      </trkpt>
      <trkpt lat="49.68701" lon="-1.91993">
        <ele>96.5</ele>
        <time>2019-09-02T10:06:10Z</time>
      </trkpt>
      <trkpt lat="49.68692" lon="-1.92001">
        <ele>96.199219</ele>
        <time>2019-09-02T10:06:12Z</time>
      </trkpt>
      <trkpt lat="49.68683" lon="-1.92007">
        <ele>95.898438</ele>
        <time>2019-09-02T10:06:14Z</time>
      </trkpt>
      <trkpt lat="49.68661" lon="-1.92016">
        <ele>94.5</ele>
        <time>2019-09-02T10:06:18Z</time>
      </trkpt>
      <trkpt lat="49.68651" lon="-1.92027">
        <ele>93.398438</ele>
        <time>2019-09-02T10:06:20Z</time>
      </trkpt>
      <trkpt lat="49.68643" lon="-1.92044">
        <ele>91.597656</ele>
        <time>2019-09-02T10:06:22Z</time>
      </trkpt>
      <trkpt lat="49.68636" lon="-1.92065">
        <ele>89.5</ele>
        <time>2019-09-02T10:06:24Z</time>
      </trkpt>
      <trkpt lat="49.68631" lon="-1.9209">
        <ele>88.5</ele>
        <time>2019-09-02T10:06:26Z</time>
      </trkpt>
      <trkpt lat="49.68629" lon="-1.92104">
        <ele>87.5</ele>
        <time>2019-09-02T10:06:27Z</time>
      </trkpt>
      <trkpt lat="49.68627" lon="-1.92132">
        <ele>84.796875</ele>
        <time>2019-09-02T10:06:29Z</time>
      </trkpt>
      <trkpt lat="49.68626" lon="-1.92159">
        <ele>83.097656</ele>
        <time>2019-09-02T10:06:31Z</time>
      </trkpt>
      <trkpt lat="49.68623" lon="-1.92185">
        <ele>81.597656</ele>
        <time>2019-09-02T10:06:33Z</time>
      </trkpt>
      <trkpt lat="49.68619" lon="-1.92208">
        <ele>80.097656</ele>
        <time>2019-09-02T10:06:35Z</time>
      </trkpt>
      <trkpt lat="49.6861" lon="-1.92229">
        <ele>78.699219</ele>
        <time>2019-09-02T10:06:37Z</time>
      </trkpt>
      <trkpt lat="49.68596" lon="-1.92245">
        <ele>77.796875</ele>
        <time>2019-09-02T10:06:39Z</time>
      </trkpt>
      <trkpt lat="49.68588" lon="-1.92252">
        <ele>76.796875</ele>
        <time>2019-09-02T10:06:40Z</time>
      </trkpt>
      <trkpt lat="49.68565" lon="-1.92273">
        <ele>72.597656</ele>
        <time>2019-09-02T10:06:43Z</time>
      </trkpt>
      <trkpt lat="49.68552" lon="-1.92291">
        <ele>71</ele>
        <time>2019-09-02T10:06:45Z</time>
      </trkpt>
      <trkpt lat="49.68542" lon="-1.92313">
        <ele>70.597656</ele>
        <time>2019-09-02T10:06:47Z</time>
      </trkpt>
      <trkpt lat="49.68535" lon="-1.92333">
        <ele>71</ele>
        <time>2019-09-02T10:06:49Z</time>
      </trkpt>
      <trkpt lat="49.68529" lon="-1.92349">
        <ele>71.199219</ele>
        <time>2019-09-02T10:06:51Z</time>
      </trkpt>
      <trkpt lat="49.68527" lon="-1.92364">
        <ele>70.5</ele>
        <time>2019-09-02T10:06:53Z</time>
      </trkpt>
      <trkpt lat="49.68529" lon="-1.92379">
        <ele>69.597656</ele>
        <time>2019-09-02T10:06:55Z</time>
      </trkpt>
      <trkpt lat="49.6853" lon="-1.92398">
        <ele>68.597656</ele>
        <time>2019-09-02T10:06:57Z</time>
      </trkpt>
      <trkpt lat="49.68531" lon="-1.92441">
        <ele>67.097656</ele>
        <time>2019-09-02T10:07:01Z</time>
      </trkpt>
      <trkpt lat="49.68534" lon="-1.92464">
        <ele>66.5</ele>
        <time>2019-09-02T10:07:03Z</time>
      </trkpt>
      <trkpt lat="49.6854" lon="-1.92487">
        <ele>66.097656</ele>
        <time>2019-09-02T10:07:05Z</time>
      </trkpt>
      <trkpt lat="49.68548" lon="-1.92509">
        <ele>65.699219</ele>
        <time>2019-09-02T10:07:07Z</time>
      </trkpt>
      <trkpt lat="49.68558" lon="-1.92529">
        <ele>64.699219</ele>
        <time>2019-09-02T10:07:09Z</time>
      </trkpt>
      <trkpt lat="49.6857" lon="-1.92544">
        <ele>64.199219</ele>
        <time>2019-09-02T10:07:11Z</time>
      </trkpt>
      <trkpt lat="49.68586" lon="-1.92551">
        <ele>64.296875</ele>
        <time>2019-09-02T10:07:13Z</time>
      </trkpt>
      <trkpt lat="49.68602" lon="-1.92552">
        <ele>64.5</ele>
        <time>2019-09-02T10:07:15Z</time>
      </trkpt>
      <trkpt lat="49.68617" lon="-1.92548">
        <ele>64.597656</ele>
        <time>2019-09-02T10:07:17Z</time>
      </trkpt>
      <trkpt lat="49.68632" lon="-1.92543">
        <ele>64.796875</ele>
        <time>2019-09-02T10:07:19Z</time>
      </trkpt>
      <trkpt lat="49.68647" lon="-1.92542">
        <ele>65</ele>
        <time>2019-09-02T10:07:21Z</time>
      </trkpt>
      <trkpt lat="49.68662" lon="-1.92544">
        <ele>65.199219</ele>
        <time>2019-09-02T10:07:23Z</time>
      </trkpt>
      <trkpt lat="49.68676" lon="-1.92549">
        <ele>65</ele>
        <time>2019-09-02T10:07:25Z</time>
      </trkpt>
      <trkpt lat="49.68688" lon="-1.9256">
        <ele>64.398438</ele>
        <time>2019-09-02T10:07:27Z</time>
      </trkpt>
      <trkpt lat="49.687" lon="-1.92574">
        <ele>63.597656</ele>
        <time>2019-09-02T10:07:29Z</time>
      </trkpt>
      <trkpt lat="49.68711" lon="-1.92591">
        <ele>62.398438</ele>
        <time>2019-09-02T10:07:31Z</time>
      </trkpt>
      <trkpt lat="49.68721" lon="-1.92611">
        <ele>60.898438</ele>
        <time>2019-09-02T10:07:33Z</time>
      </trkpt>
      <trkpt lat="49.6873" lon="-1.92632">
        <ele>59.199219</ele>
        <time>2019-09-02T10:07:35Z</time>
      </trkpt>
      <trkpt lat="49.68739" lon="-1.92657">
        <ele>58.296875</ele>
        <time>2019-09-02T10:07:37Z</time>
      </trkpt>
      <trkpt lat="49.68743" lon="-1.9267">
        <ele>57.5</ele>
        <time>2019-09-02T10:07:38Z</time>
      </trkpt>
      <trkpt lat="49.68746" lon="-1.92684">
        <ele>56.699219</ele>
        <time>2019-09-02T10:07:39Z</time>
      </trkpt>
      <trkpt lat="49.68758" lon="-1.92741">
        <ele>54.097656</ele>
        <time>2019-09-02T10:07:43Z</time>
      </trkpt>
      <trkpt lat="49.68762" lon="-1.92754">
        <ele>53.699219</ele>
        <time>2019-09-02T10:07:44Z</time>
      </trkpt>
      <trkpt lat="49.68767" lon="-1.92767">
        <ele>53.398438</ele>
        <time>2019-09-02T10:07:45Z</time>
      </trkpt>
      <trkpt lat="49.68833" lon="-1.92947">
        <ele>43.398438</ele>
        <time>2019-09-02T10:07:59Z</time>
      </trkpt>
      <trkpt lat="49.68836" lon="-1.9296">
        <ele>42.597656</ele>
        <time>2019-09-02T10:08:00Z</time>
      </trkpt>
      <trkpt lat="49.68839" lon="-1.92974">
        <ele>41.898438</ele>
        <time>2019-09-02T10:08:01Z</time>
      </trkpt>
      <trkpt lat="49.68877" lon="-1.93175">
        <ele>32.398438</ele>
        <time>2019-09-02T10:08:16Z</time>
      </trkpt>
      <trkpt lat="49.68882" lon="-1.93188">
        <ele>31.898438</ele>
        <time>2019-09-02T10:08:17Z</time>
      </trkpt>
      <trkpt lat="49.68888" lon="-1.93198">
        <ele>31.5</ele>
        <time>2019-09-02T10:08:18Z</time>
      </trkpt>
      <trkpt lat="49.68895" lon="-1.93208">
        <ele>31.097656</ele>
        <time>2019-09-02T10:08:19Z</time>
      </trkpt>
      <trkpt lat="49.68902" lon="-1.93216">
        <ele>30.398438</ele>
        <time>2019-09-02T10:08:20Z</time>
      </trkpt>
      <trkpt lat="49.68919" lon="-1.93226">
        <ele>29.597656</ele>
        <time>2019-09-02T10:08:22Z</time>
      </trkpt>
      <trkpt lat="49.69005" lon="-1.9327">
        <ele>24.296875</ele>
        <time>2019-09-02T10:08:32Z</time>
      </trkpt>
      <trkpt lat="49.69013" lon="-1.93276">
        <ele>23.398438</ele>
        <time>2019-09-02T10:08:33Z</time>
      </trkpt>
      <trkpt lat="49.69025" lon="-1.93296">
        <ele>22.597656</ele>
        <time>2019-09-02T10:08:35Z</time>
      </trkpt>
      <trkpt lat="49.69031" lon="-1.93321">
        <ele>21.796875</ele>
        <time>2019-09-02T10:08:37Z</time>
      </trkpt>
      <trkpt lat="49.69035" lon="-1.93345">
        <ele>21.097656</ele>
        <time>2019-09-02T10:08:39Z</time>
      </trkpt>
      <trkpt lat="49.69038" lon="-1.9337">
        <ele>20.296875</ele>
        <time>2019-09-02T10:08:41Z</time>
      </trkpt>
      <trkpt lat="49.6904" lon="-1.93394">
        <ele>19.199219</ele>
        <time>2019-09-02T10:08:43Z</time>
      </trkpt>
      <trkpt lat="49.69043" lon="-1.93455">
        <ele>16.398438</ele>
        <time>2019-09-02T10:08:49Z</time>
      </trkpt>
      <trkpt lat="49.69045" lon="-1.9347">
        <ele>15.796875</ele>
        <time>2019-09-02T10:08:51Z</time>
      </trkpt>
      <trkpt lat="49.69049" lon="-1.93483">
        <ele>15.296875</ele>
        <time>2019-09-02T10:08:53Z</time>
      </trkpt>
      <trkpt lat="49.69053" lon="-1.93498">
        <ele>14.699219</ele>
        <time>2019-09-02T10:08:56Z</time>
      </trkpt>
      <trkpt lat="49.69046" lon="-1.93505">
        <ele>13.699219</ele>
        <time>2019-09-02T10:09:00Z</time>
      </trkpt>
      <trkpt lat="49.69036" lon="-1.93508">
        <ele>13.699219</ele>
        <time>2019-09-02T10:09:03Z</time>
      </trkpt>
      <trkpt lat="49.6903" lon="-1.93494">
        <ele>13.597656</ele>
        <time>2019-09-02T10:09:07Z</time>
      </trkpt>
      <trkpt lat="49.69024" lon="-1.9348">
        <ele>16.097656</ele>
        <time>2019-09-02T10:09:12Z</time>
      </trkpt>
      <trkpt lat="49.69022" lon="-1.93498">
        <ele>15.398438</ele>
        <time>2019-09-02T10:11:51Z</time>
      </trkpt>
      <trkpt lat="49.69017" lon="-1.9351">
        <ele>14.5</ele>
        <time>2019-09-02T10:11:54Z</time>
      </trkpt>
      <trkpt lat="49.69013" lon="-1.93522">
        <ele>13.097656</ele>
        <time>2019-09-02T10:12:03Z</time>
      </trkpt>
      <trkpt lat="49.69018" lon="-1.93511">
        <ele>13.898438</ele>
        <time>2019-09-02T10:15:32Z</time>
      </trkpt>
      <trkpt lat="49.69029" lon="-1.93508">
        <ele>14.796875</ele>
        <time>2019-09-02T10:15:39Z</time>
      </trkpt>
      <trkpt lat="49.69039" lon="-1.93506">
        <ele>16.199219</ele>
        <time>2019-09-02T10:15:43Z</time>
      </trkpt>
      <trkpt lat="49.69047" lon="-1.93499">
        <ele>16.296875</ele>
        <time>2019-09-02T10:15:47Z</time>
      </trkpt>
      <trkpt lat="49.69056" lon="-1.93503">
        <ele>16.699219</ele>
        <time>2019-09-02T10:15:50Z</time>
      </trkpt>
      <trkpt lat="49.69067" lon="-1.93513">
        <ele>17.5</ele>
        <time>2019-09-02T10:15:53Z</time>
      </trkpt>
      <trkpt lat="49.69079" lon="-1.93519">
        <ele>18.597656</ele>
        <time>2019-09-02T10:15:56Z</time>
      </trkpt>
      <trkpt lat="49.691" lon="-1.93526">
        <ele>20.398438</ele>
        <time>2019-09-02T10:16:02Z</time>
      </trkpt>
      <trkpt lat="49.6911" lon="-1.93529">
        <ele>21</ele>
        <time>2019-09-02T10:16:05Z</time>
      </trkpt>
      <trkpt lat="49.69141" lon="-1.93533">
        <ele>22.597656</ele>
        <time>2019-09-02T10:16:14Z</time>
      </trkpt>
      <trkpt lat="49.69152" lon="-1.93533">
        <ele>23.296875</ele>
        <time>2019-09-02T10:16:17Z</time>
      </trkpt>
      <trkpt lat="49.69164" lon="-1.93532">
        <ele>24.199219</ele>
        <time>2019-09-02T10:16:20Z</time>
      </trkpt>
      <trkpt lat="49.69175" lon="-1.9353">
        <ele>25.296875</ele>
        <time>2019-09-02T10:16:23Z</time>
      </trkpt>
      <trkpt lat="49.69269" lon="-1.93509">
        <ele>34.898438</ele>
        <time>2019-09-02T10:16:50Z</time>
      </trkpt>
      <trkpt lat="49.69279" lon="-1.93509">
        <ele>35.5</ele>
        <time>2019-09-02T10:16:53Z</time>
      </trkpt>
      <trkpt lat="49.69289" lon="-1.93512">
        <ele>36.097656</ele>
        <time>2019-09-02T10:16:56Z</time>
      </trkpt>
      <trkpt lat="49.69312" lon="-1.93519">
        <ele>37.597656</ele>
        <time>2019-09-02T10:17:02Z</time>
      </trkpt>
      <trkpt lat="49.69325" lon="-1.93521">
        <ele>38.597656</ele>
        <time>2019-09-02T10:17:05Z</time>
      </trkpt>
      <trkpt lat="49.6939" lon="-1.93534">
        <ele>43.796875</ele>
        <time>2019-09-02T10:17:23Z</time>
      </trkpt>
      <trkpt lat="49.69411" lon="-1.93542">
        <ele>45.796875</ele>
        <time>2019-09-02T10:17:29Z</time>
      </trkpt>
      <trkpt lat="49.69443" lon="-1.93557">
        <ele>48.796875</ele>
        <time>2019-09-02T10:17:38Z</time>
      </trkpt>
      <trkpt lat="49.69455" lon="-1.93559">
        <ele>49.597656</ele>
        <time>2019-09-02T10:17:41Z</time>
      </trkpt>
      <trkpt lat="49.69466" lon="-1.93558">
        <ele>50.097656</ele>
        <time>2019-09-02T10:17:44Z</time>
      </trkpt>
      <trkpt lat="49.69499" lon="-1.93558">
        <ele>51.296875</ele>
        <time>2019-09-02T10:17:53Z</time>
      </trkpt>
      <trkpt lat="49.69511" lon="-1.93562">
        <ele>51.699219</ele>
        <time>2019-09-02T10:17:56Z</time>
      </trkpt>
      <trkpt lat="49.69522" lon="-1.93568">
        <ele>51.796875</ele>
        <time>2019-09-02T10:17:59Z</time>
      </trkpt>
      <trkpt lat="49.69533" lon="-1.93574">
        <ele>51.796875</ele>
        <time>2019-09-02T10:18:02Z</time>
      </trkpt>
      <trkpt lat="49.69544" lon="-1.93582">
        <ele>51.796875</ele>
        <time>2019-09-02T10:18:05Z</time>
      </trkpt>
      <trkpt lat="49.69553" lon="-1.93592">
        <ele>51.796875</ele>
        <time>2019-09-02T10:18:08Z</time>
      </trkpt>
      <trkpt lat="49.69582" lon="-1.93624">
        <ele>52.597656</ele>
        <time>2019-09-02T10:18:17Z</time>
      </trkpt>
      <trkpt lat="49.69593" lon="-1.93631">
        <ele>53.097656</ele>
        <time>2019-09-02T10:18:20Z</time>
      </trkpt>
      <trkpt lat="49.69632" lon="-1.93652">
        <ele>57.199219</ele>
        <time>2019-09-02T10:18:32Z</time>
      </trkpt>
      <trkpt lat="49.69641" lon="-1.93661">
        <ele>58</ele>
        <time>2019-09-02T10:18:35Z</time>
      </trkpt>
      <trkpt lat="49.69649" lon="-1.93671">
        <ele>58.898438</ele>
        <time>2019-09-02T10:18:38Z</time>
      </trkpt>
      <trkpt lat="49.69657" lon="-1.93682">
        <ele>59.796875</ele>
        <time>2019-09-02T10:18:41Z</time>
      </trkpt>
      <trkpt lat="49.69664" lon="-1.93694">
        <ele>60.296875</ele>
        <time>2019-09-02T10:18:44Z</time>
      </trkpt>
      <trkpt lat="49.69693" lon="-1.93749">
        <ele>61.199219</ele>
        <time>2019-09-02T10:18:56Z</time>
      </trkpt>
      <trkpt lat="49.69701" lon="-1.9376">
        <ele>61.597656</ele>
        <time>2019-09-02T10:18:59Z</time>
      </trkpt>
      <trkpt lat="49.69732" lon="-1.93801">
        <ele>66</ele>
        <time>2019-09-02T10:19:11Z</time>
      </trkpt>
      <trkpt lat="49.69761" lon="-1.93845">
        <ele>72.097656</ele>
        <time>2019-09-02T10:19:23Z</time>
      </trkpt>
      <trkpt lat="49.6977" lon="-1.93852">
        <ele>73.5</ele>
        <time>2019-09-02T10:19:26Z</time>
      </trkpt>
      <trkpt lat="49.69779" lon="-1.93856">
        <ele>74.898438</ele>
        <time>2019-09-02T10:19:29Z</time>
      </trkpt>
      <trkpt lat="49.69806" lon="-1.93873">
        <ele>78.898438</ele>
        <time>2019-09-02T10:19:38Z</time>
      </trkpt>
      <trkpt lat="49.69824" lon="-1.93885">
        <ele>82.097656</ele>
        <time>2019-09-02T10:19:44Z</time>
      </trkpt>
      <trkpt lat="49.69834" lon="-1.93888">
        <ele>82.597656</ele>
        <time>2019-09-02T10:19:48Z</time>
      </trkpt>
      <trkpt lat="49.69832" lon="-1.93874">
        <ele>86</ele>
        <time>2019-09-02T10:19:55Z</time>
      </trkpt>
      <trkpt lat="49.69838" lon="-1.93887">
        <ele>86.199219</ele>
        <time>2019-09-02T10:21:51Z</time>
      </trkpt>
      <trkpt lat="49.69844" lon="-1.93899">
        <ele>86.898438</ele>
        <time>2019-09-02T10:21:57Z</time>
      </trkpt>
      <trkpt lat="49.69852" lon="-1.93907">
        <ele>87.398438</ele>
        <time>2019-09-02T10:22:01Z</time>
      </trkpt>
      <trkpt lat="49.69863" lon="-1.93911">
        <ele>87.199219</ele>
        <time>2019-09-02T10:22:05Z</time>
      </trkpt>
      <trkpt lat="49.69873" lon="-1.93912">
        <ele>87</ele>
        <time>2019-09-02T10:22:08Z</time>
      </trkpt>
      <trkpt lat="49.69885" lon="-1.93908">
        <ele>86.898438</ele>
        <time>2019-09-02T10:22:11Z</time>
      </trkpt>
      <trkpt lat="49.69909" lon="-1.93898">
        <ele>88.398438</ele>
        <time>2019-09-02T10:22:17Z</time>
      </trkpt>
      <trkpt lat="49.6992" lon="-1.93892">
        <ele>89.398438</ele>
        <time>2019-09-02T10:22:20Z</time>
      </trkpt>
      <trkpt lat="49.6993" lon="-1.93887">
        <ele>90</ele>
        <time>2019-09-02T10:22:23Z</time>
      </trkpt>
      <trkpt lat="49.6994" lon="-1.93888">
        <ele>90.398438</ele>
        <time>2019-09-02T10:22:26Z</time>
      </trkpt>
      <trkpt lat="49.6995" lon="-1.93891">
        <ele>90.398438</ele>
        <time>2019-09-02T10:22:29Z</time>
      </trkpt>
      <trkpt lat="49.6996" lon="-1.93897">
        <ele>89.699219</ele>
        <time>2019-09-02T10:22:32Z</time>
      </trkpt>
      <trkpt lat="49.69995" lon="-1.93918">
        <ele>86.699219</ele>
        <time>2019-09-02T10:22:39Z</time>
      </trkpt>
      <trkpt lat="49.70007" lon="-1.93929">
        <ele>85.699219</ele>
        <time>2019-09-02T10:22:41Z</time>
      </trkpt>
      <trkpt lat="49.70019" lon="-1.93942">
        <ele>84.199219</ele>
        <time>2019-09-02T10:22:43Z</time>
      </trkpt>
      <trkpt lat="49.70032" lon="-1.93955">
        <ele>82.898438</ele>
        <time>2019-09-02T10:22:45Z</time>
      </trkpt>
      <trkpt lat="49.70048" lon="-1.93963">
        <ele>82.199219</ele>
        <time>2019-09-02T10:22:47Z</time>
      </trkpt>
      <trkpt lat="49.7011" lon="-1.93992">
        <ele>82.597656</ele>
        <time>2019-09-02T10:22:55Z</time>
      </trkpt>
      <trkpt lat="49.70163" lon="-1.94008">
        <ele>84</ele>
        <time>2019-09-02T10:23:05Z</time>
      </trkpt>
      <trkpt lat="49.70176" lon="-1.94003">
        <ele>83.597656</ele>
        <time>2019-09-02T10:23:08Z</time>
      </trkpt>
      <trkpt lat="49.70184" lon="-1.93996">
        <ele>82.796875</ele>
        <time>2019-09-02T10:23:10Z</time>
      </trkpt>
      <trkpt lat="49.70194" lon="-1.93993">
        <ele>82</ele>
        <time>2019-09-02T10:23:12Z</time>
      </trkpt>
      <trkpt lat="49.70205" lon="-1.93996">
        <ele>81.296875</ele>
        <time>2019-09-02T10:23:14Z</time>
      </trkpt>
      <trkpt lat="49.70218" lon="-1.94001">
        <ele>80.597656</ele>
        <time>2019-09-02T10:23:16Z</time>
      </trkpt>
      <trkpt lat="49.70278" lon="-1.94031">
        <ele>79.296875</ele>
        <time>2019-09-02T10:23:26Z</time>
      </trkpt>
      <trkpt lat="49.70318" lon="-1.94054">
        <ele>78.097656</ele>
        <time>2019-09-02T10:23:34Z</time>
      </trkpt>
      <trkpt lat="49.70328" lon="-1.94057">
        <ele>77.898438</ele>
        <time>2019-09-02T10:23:36Z</time>
      </trkpt>
      <trkpt lat="49.7035" lon="-1.94061">
        <ele>77.699219</ele>
        <time>2019-09-02T10:23:40Z</time>
      </trkpt>
      <trkpt lat="49.70372" lon="-1.94063">
        <ele>77.296875</ele>
        <time>2019-09-02T10:23:44Z</time>
      </trkpt>
      <trkpt lat="49.70384" lon="-1.94061">
        <ele>77</ele>
        <time>2019-09-02T10:23:46Z</time>
      </trkpt>
      <trkpt lat="49.70397" lon="-1.94055">
        <ele>76.699219</ele>
        <time>2019-09-02T10:23:48Z</time>
      </trkpt>
      <trkpt lat="49.7049" lon="-1.94005">
        <ele>73.398438</ele>
        <time>2019-09-02T10:24:04Z</time>
      </trkpt>
      <trkpt lat="49.70511" lon="-1.93991">
        <ele>72.398438</ele>
        <time>2019-09-02T10:24:08Z</time>
      </trkpt>
      <trkpt lat="49.70522" lon="-1.93988">
        <ele>72.097656</ele>
        <time>2019-09-02T10:24:10Z</time>
      </trkpt>
      <trkpt lat="49.70533" lon="-1.93987">
        <ele>71.597656</ele>
        <time>2019-09-02T10:24:12Z</time>
      </trkpt>
      <trkpt lat="49.70544" lon="-1.93987">
        <ele>71</ele>
        <time>2019-09-02T10:24:14Z</time>
      </trkpt>
      <trkpt lat="49.70554" lon="-1.93988">
        <ele>70.296875</ele>
        <time>2019-09-02T10:24:16Z</time>
      </trkpt>
      <trkpt lat="49.70564" lon="-1.93991">
        <ele>69.5</ele>
        <time>2019-09-02T10:24:18Z</time>
      </trkpt>
      <trkpt lat="49.70574" lon="-1.93995">
        <ele>69</ele>
        <time>2019-09-02T10:24:20Z</time>
      </trkpt>
      <trkpt lat="49.70584" lon="-1.93995">
        <ele>68.5</ele>
        <time>2019-09-02T10:24:22Z</time>
      </trkpt>
      <trkpt lat="49.7059" lon="-1.93985">
        <ele>67.597656</ele>
        <time>2019-09-02T10:24:25Z</time>
      </trkpt>
      <trkpt lat="49.70594" lon="-1.9397">
        <ele>66.296875</ele>
        <time>2019-09-02T10:24:28Z</time>
      </trkpt>
      <trkpt lat="49.70598" lon="-1.93956">
        <ele>64.5</ele>
        <time>2019-09-02T10:24:30Z</time>
      </trkpt>
      <trkpt lat="49.70604" lon="-1.93942">
        <ele>62.199219</ele>
        <time>2019-09-02T10:24:32Z</time>
      </trkpt>
      <trkpt lat="49.70614" lon="-1.9393">
        <ele>60.097656</ele>
        <time>2019-09-02T10:24:34Z</time>
      </trkpt>
      <trkpt lat="49.70625" lon="-1.93922">
        <ele>58.097656</ele>
        <time>2019-09-02T10:24:36Z</time>
      </trkpt>
      <trkpt lat="49.70636" lon="-1.93916">
        <ele>56.597656</ele>
        <time>2019-09-02T10:24:38Z</time>
      </trkpt>
      <trkpt lat="49.70644" lon="-1.9391">
        <ele>54.296875</ele>
        <time>2019-09-02T10:24:40Z</time>
      </trkpt>
      <trkpt lat="49.70655" lon="-1.9391">
        <ele>53.296875</ele>
        <time>2019-09-02T10:24:44Z</time>
      </trkpt>
      <trkpt lat="49.7066" lon="-1.93923">
        <ele>51.898438</ele>
        <time>2019-09-02T10:24:46Z</time>
      </trkpt>
      <trkpt lat="49.70667" lon="-1.93938">
        <ele>50.5</ele>
        <time>2019-09-02T10:24:48Z</time>
      </trkpt>
      <trkpt lat="49.70678" lon="-1.93952">
        <ele>48.898438</ele>
        <time>2019-09-02T10:24:50Z</time>
      </trkpt>
      <trkpt lat="49.70689" lon="-1.93969">
        <ele>47.199219</ele>
        <time>2019-09-02T10:24:52Z</time>
      </trkpt>
      <trkpt lat="49.707" lon="-1.93989">
        <ele>45.796875</ele>
        <time>2019-09-02T10:24:54Z</time>
      </trkpt>
      <trkpt lat="49.70709" lon="-1.94013">
        <ele>44.796875</ele>
        <time>2019-09-02T10:24:56Z</time>
      </trkpt>
      <trkpt lat="49.70713" lon="-1.94039">
        <ele>43.898438</ele>
        <time>2019-09-02T10:24:58Z</time>
      </trkpt>
      <trkpt lat="49.70711" lon="-1.94067">
        <ele>42.796875</ele>
        <time>2019-09-02T10:25:00Z</time>
      </trkpt>
      <trkpt lat="49.70705" lon="-1.94122">
        <ele>40.796875</ele>
        <time>2019-09-02T10:25:04Z</time>
      </trkpt>
      <trkpt lat="49.70706" lon="-1.94136">
        <ele>40.199219</ele>
        <time>2019-09-02T10:25:05Z</time>
      </trkpt>
      <trkpt lat="49.70713" lon="-1.94159">
        <ele>40</ele>
        <time>2019-09-02T10:25:07Z</time>
      </trkpt>
      <trkpt lat="49.70725" lon="-1.94172">
        <ele>39.898438</ele>
        <time>2019-09-02T10:25:09Z</time>
      </trkpt>
      <trkpt lat="49.70756" lon="-1.94203">
        <ele>38.5</ele>
        <time>2019-09-02T10:25:15Z</time>
      </trkpt>
      <trkpt lat="49.70765" lon="-1.94215">
        <ele>37.398438</ele>
        <time>2019-09-02T10:25:17Z</time>
      </trkpt>
      <trkpt lat="49.70775" lon="-1.94231">
        <ele>36.296875</ele>
        <time>2019-09-02T10:25:19Z</time>
      </trkpt>
      <trkpt lat="49.70817" lon="-1.94295">
        <ele>31.296875</ele>
        <time>2019-09-02T10:25:27Z</time>
      </trkpt>
      <trkpt lat="49.70826" lon="-1.94315">
        <ele>29.699219</ele>
        <time>2019-09-02T10:25:29Z</time>
      </trkpt>
      <trkpt lat="49.70835" lon="-1.94337">
        <ele>28.097656</ele>
        <time>2019-09-02T10:25:31Z</time>
      </trkpt>
      <trkpt lat="49.70845" lon="-1.94357">
        <ele>27</ele>
        <time>2019-09-02T10:25:33Z</time>
      </trkpt>
      <trkpt lat="49.70857" lon="-1.94373">
        <ele>26.097656</ele>
        <time>2019-09-02T10:25:35Z</time>
      </trkpt>
      <trkpt lat="49.70869" lon="-1.94386">
        <ele>26</ele>
        <time>2019-09-02T10:25:37Z</time>
      </trkpt>
      <trkpt lat="49.70886" lon="-1.94402">
        <ele>26.199219</ele>
        <time>2019-09-02T10:25:41Z</time>
      </trkpt>
      <trkpt lat="49.70898" lon="-1.94406">
        <ele>26.097656</ele>
        <time>2019-09-02T10:25:44Z</time>
      </trkpt>
      <trkpt lat="49.70908" lon="-1.94407">
        <ele>25.796875</ele>
        <time>2019-09-02T10:25:47Z</time>
      </trkpt>
      <trkpt lat="49.70918" lon="-1.94399">
        <ele>25.699219</ele>
        <time>2019-09-02T10:25:51Z</time>
      </trkpt>
      <trkpt lat="49.70926" lon="-1.94391">
        <ele>25.5</ele>
        <time>2019-09-02T10:25:55Z</time>
      </trkpt>
      <trkpt lat="49.70926" lon="-1.94375">
        <ele>25</ele>
        <time>2019-09-02T10:26:00Z</time>
      </trkpt>
      <trkpt lat="49.70922" lon="-1.94362">
        <ele>25.597656</ele>
        <time>2019-09-02T10:26:04Z</time>
      </trkpt>
      <trkpt lat="49.70916" lon="-1.94348">
        <ele>26.199219</ele>
        <time>2019-09-02T10:26:08Z</time>
      </trkpt>
      <trkpt lat="49.70913" lon="-1.94333">
        <ele>25.5</ele>
        <time>2019-09-02T10:26:12Z</time>
      </trkpt>
      <trkpt lat="49.70917" lon="-1.94319">
        <ele>25.398438</ele>
        <time>2019-09-02T10:26:16Z</time>
      </trkpt>
      <trkpt lat="49.70926" lon="-1.94309">
        <ele>25.097656</ele>
        <time>2019-09-02T10:26:19Z</time>
      </trkpt>
      <trkpt lat="49.70937" lon="-1.94297">
        <ele>25.097656</ele>
        <time>2019-09-02T10:26:22Z</time>
      </trkpt>
      <trkpt lat="49.71002" lon="-1.94224">
        <ele>24.199219</ele>
        <time>2019-09-02T10:26:38Z</time>
      </trkpt>
      <trkpt lat="49.71009" lon="-1.94211">
        <ele>24.5</ele>
        <time>2019-09-02T10:26:41Z</time>
      </trkpt>
      <trkpt lat="49.71013" lon="-1.94194">
        <ele>25</ele>
        <time>2019-09-02T10:26:44Z</time>
      </trkpt>
      <trkpt lat="49.71018" lon="-1.94179">
        <ele>25.597656</ele>
        <time>2019-09-02T10:26:47Z</time>
      </trkpt>
      <trkpt lat="49.71025" lon="-1.94165">
        <ele>26.097656</ele>
        <time>2019-09-02T10:26:50Z</time>
      </trkpt>
      <trkpt lat="49.71033" lon="-1.94153">
        <ele>26.699219</ele>
        <time>2019-09-02T10:26:53Z</time>
      </trkpt>
      <trkpt lat="49.71041" lon="-1.94141">
        <ele>27.296875</ele>
        <time>2019-09-02T10:26:56Z</time>
      </trkpt>
      <trkpt lat="49.71064" lon="-1.94111">
        <ele>28.898438</ele>
        <time>2019-09-02T10:27:05Z</time>
      </trkpt>
      <trkpt lat="49.71079" lon="-1.94093">
        <ele>32.398438</ele>
        <time>2019-09-02T10:27:35Z</time>
      </trkpt>
      <trkpt lat="49.71086" lon="-1.94082">
        <ele>33.097656</ele>
        <time>2019-09-02T10:28:54Z</time>
      </trkpt>
      <trkpt lat="49.71093" lon="-1.94069">
        <ele>33.597656</ele>
        <time>2019-09-02T10:28:58Z</time>
      </trkpt>
      <trkpt lat="49.71106" lon="-1.94047">
        <ele>35.097656</ele>
        <time>2019-09-02T10:29:04Z</time>
      </trkpt>
      <trkpt lat="49.7112" lon="-1.94026">
        <ele>36.398438</ele>
        <time>2019-09-02T10:29:10Z</time>
      </trkpt>
      <trkpt lat="49.71128" lon="-1.94016">
        <ele>37.199219</ele>
        <time>2019-09-02T10:29:13Z</time>
      </trkpt>
      <trkpt lat="49.71137" lon="-1.94006">
        <ele>37.898438</ele>
        <time>2019-09-02T10:29:16Z</time>
      </trkpt>
      <trkpt lat="49.71176" lon="-1.93961">
        <ele>41.597656</ele>
        <time>2019-09-02T10:29:31Z</time>
      </trkpt>
      <trkpt lat="49.71183" lon="-1.9395">
        <ele>42.398438</ele>
        <time>2019-09-02T10:29:34Z</time>
      </trkpt>
      <trkpt lat="49.71187" lon="-1.93936">
        <ele>43.296875</ele>
        <time>2019-09-02T10:29:37Z</time>
      </trkpt>
      <trkpt lat="49.71187" lon="-1.93921">
        <ele>44.296875</ele>
        <time>2019-09-02T10:29:40Z</time>
      </trkpt>
      <trkpt lat="49.71185" lon="-1.93907">
        <ele>45.398438</ele>
        <time>2019-09-02T10:29:43Z</time>
      </trkpt>
      <trkpt lat="49.71182" lon="-1.93894">
        <ele>46.796875</ele>
        <time>2019-09-02T10:29:46Z</time>
      </trkpt>
      <trkpt lat="49.71172" lon="-1.93863">
        <ele>49.398438</ele>
        <time>2019-09-02T10:29:54Z</time>
      </trkpt>
      <trkpt lat="49.71169" lon="-1.93847">
        <ele>50.5</ele>
        <time>2019-09-02T10:29:58Z</time>
      </trkpt>
      <trkpt lat="49.71169" lon="-1.93831">
        <ele>51.398438</ele>
        <time>2019-09-02T10:30:02Z</time>
      </trkpt>
      <trkpt lat="49.71172" lon="-1.93815">
        <ele>52.199219</ele>
        <time>2019-09-02T10:30:06Z</time>
      </trkpt>
      <trkpt lat="49.71177" lon="-1.93782">
        <ele>54.097656</ele>
        <time>2019-09-02T10:30:14Z</time>
      </trkpt>
      <trkpt lat="49.71178" lon="-1.93766">
        <ele>55.097656</ele>
        <time>2019-09-02T10:30:18Z</time>
      </trkpt>
      <trkpt lat="49.71177" lon="-1.93749">
        <ele>55.898438</ele>
        <time>2019-09-02T10:30:22Z</time>
      </trkpt>
      <trkpt lat="49.71176" lon="-1.93714">
        <ele>57.296875</ele>
        <time>2019-09-02T10:30:30Z</time>
      </trkpt>
      <trkpt lat="49.71173" lon="-1.93615">
        <ele>61</ele>
        <time>2019-09-02T10:30:51Z</time>
      </trkpt>
      <trkpt lat="49.71167" lon="-1.93439">
        <ele>63.199219</ele>
        <time>2019-09-02T10:31:18Z</time>
      </trkpt>
      <trkpt lat="49.71161" lon="-1.93354">
        <ele>62.796875</ele>
        <time>2019-09-02T10:31:28Z</time>
      </trkpt>
      <trkpt lat="49.71161" lon="-1.93294">
        <ele>62.398438</ele>
        <time>2019-09-02T10:31:36Z</time>
      </trkpt>
      <trkpt lat="49.71163" lon="-1.93279">
        <ele>62.699219</ele>
        <time>2019-09-02T10:31:38Z</time>
      </trkpt>
      <trkpt lat="49.71167" lon="-1.93243">
        <ele>63.199219</ele>
        <time>2019-09-02T10:31:44Z</time>
      </trkpt>
      <trkpt lat="49.7117" lon="-1.93228">
        <ele>62.296875</ele>
        <time>2019-09-02T10:31:47Z</time>
      </trkpt>
      <trkpt lat="49.71178" lon="-1.93196">
        <ele>61.597656</ele>
        <time>2019-09-02T10:31:53Z</time>
      </trkpt>
      <trkpt lat="49.71179" lon="-1.9318">
        <ele>63.296875</ele>
        <time>2019-09-02T10:31:57Z</time>
      </trkpt>
      <trkpt lat="49.71185" lon="-1.93166">
        <ele>62.898438</ele>
        <time>2019-09-02T10:32:10Z</time>
      </trkpt>
      <trkpt lat="49.71193" lon="-1.93155">
        <ele>62.5</ele>
        <time>2019-09-02T10:32:13Z</time>
      </trkpt>
      <trkpt lat="49.71202" lon="-1.93146">
        <ele>61.597656</ele>
        <time>2019-09-02T10:32:16Z</time>
      </trkpt>
      <trkpt lat="49.71208" lon="-1.93132">
        <ele>60.597656</ele>
        <time>2019-09-02T10:32:20Z</time>
      </trkpt>
      <trkpt lat="49.71204" lon="-1.93113">
        <ele>60</ele>
        <time>2019-09-02T10:32:23Z</time>
      </trkpt>
      <trkpt lat="49.71196" lon="-1.93064">
        <ele>58.5</ele>
        <time>2019-09-02T10:32:29Z</time>
      </trkpt>
      <trkpt lat="49.71196" lon="-1.93048">
        <ele>57.597656</ele>
        <time>2019-09-02T10:32:31Z</time>
      </trkpt>
      <trkpt lat="49.71198" lon="-1.9303">
        <ele>56.5</ele>
        <time>2019-09-02T10:32:33Z</time>
      </trkpt>
      <trkpt lat="49.71201" lon="-1.93013">
        <ele>55.699219</ele>
        <time>2019-09-02T10:32:35Z</time>
      </trkpt>
      <trkpt lat="49.71219" lon="-1.92943">
        <ele>55.296875</ele>
        <time>2019-09-02T10:32:43Z</time>
      </trkpt>
      <trkpt lat="49.71221" lon="-1.92929">
        <ele>56.5</ele>
        <time>2019-09-02T10:32:45Z</time>
      </trkpt>
      <trkpt lat="49.71217" lon="-1.92914">
        <ele>58</ele>
        <time>2019-09-02T10:32:48Z</time>
      </trkpt>
      <trkpt lat="49.7121" lon="-1.929">
        <ele>59.398438</ele>
        <time>2019-09-02T10:32:52Z</time>
      </trkpt>
      <trkpt lat="49.71199" lon="-1.92897">
        <ele>59.796875</ele>
        <time>2019-09-02T10:32:56Z</time>
      </trkpt>
      <trkpt lat="49.71177" lon="-1.92892">
        <ele>59.699219</ele>
        <time>2019-09-02T10:33:04Z</time>
      </trkpt>
      <trkpt lat="49.71167" lon="-1.92891">
        <ele>59.796875</ele>
        <time>2019-09-02T10:33:07Z</time>
      </trkpt>
      <trkpt lat="49.71157" lon="-1.92889">
        <ele>60.296875</ele>
        <time>2019-09-02T10:33:10Z</time>
      </trkpt>
      <trkpt lat="49.71148" lon="-1.9289">
        <ele>60.796875</ele>
        <time>2019-09-02T10:33:13Z</time>
      </trkpt>
      <trkpt lat="49.7114" lon="-1.92896">
        <ele>61.398438</ele>
        <time>2019-09-02T10:33:16Z</time>
      </trkpt>
      <trkpt lat="49.7113" lon="-1.929">
        <ele>61.597656</ele>
        <time>2019-09-02T10:33:19Z</time>
      </trkpt>
      <trkpt lat="49.7112" lon="-1.92902">
        <ele>61.699219</ele>
        <time>2019-09-02T10:33:22Z</time>
      </trkpt>
      <trkpt lat="49.7111" lon="-1.929">
        <ele>61.699219</ele>
        <time>2019-09-02T10:33:25Z</time>
      </trkpt>
      <trkpt lat="49.71099" lon="-1.92897">
        <ele>61.199219</ele>
        <time>2019-09-02T10:33:29Z</time>
      </trkpt>
      <trkpt lat="49.71088" lon="-1.92891">
        <ele>62.199219</ele>
        <time>2019-09-02T10:33:33Z</time>
      </trkpt>
      <trkpt lat="49.7106" lon="-1.92869">
        <ele>64.796875</ele>
        <time>2019-09-02T10:33:45Z</time>
      </trkpt>
      <trkpt lat="49.71033" lon="-1.92844">
        <ele>67.699219</ele>
        <time>2019-09-02T10:33:57Z</time>
      </trkpt>
      <trkpt lat="49.71022" lon="-1.92837">
        <ele>68.5</ele>
        <time>2019-09-02T10:34:01Z</time>
      </trkpt>
      <trkpt lat="49.71001" lon="-1.92825">
        <ele>69.5</ele>
        <time>2019-09-02T10:34:09Z</time>
      </trkpt>
      <trkpt lat="49.7098" lon="-1.92818">
        <ele>70.5</ele>
        <time>2019-09-02T10:34:17Z</time>
      </trkpt>
      <trkpt lat="49.7097" lon="-1.92816">
        <ele>70.898438</ele>
        <time>2019-09-02T10:34:21Z</time>
      </trkpt>
      <trkpt lat="49.7096" lon="-1.92811">
        <ele>71.796875</ele>
        <time>2019-09-02T10:34:25Z</time>
      </trkpt>
      <trkpt lat="49.70959" lon="-1.92796">
        <ele>72.199219</ele>
        <time>2019-09-02T10:34:29Z</time>
      </trkpt>
      <trkpt lat="49.70966" lon="-1.92781">
        <ele>72.398438</ele>
        <time>2019-09-02T10:34:33Z</time>
      </trkpt>
      <trkpt lat="49.7097" lon="-1.92769">
        <ele>72.699219</ele>
        <time>2019-09-02T10:34:36Z</time>
      </trkpt>
      <trkpt lat="49.7101" lon="-1.92661">
        <ele>72.097656</ele>
        <time>2019-09-02T10:34:53Z</time>
      </trkpt>
      <trkpt lat="49.71017" lon="-1.92646">
        <ele>71.699219</ele>
        <time>2019-09-02T10:34:55Z</time>
      </trkpt>
      <trkpt lat="49.71064" lon="-1.92558">
        <ele>68.898438</ele>
        <time>2019-09-02T10:35:05Z</time>
      </trkpt>
      <trkpt lat="49.71072" lon="-1.92537">
        <ele>68.5</ele>
        <time>2019-09-02T10:35:07Z</time>
      </trkpt>
      <trkpt lat="49.7108" lon="-1.92516">
        <ele>68.097656</ele>
        <time>2019-09-02T10:35:09Z</time>
      </trkpt>
      <trkpt lat="49.71087" lon="-1.92495">
        <ele>67.796875</ele>
        <time>2019-09-02T10:35:11Z</time>
      </trkpt>
      <trkpt lat="49.71093" lon="-1.92473">
        <ele>67.398438</ele>
        <time>2019-09-02T10:35:13Z</time>
      </trkpt>
      <trkpt lat="49.71108" lon="-1.92415">
        <ele>65.898438</ele>
        <time>2019-09-02T10:35:19Z</time>
      </trkpt>
      <trkpt lat="49.71114" lon="-1.924">
        <ele>65.199219</ele>
        <time>2019-09-02T10:35:22Z</time>
      </trkpt>
      <trkpt lat="49.7112" lon="-1.92391">
        <ele>64.398438</ele>
        <time>2019-09-02T10:35:25Z</time>
      </trkpt>
      <trkpt lat="49.71125" lon="-1.92376">
        <ele>63.699219</ele>
        <time>2019-09-02T10:35:29Z</time>
      </trkpt>
      <trkpt lat="49.71126" lon="-1.92362">
        <ele>62.398438</ele>
        <time>2019-09-02T10:35:31Z</time>
      </trkpt>
      <trkpt lat="49.71125" lon="-1.92344">
        <ele>60.597656</ele>
        <time>2019-09-02T10:35:33Z</time>
      </trkpt>
      <trkpt lat="49.71119" lon="-1.92324">
        <ele>59.898438</ele>
        <time>2019-09-02T10:35:35Z</time>
      </trkpt>
      <trkpt lat="49.7111" lon="-1.92302">
        <ele>59.699219</ele>
        <time>2019-09-02T10:35:37Z</time>
      </trkpt>
      <trkpt lat="49.71105" lon="-1.92279">
        <ele>59.898438</ele>
        <time>2019-09-02T10:35:39Z</time>
      </trkpt>
      <trkpt lat="49.71106" lon="-1.92257">
        <ele>60.5</ele>
        <time>2019-09-02T10:35:41Z</time>
      </trkpt>
      <trkpt lat="49.71112" lon="-1.92239">
        <ele>61.097656</ele>
        <time>2019-09-02T10:35:43Z</time>
      </trkpt>
      <trkpt lat="49.71123" lon="-1.92213">
        <ele>61.597656</ele>
        <time>2019-09-02T10:35:47Z</time>
      </trkpt>
      <trkpt lat="49.71124" lon="-1.92199">
        <ele>62</ele>
        <time>2019-09-02T10:35:49Z</time>
      </trkpt>
      <trkpt lat="49.71117" lon="-1.92182">
        <ele>62.597656</ele>
        <time>2019-09-02T10:35:52Z</time>
      </trkpt>
      <trkpt lat="49.71108" lon="-1.92169">
        <ele>62.898438</ele>
        <time>2019-09-02T10:35:55Z</time>
      </trkpt>
      <trkpt lat="49.71101" lon="-1.92154">
        <ele>62.796875</ele>
        <time>2019-09-02T10:35:58Z</time>
      </trkpt>
      <trkpt lat="49.71095" lon="-1.92137">
        <ele>62.398438</ele>
        <time>2019-09-02T10:36:01Z</time>
      </trkpt>
      <trkpt lat="49.71093" lon="-1.92122">
        <ele>62</ele>
        <time>2019-09-02T10:36:03Z</time>
      </trkpt>
      <trkpt lat="49.71092" lon="-1.92105">
        <ele>61.398438</ele>
        <time>2019-09-02T10:36:05Z</time>
      </trkpt>
      <trkpt lat="49.71093" lon="-1.92087">
        <ele>60.5</ele>
        <time>2019-09-02T10:36:07Z</time>
      </trkpt>
      <trkpt lat="49.71097" lon="-1.92069">
        <ele>59.398438</ele>
        <time>2019-09-02T10:36:09Z</time>
      </trkpt>
      <trkpt lat="49.71102" lon="-1.92049">
        <ele>58.898438</ele>
        <time>2019-09-02T10:36:11Z</time>
      </trkpt>
      <trkpt lat="49.71104" lon="-1.92026">
        <ele>59.199219</ele>
        <time>2019-09-02T10:36:13Z</time>
      </trkpt>
      <trkpt lat="49.71103" lon="-1.92004">
        <ele>59.597656</ele>
        <time>2019-09-02T10:36:15Z</time>
      </trkpt>
      <trkpt lat="49.71099" lon="-1.91985">
        <ele>60.199219</ele>
        <time>2019-09-02T10:36:17Z</time>
      </trkpt>
      <trkpt lat="49.71087" lon="-1.91938">
        <ele>62.199219</ele>
        <time>2019-09-02T10:36:23Z</time>
      </trkpt>
      <trkpt lat="49.71082" lon="-1.9192">
        <ele>62.898438</ele>
        <time>2019-09-02T10:36:26Z</time>
      </trkpt>
      <trkpt lat="49.71079" lon="-1.91904">
        <ele>63.597656</ele>
        <time>2019-09-02T10:36:29Z</time>
      </trkpt>
      <trkpt lat="49.7108" lon="-1.91889">
        <ele>64.398438</ele>
        <time>2019-09-02T10:36:32Z</time>
      </trkpt>
      <trkpt lat="49.71083" lon="-1.91838">
        <ele>67.199219</ele>
        <time>2019-09-02T10:36:43Z</time>
      </trkpt>
      <trkpt lat="49.71086" lon="-1.91749">
        <ele>70.699219</ele>
        <time>2019-09-02T10:37:03Z</time>
      </trkpt>
      <trkpt lat="49.71088" lon="-1.91735">
        <ele>70.898438</ele>
        <time>2019-09-02T10:37:06Z</time>
      </trkpt>
      <trkpt lat="49.71095" lon="-1.91707">
        <ele>70.898438</ele>
        <time>2019-09-02T10:37:12Z</time>
      </trkpt>
      <trkpt lat="49.71108" lon="-1.91661">
        <ele>72</ele>
        <time>2019-09-02T10:37:21Z</time>
      </trkpt>
      <trkpt lat="49.71123" lon="-1.91613">
        <ele>72.398438</ele>
        <time>2019-09-02T10:37:30Z</time>
      </trkpt>
      <trkpt lat="49.71133" lon="-1.91585">
        <ele>72.597656</ele>
        <time>2019-09-02T10:37:36Z</time>
      </trkpt>
      <trkpt lat="49.71127" lon="-1.91574">
        <ele>73.5</ele>
        <time>2019-09-02T10:37:40Z</time>
      </trkpt>
      <trkpt lat="49.71116" lon="-1.9157">
        <ele>74.398438</ele>
        <time>2019-09-02T10:37:44Z</time>
      </trkpt>
      <trkpt lat="49.71106" lon="-1.91565">
        <ele>75.5</ele>
        <time>2019-09-02T10:37:48Z</time>
      </trkpt>
      <trkpt lat="49.71097" lon="-1.91559">
        <ele>76.699219</ele>
        <time>2019-09-02T10:37:52Z</time>
      </trkpt>
      <trkpt lat="49.71088" lon="-1.91549">
        <ele>77.898438</ele>
        <time>2019-09-02T10:37:56Z</time>
      </trkpt>
      <trkpt lat="49.71081" lon="-1.91537">
        <ele>78.898438</ele>
        <time>2019-09-02T10:38:00Z</time>
      </trkpt>
      <trkpt lat="49.71075" lon="-1.91524">
        <ele>79.699219</ele>
        <time>2019-09-02T10:38:04Z</time>
      </trkpt>
      <trkpt lat="49.71069" lon="-1.91508">
        <ele>80.398438</ele>
        <time>2019-09-02T10:38:08Z</time>
      </trkpt>
      <trkpt lat="49.71064" lon="-1.91492">
        <ele>81.296875</ele>
        <time>2019-09-02T10:38:12Z</time>
      </trkpt>
      <trkpt lat="49.7106" lon="-1.91476">
        <ele>82.097656</ele>
        <time>2019-09-02T10:38:16Z</time>
      </trkpt>
      <trkpt lat="49.71057" lon="-1.91459">
        <ele>82.796875</ele>
        <time>2019-09-02T10:38:20Z</time>
      </trkpt>
      <trkpt lat="49.71055" lon="-1.91442">
        <ele>83.5</ele>
        <time>2019-09-02T10:38:24Z</time>
      </trkpt>
      <trkpt lat="49.71048" lon="-1.91391">
        <ele>83</ele>
        <time>2019-09-02T10:38:35Z</time>
      </trkpt>
      <trkpt lat="49.71043" lon="-1.91371">
        <ele>82.699219</ele>
        <time>2019-09-02T10:38:38Z</time>
      </trkpt>
      <trkpt lat="49.71039" lon="-1.91356">
        <ele>82.398438</ele>
        <time>2019-09-02T10:38:40Z</time>
      </trkpt>
      <trkpt lat="49.71034" lon="-1.91342">
        <ele>82.199219</ele>
        <time>2019-09-02T10:38:42Z</time>
      </trkpt>
      <trkpt lat="49.71027" lon="-1.91329">
        <ele>82.199219</ele>
        <time>2019-09-02T10:38:44Z</time>
      </trkpt>
      <trkpt lat="49.71011" lon="-1.91306">
        <ele>82.097656</ele>
        <time>2019-09-02T10:38:48Z</time>
      </trkpt>
      <trkpt lat="49.70959" lon="-1.91235">
        <ele>81.097656</ele>
        <time>2019-09-02T10:39:00Z</time>
      </trkpt>
      <trkpt lat="49.7095" lon="-1.91224">
        <ele>80.699219</ele>
        <time>2019-09-02T10:39:02Z</time>
      </trkpt>
      <trkpt lat="49.70939" lon="-1.91215">
        <ele>80.398438</ele>
        <time>2019-09-02T10:39:04Z</time>
      </trkpt>
      <trkpt lat="49.70927" lon="-1.91208">
        <ele>79.199219</ele>
        <time>2019-09-02T10:39:06Z</time>
      </trkpt>
      <trkpt lat="49.70915" lon="-1.912">
        <ele>79</ele>
        <time>2019-09-02T10:39:08Z</time>
      </trkpt>
      <trkpt lat="49.70903" lon="-1.91194">
        <ele>78.898438</ele>
        <time>2019-09-02T10:39:10Z</time>
      </trkpt>
      <trkpt lat="49.70879" lon="-1.91181">
        <ele>78.5</ele>
        <time>2019-09-02T10:39:14Z</time>
      </trkpt>
      <trkpt lat="49.70867" lon="-1.91172">
        <ele>78.296875</ele>
        <time>2019-09-02T10:39:16Z</time>
      </trkpt>
      <trkpt lat="49.70712" lon="-1.91041">
        <ele>74.699219</ele>
        <time>2019-09-02T10:39:42Z</time>
      </trkpt>
      <trkpt lat="49.70699" lon="-1.91034">
        <ele>74.097656</ele>
        <time>2019-09-02T10:39:44Z</time>
      </trkpt>
      <trkpt lat="49.70657" lon="-1.91019">
        <ele>71.597656</ele>
        <time>2019-09-02T10:39:50Z</time>
      </trkpt>
      <trkpt lat="49.70627" lon="-1.91009">
        <ele>70</ele>
        <time>2019-09-02T10:39:54Z</time>
      </trkpt>
      <trkpt lat="49.70616" lon="-1.90998">
        <ele>69.5</ele>
        <time>2019-09-02T10:39:56Z</time>
      </trkpt>
      <trkpt lat="49.70609" lon="-1.9098">
        <ele>68.796875</ele>
        <time>2019-09-02T10:39:58Z</time>
      </trkpt>
      <trkpt lat="49.70604" lon="-1.90959">
        <ele>68.097656</ele>
        <time>2019-09-02T10:40:00Z</time>
      </trkpt>
      <trkpt lat="49.706" lon="-1.90938">
        <ele>67.398438</ele>
        <time>2019-09-02T10:40:02Z</time>
      </trkpt>
      <trkpt lat="49.70598" lon="-1.90917">
        <ele>66.699219</ele>
        <time>2019-09-02T10:40:04Z</time>
      </trkpt>
      <trkpt lat="49.70596" lon="-1.90881">
        <ele>66</ele>
        <time>2019-09-02T10:40:08Z</time>
      </trkpt>
      <trkpt lat="49.7059" lon="-1.90866">
        <ele>65.097656</ele>
        <time>2019-09-02T10:40:11Z</time>
      </trkpt>
      <trkpt lat="49.70579" lon="-1.9086">
        <ele>64.898438</ele>
        <time>2019-09-02T10:40:14Z</time>
      </trkpt>
      <trkpt lat="49.7057" lon="-1.90856">
        <ele>64.796875</ele>
        <time>2019-09-02T10:40:16Z</time>
      </trkpt>
      <trkpt lat="49.7056" lon="-1.90849">
        <ele>64.796875</ele>
        <time>2019-09-02T10:40:18Z</time>
      </trkpt>
      <trkpt lat="49.7055" lon="-1.90842">
        <ele>64.898438</ele>
        <time>2019-09-02T10:40:20Z</time>
      </trkpt>
      <trkpt lat="49.70539" lon="-1.90838">
        <ele>65.097656</ele>
        <time>2019-09-02T10:40:22Z</time>
      </trkpt>
      <trkpt lat="49.70528" lon="-1.90842">
        <ele>65.097656</ele>
        <time>2019-09-02T10:40:24Z</time>
      </trkpt>
      <trkpt lat="49.70518" lon="-1.90847">
        <ele>65.5</ele>
        <time>2019-09-02T10:40:26Z</time>
      </trkpt>
      <trkpt lat="49.70499" lon="-1.90859">
        <ele>65.398438</ele>
        <time>2019-09-02T10:40:30Z</time>
      </trkpt>
      <trkpt lat="49.70459" lon="-1.90885">
        <ele>67.796875</ele>
        <time>2019-09-02T10:40:41Z</time>
      </trkpt>
      <trkpt lat="49.7045" lon="-1.90888">
        <ele>68.796875</ele>
        <time>2019-09-02T10:40:44Z</time>
      </trkpt>
      <trkpt lat="49.70439" lon="-1.9089">
        <ele>69.898438</ele>
        <time>2019-09-02T10:40:48Z</time>
      </trkpt>
      <trkpt lat="49.70429" lon="-1.90891">
        <ele>71.097656</ele>
        <time>2019-09-02T10:40:52Z</time>
      </trkpt>
      <trkpt lat="49.70419" lon="-1.9089">
        <ele>72.199219</ele>
        <time>2019-09-02T10:40:56Z</time>
      </trkpt>
      <trkpt lat="49.70409" lon="-1.90887">
        <ele>73.398438</ele>
        <time>2019-09-02T10:41:00Z</time>
      </trkpt>
      <trkpt lat="49.70371" lon="-1.9088">
        <ele>79</ele>
        <time>2019-09-02T10:41:17Z</time>
      </trkpt>
      <trkpt lat="49.7036" lon="-1.90876">
        <ele>80.398438</ele>
        <time>2019-09-02T10:41:22Z</time>
      </trkpt>
      <trkpt lat="49.7035" lon="-1.9087">
        <ele>81.699219</ele>
        <time>2019-09-02T10:41:27Z</time>
      </trkpt>
      <trkpt lat="49.70342" lon="-1.90864">
        <ele>83</ele>
        <time>2019-09-02T10:41:31Z</time>
      </trkpt>
      <trkpt lat="49.70333" lon="-1.90861">
        <ele>84.296875</ele>
        <time>2019-09-02T10:41:35Z</time>
      </trkpt>
      <trkpt lat="49.70323" lon="-1.90859">
        <ele>85.398438</ele>
        <time>2019-09-02T10:41:39Z</time>
      </trkpt>
      <trkpt lat="49.70304" lon="-1.90858">
        <ele>87.597656</ele>
        <time>2019-09-02T10:41:47Z</time>
      </trkpt>
      <trkpt lat="49.70237" lon="-1.90856">
        <ele>95.5</ele>
        <time>2019-09-02T10:42:15Z</time>
      </trkpt>
      <trkpt lat="49.70227" lon="-1.90853">
        <ele>97.199219</ele>
        <time>2019-09-02T10:42:19Z</time>
      </trkpt>
      <trkpt lat="49.70217" lon="-1.90846">
        <ele>98.5</ele>
        <time>2019-09-02T10:42:24Z</time>
      </trkpt>
      <trkpt lat="49.70209" lon="-1.90839">
        <ele>99.699219</ele>
        <time>2019-09-02T10:42:28Z</time>
      </trkpt>
      <trkpt lat="49.70184" lon="-1.90817">
        <ele>102.5</ele>
        <time>2019-09-02T10:42:40Z</time>
      </trkpt>
      <trkpt lat="49.70175" lon="-1.90813">
        <ele>103.097656</ele>
        <time>2019-09-02T10:42:44Z</time>
      </trkpt>
      <trkpt lat="49.70119" lon="-1.90786">
        <ele>107</ele>
        <time>2019-09-02T10:43:10Z</time>
      </trkpt>
      <trkpt lat="49.70111" lon="-1.90781">
        <ele>107.5</ele>
        <time>2019-09-02T10:43:14Z</time>
      </trkpt>
      <trkpt lat="49.70103" lon="-1.90773">
        <ele>107.898438</ele>
        <time>2019-09-02T10:43:18Z</time>
      </trkpt>
      <trkpt lat="49.70096" lon="-1.90763">
        <ele>108.097656</ele>
        <time>2019-09-02T10:43:22Z</time>
      </trkpt>
      <trkpt lat="49.7009" lon="-1.9075">
        <ele>108.398438</ele>
        <time>2019-09-02T10:43:26Z</time>
      </trkpt>
      <trkpt lat="49.70084" lon="-1.90736">
        <ele>108.796875</ele>
        <time>2019-09-02T10:43:30Z</time>
      </trkpt>
      <trkpt lat="49.70078" lon="-1.90724">
        <ele>109.296875</ele>
        <time>2019-09-02T10:43:34Z</time>
      </trkpt>
      <trkpt lat="49.7007" lon="-1.90713">
        <ele>110.097656</ele>
        <time>2019-09-02T10:43:38Z</time>
      </trkpt>
      <trkpt lat="49.70053" lon="-1.90693">
        <ele>111.796875</ele>
        <time>2019-09-02T10:43:46Z</time>
      </trkpt>
      <trkpt lat="49.70008" lon="-1.90647">
        <ele>113.796875</ele>
        <time>2019-09-02T10:44:06Z</time>
      </trkpt>
      <trkpt lat="49.69999" lon="-1.90639">
        <ele>113.898438</ele>
        <time>2019-09-02T10:44:10Z</time>
      </trkpt>
      <trkpt lat="49.69988" lon="-1.90636">
        <ele>114.097656</ele>
        <time>2019-09-02T10:44:14Z</time>
      </trkpt>
      <trkpt lat="49.69977" lon="-1.90637">
        <ele>114.296875</ele>
        <time>2019-09-02T10:44:18Z</time>
      </trkpt>
      <trkpt lat="49.69967" lon="-1.9064">
        <ele>114.5</ele>
        <time>2019-09-02T10:44:22Z</time>
      </trkpt>
      <trkpt lat="49.69936" lon="-1.90647">
        <ele>118.296875</ele>
        <time>2019-09-02T10:44:33Z</time>
      </trkpt>
      <trkpt lat="49.69926" lon="-1.90645">
        <ele>118.296875</ele>
        <time>2019-09-02T10:48:48Z</time>
      </trkpt>
      <trkpt lat="49.69916" lon="-1.90643">
        <ele>118.097656</ele>
        <time>2019-09-02T10:48:54Z</time>
      </trkpt>
      <trkpt lat="49.69897" lon="-1.90644">
        <ele>117.699219</ele>
        <time>2019-09-02T10:49:02Z</time>
      </trkpt>
      <trkpt lat="49.69886" lon="-1.90645">
        <ele>117.597656</ele>
        <time>2019-09-02T10:49:06Z</time>
      </trkpt>
      <trkpt lat="49.69866" lon="-1.90645">
        <ele>117.5</ele>
        <time>2019-09-02T10:49:13Z</time>
      </trkpt>
      <trkpt lat="49.69832" lon="-1.90643">
        <ele>117.5</ele>
        <time>2019-09-02T10:49:22Z</time>
      </trkpt>
      <trkpt lat="49.69796" lon="-1.90636">
        <ele>117</ele>
        <time>2019-09-02T10:49:31Z</time>
      </trkpt>
      <trkpt lat="49.69754" lon="-1.90622">
        <ele>116.898438</ele>
        <time>2019-09-02T10:49:41Z</time>
      </trkpt>
      <trkpt lat="49.69744" lon="-1.90618">
        <ele>117</ele>
        <time>2019-09-02T10:49:43Z</time>
      </trkpt>
      <trkpt lat="49.69735" lon="-1.90613">
        <ele>117</ele>
        <time>2019-09-02T10:49:45Z</time>
      </trkpt>
      <trkpt lat="49.69726" lon="-1.90606">
        <ele>116.898438</ele>
        <time>2019-09-02T10:49:47Z</time>
      </trkpt>
      <trkpt lat="49.69717" lon="-1.90599">
        <ele>116.796875</ele>
        <time>2019-09-02T10:49:49Z</time>
      </trkpt>
      <trkpt lat="49.69688" lon="-1.90576">
        <ele>116</ele>
        <time>2019-09-02T10:49:55Z</time>
      </trkpt>
      <trkpt lat="49.69677" lon="-1.90571">
        <ele>115.5</ele>
        <time>2019-09-02T10:49:57Z</time>
      </trkpt>
      <trkpt lat="49.69666" lon="-1.90567">
        <ele>115.097656</ele>
        <time>2019-09-02T10:49:59Z</time>
      </trkpt>
      <trkpt lat="49.69631" lon="-1.90555">
        <ele>114.5</ele>
        <time>2019-09-02T10:50:05Z</time>
      </trkpt>
      <trkpt lat="49.6962" lon="-1.90555">
        <ele>114.699219</ele>
        <time>2019-09-02T10:50:07Z</time>
      </trkpt>
      <trkpt lat="49.69611" lon="-1.90559">
        <ele>114.898438</ele>
        <time>2019-09-02T10:50:09Z</time>
      </trkpt>
      <trkpt lat="49.69499" lon="-1.90607">
        <ele>120.699219</ele>
        <time>2019-09-02T10:50:44Z</time>
      </trkpt>
      <trkpt lat="49.6946" lon="-1.90618">
        <ele>124.699219</ele>
        <time>2019-09-02T10:51:00Z</time>
      </trkpt>
      <trkpt lat="49.69451" lon="-1.90617">
        <ele>125.398438</ele>
        <time>2019-09-02T10:51:04Z</time>
      </trkpt>
      <trkpt lat="49.69445" lon="-1.90602">
        <ele>125.898438</ele>
        <time>2019-09-02T10:51:09Z</time>
      </trkpt>
      <trkpt lat="49.69443" lon="-1.90586">
        <ele>126.597656</ele>
        <time>2019-09-02T10:51:13Z</time>
      </trkpt>
      <trkpt lat="49.69432" lon="-1.90507">
        <ele>127.796875</ele>
        <time>2019-09-02T10:51:30Z</time>
      </trkpt>
      <trkpt lat="49.69419" lon="-1.90456">
        <ele>126.398438</ele>
        <time>2019-09-02T10:51:38Z</time>
      </trkpt>
      <trkpt lat="49.69402" lon="-1.90396">
        <ele>123.5</ele>
        <time>2019-09-02T10:51:46Z</time>
      </trkpt>
      <trkpt lat="49.69403" lon="-1.90379">
        <ele>122.597656</ele>
        <time>2019-09-02T10:51:49Z</time>
      </trkpt>
      <trkpt lat="49.69414" lon="-1.90371">
        <ele>122.296875</ele>
        <time>2019-09-02T10:51:52Z</time>
      </trkpt>
      <trkpt lat="49.69422" lon="-1.90367">
        <ele>122.097656</ele>
        <time>2019-09-02T10:51:54Z</time>
      </trkpt>
      <trkpt lat="49.69441" lon="-1.90362">
        <ele>121.796875</ele>
        <time>2019-09-02T10:51:58Z</time>
      </trkpt>
      <trkpt lat="49.69503" lon="-1.90347">
        <ele>120.597656</ele>
        <time>2019-09-02T10:52:10Z</time>
      </trkpt>
      <trkpt lat="49.69547" lon="-1.90344">
        <ele>119.898438</ele>
        <time>2019-09-02T10:52:18Z</time>
      </trkpt>
      <trkpt lat="49.69557" lon="-1.90341">
        <ele>118.898438</ele>
        <time>2019-09-02T10:52:20Z</time>
      </trkpt>
      <trkpt lat="49.69564" lon="-1.90327">
        <ele>117.898438</ele>
        <time>2019-09-02T10:52:23Z</time>
      </trkpt>
      <trkpt lat="49.69565" lon="-1.90312">
        <ele>116.296875</ele>
        <time>2019-09-02T10:52:25Z</time>
      </trkpt>
      <trkpt lat="49.69565" lon="-1.90229">
        <ele>109.898438</ele>
        <time>2019-09-02T10:52:32Z</time>
      </trkpt>
      <trkpt lat="49.69567" lon="-1.90214">
        <ele>109</ele>
        <time>2019-09-02T10:52:33Z</time>
      </trkpt>
      <trkpt lat="49.69574" lon="-1.90171">
        <ele>107.597656</ele>
        <time>2019-09-02T10:52:36Z</time>
      </trkpt>
      <trkpt lat="49.69591" lon="-1.90078">
        <ele>110.097656</ele>
        <time>2019-09-02T10:52:44Z</time>
      </trkpt>
      <trkpt lat="49.69594" lon="-1.90064">
        <ele>110.097656</ele>
        <time>2019-09-02T10:52:46Z</time>
      </trkpt>
      <trkpt lat="49.69601" lon="-1.90047">
        <ele>109.597656</ele>
        <time>2019-09-02T10:52:49Z</time>
      </trkpt>
      <trkpt lat="49.69632" lon="-1.89969">
        <ele>105.097656</ele>
        <time>2019-09-02T10:52:59Z</time>
      </trkpt>
      <trkpt lat="49.69638" lon="-1.89958">
        <ele>104.199219</ele>
        <time>2019-09-02T10:53:01Z</time>
      </trkpt>
      <trkpt lat="49.69648" lon="-1.89952">
        <ele>104</ele>
        <time>2019-09-02T10:53:03Z</time>
      </trkpt>
      <trkpt lat="49.69654" lon="-1.8994">
        <ele>104.199219</ele>
        <time>2019-09-02T10:53:05Z</time>
      </trkpt>
      <trkpt lat="49.69655" lon="-1.89925">
        <ele>104.296875</ele>
        <time>2019-09-02T10:53:07Z</time>
      </trkpt>
      <trkpt lat="49.69656" lon="-1.89911">
        <ele>105.097656</ele>
        <time>2019-09-02T10:53:09Z</time>
      </trkpt>
      <trkpt lat="49.69655" lon="-1.89893">
        <ele>106.296875</ele>
        <time>2019-09-02T10:53:12Z</time>
      </trkpt>
      <trkpt lat="49.69654" lon="-1.89877">
        <ele>108</ele>
        <time>2019-09-02T10:53:15Z</time>
      </trkpt>
      <trkpt lat="49.69655" lon="-1.89861">
        <ele>109.199219</ele>
        <time>2019-09-02T10:53:18Z</time>
      </trkpt>
      <trkpt lat="49.69659" lon="-1.89843">
        <ele>109.5</ele>
        <time>2019-09-02T10:53:22Z</time>
      </trkpt>
      <trkpt lat="49.69667" lon="-1.89811">
        <ele>109.699219</ele>
        <time>2019-09-02T10:53:28Z</time>
      </trkpt>
      <trkpt lat="49.69673" lon="-1.89795">
        <ele>109.5</ele>
        <time>2019-09-02T10:53:31Z</time>
      </trkpt>
      <trkpt lat="49.69719" lon="-1.89686">
        <ele>105.5</ele>
        <time>2019-09-02T10:53:46Z</time>
      </trkpt>
      <trkpt lat="49.69725" lon="-1.89668">
        <ele>105.199219</ele>
        <time>2019-09-02T10:53:48Z</time>
      </trkpt>
      <trkpt lat="49.69728" lon="-1.89649">
        <ele>104.398438</ele>
        <time>2019-09-02T10:53:50Z</time>
      </trkpt>
      <trkpt lat="49.69729" lon="-1.89628">
        <ele>102.796875</ele>
        <time>2019-09-02T10:53:52Z</time>
      </trkpt>
      <trkpt lat="49.69733" lon="-1.89605">
        <ele>100.398438</ele>
        <time>2019-09-02T10:53:54Z</time>
      </trkpt>
      <trkpt lat="49.69742" lon="-1.89583">
        <ele>97.898438</ele>
        <time>2019-09-02T10:53:56Z</time>
      </trkpt>
      <trkpt lat="49.69751" lon="-1.89561">
        <ele>96.699219</ele>
        <time>2019-09-02T10:53:58Z</time>
      </trkpt>
      <trkpt lat="49.69754" lon="-1.89547">
        <ele>95.097656</ele>
        <time>2019-09-02T10:53:59Z</time>
      </trkpt>
      <trkpt lat="49.69757" lon="-1.89533">
        <ele>93.398438</ele>
        <time>2019-09-02T10:54:00Z</time>
      </trkpt>
      <trkpt lat="49.69758" lon="-1.89518">
        <ele>92</ele>
        <time>2019-09-02T10:54:01Z</time>
      </trkpt>
      <trkpt lat="49.69759" lon="-1.89504">
        <ele>90.898438</ele>
        <time>2019-09-02T10:54:02Z</time>
      </trkpt>
      <trkpt lat="49.6976" lon="-1.89489">
        <ele>89.597656</ele>
        <time>2019-09-02T10:54:03Z</time>
      </trkpt>
      <trkpt lat="49.69759" lon="-1.89394">
        <ele>76.699219</ele>
        <time>2019-09-02T10:54:10Z</time>
      </trkpt>
      <trkpt lat="49.69756" lon="-1.8937">
        <ele>75.097656</ele>
        <time>2019-09-02T10:54:12Z</time>
      </trkpt>
      <trkpt lat="49.69752" lon="-1.89347">
        <ele>73.296875</ele>
        <time>2019-09-02T10:54:14Z</time>
      </trkpt>
      <trkpt lat="49.69747" lon="-1.89324">
        <ele>70.796875</ele>
        <time>2019-09-02T10:54:16Z</time>
      </trkpt>
      <trkpt lat="49.69741" lon="-1.893">
        <ele>67.398438</ele>
        <time>2019-09-02T10:54:18Z</time>
      </trkpt>
      <trkpt lat="49.69737" lon="-1.89273">
        <ele>65.898438</ele>
        <time>2019-09-02T10:54:20Z</time>
      </trkpt>
      <trkpt lat="49.69729" lon="-1.89213">
        <ele>62</ele>
        <time>2019-09-02T10:54:24Z</time>
      </trkpt>
      <trkpt lat="49.69719" lon="-1.89168">
        <ele>59.898438</ele>
        <time>2019-09-02T10:54:27Z</time>
      </trkpt>
      <trkpt lat="49.69714" lon="-1.89154">
        <ele>59.5</ele>
        <time>2019-09-02T10:54:28Z</time>
      </trkpt>
      <trkpt lat="49.69703" lon="-1.89127">
        <ele>59</ele>
        <time>2019-09-02T10:54:30Z</time>
      </trkpt>
      <trkpt lat="49.69688" lon="-1.89094">
        <ele>60.5</ele>
        <time>2019-09-02T10:54:33Z</time>
      </trkpt>
      <trkpt lat="49.69682" lon="-1.89078">
        <ele>61.898438</ele>
        <time>2019-09-02T10:54:35Z</time>
      </trkpt>
      <trkpt lat="49.69687" lon="-1.89061">
        <ele>62.898438</ele>
        <time>2019-09-02T10:54:38Z</time>
      </trkpt>
      <trkpt lat="49.69695" lon="-1.89051">
        <ele>63.597656</ele>
        <time>2019-09-02T10:54:41Z</time>
      </trkpt>
      <trkpt lat="49.69722" lon="-1.8902">
        <ele>64.796875</ele>
        <time>2019-09-02T10:54:50Z</time>
      </trkpt>
      <trkpt lat="49.6973" lon="-1.89006">
        <ele>65.5</ele>
        <time>2019-09-02T10:54:53Z</time>
      </trkpt>
      <trkpt lat="49.69736" lon="-1.88992">
        <ele>66.199219</ele>
        <time>2019-09-02T10:54:56Z</time>
      </trkpt>
      <trkpt lat="49.69745" lon="-1.88963">
        <ele>67.597656</ele>
        <time>2019-09-02T10:55:02Z</time>
      </trkpt>
      <trkpt lat="49.69755" lon="-1.88933">
        <ele>68.898438</ele>
        <time>2019-09-02T10:55:08Z</time>
      </trkpt>
      <trkpt lat="49.69758" lon="-1.88918">
        <ele>70.097656</ele>
        <time>2019-09-02T10:55:11Z</time>
      </trkpt>
      <trkpt lat="49.69761" lon="-1.88901">
        <ele>70.5</ele>
        <time>2019-09-02T10:55:15Z</time>
      </trkpt>
      <trkpt lat="49.69761" lon="-1.88885">
        <ele>71.398438</ele>
        <time>2019-09-02T10:55:19Z</time>
      </trkpt>
      <trkpt lat="49.69756" lon="-1.88755">
        <ele>73</ele>
        <time>2019-09-02T10:55:48Z</time>
      </trkpt>
      <trkpt lat="49.69754" lon="-1.88739">
        <ele>76</ele>
        <time>2019-09-02T10:55:51Z</time>
      </trkpt>
      <trkpt lat="49.69748" lon="-1.88727">
        <ele>76.898438</ele>
        <time>2019-09-02T10:57:00Z</time>
      </trkpt>
      <trkpt lat="49.69739" lon="-1.88732">
        <ele>77.5</ele>
        <time>2019-09-02T10:57:04Z</time>
      </trkpt>
      <trkpt lat="49.6973" lon="-1.88738">
        <ele>78.199219</ele>
        <time>2019-09-02T10:57:09Z</time>
      </trkpt>
      <trkpt lat="49.69721" lon="-1.88737">
        <ele>78.796875</ele>
        <time>2019-09-02T10:57:13Z</time>
      </trkpt>
      <trkpt lat="49.69715" lon="-1.88725">
        <ele>79</ele>
        <time>2019-09-02T10:57:17Z</time>
      </trkpt>
      <trkpt lat="49.69711" lon="-1.88711">
        <ele>79</ele>
        <time>2019-09-02T10:57:21Z</time>
      </trkpt>
      <trkpt lat="49.69664" lon="-1.88504">
        <ele>65.597656</ele>
        <time>2019-09-02T10:57:50Z</time>
      </trkpt>
      <trkpt lat="49.69658" lon="-1.8849">
        <ele>65.097656</ele>
        <time>2019-09-02T10:57:52Z</time>
      </trkpt>
      <trkpt lat="49.69649" lon="-1.88482">
        <ele>65</ele>
        <time>2019-09-02T10:57:54Z</time>
      </trkpt>
      <trkpt lat="49.69628" lon="-1.88468">
        <ele>65.398438</ele>
        <time>2019-09-02T10:57:58Z</time>
      </trkpt>
      <trkpt lat="49.6962" lon="-1.88459">
        <ele>66.296875</ele>
        <time>2019-09-02T10:58:00Z</time>
      </trkpt>
      <trkpt lat="49.69614" lon="-1.88442">
        <ele>67.296875</ele>
        <time>2019-09-02T10:58:03Z</time>
      </trkpt>
      <trkpt lat="49.69615" lon="-1.88425">
        <ele>67</ele>
        <time>2019-09-02T10:58:07Z</time>
      </trkpt>
      <trkpt lat="49.69623" lon="-1.88413">
        <ele>66.699219</ele>
        <time>2019-09-02T10:58:10Z</time>
      </trkpt>
      <trkpt lat="49.69632" lon="-1.88398">
        <ele>66.5</ele>
        <time>2019-09-02T10:58:13Z</time>
      </trkpt>
      <trkpt lat="49.69642" lon="-1.88395">
        <ele>66.199219</ele>
        <time>2019-09-02T10:58:15Z</time>
      </trkpt>
      <trkpt lat="49.69652" lon="-1.884">
        <ele>65.796875</ele>
        <time>2019-09-02T10:58:17Z</time>
      </trkpt>
      <trkpt lat="49.69754" lon="-1.88449">
        <ele>59.898438</ele>
        <time>2019-09-02T10:58:33Z</time>
      </trkpt>
      <trkpt lat="49.69769" lon="-1.88452">
        <ele>58.5</ele>
        <time>2019-09-02T10:58:35Z</time>
      </trkpt>
      <trkpt lat="49.69815" lon="-1.88458">
        <ele>54.597656</ele>
        <time>2019-09-02T10:58:40Z</time>
      </trkpt>
      <trkpt lat="49.69855" lon="-1.88457">
        <ele>49.199219</ele>
        <time>2019-09-02T10:58:44Z</time>
      </trkpt>
      <trkpt lat="49.69871" lon="-1.88453">
        <ele>48</ele>
        <time>2019-09-02T10:58:46Z</time>
      </trkpt>
      <trkpt lat="49.69885" lon="-1.88439">
        <ele>47.097656</ele>
        <time>2019-09-02T10:58:48Z</time>
      </trkpt>
      <trkpt lat="49.69897" lon="-1.8842">
        <ele>46.296875</ele>
        <time>2019-09-02T10:58:50Z</time>
      </trkpt>
      <trkpt lat="49.69921" lon="-1.88382">
        <ele>43.898438</ele>
        <time>2019-09-02T10:58:54Z</time>
      </trkpt>
      <trkpt lat="49.69932" lon="-1.8836">
        <ele>42.898438</ele>
        <time>2019-09-02T10:58:56Z</time>
      </trkpt>
      <trkpt lat="49.6994" lon="-1.88335">
        <ele>42</ele>
        <time>2019-09-02T10:58:58Z</time>
      </trkpt>
      <trkpt lat="49.69962" lon="-1.88267">
        <ele>40.597656</ele>
        <time>2019-09-02T10:59:04Z</time>
      </trkpt>
      <trkpt lat="49.69969" lon="-1.88252">
        <ele>40.199219</ele>
        <time>2019-09-02T10:59:06Z</time>
      </trkpt>
      <trkpt lat="49.69978" lon="-1.88241">
        <ele>39.699219</ele>
        <time>2019-09-02T10:59:08Z</time>
      </trkpt>
      <trkpt lat="49.70017" lon="-1.88188">
        <ele>36.5</ele>
        <time>2019-09-02T10:59:16Z</time>
      </trkpt>
      <trkpt lat="49.70026" lon="-1.88171">
        <ele>36.097656</ele>
        <time>2019-09-02T10:59:18Z</time>
      </trkpt>
      <trkpt lat="49.70047" lon="-1.88139">
        <ele>35.699219</ele>
        <time>2019-09-02T10:59:22Z</time>
      </trkpt>
      <trkpt lat="49.70053" lon="-1.8812">
        <ele>34.699219</ele>
        <time>2019-09-02T10:59:24Z</time>
      </trkpt>
      <trkpt lat="49.70056" lon="-1.88098">
        <ele>33.699219</ele>
        <time>2019-09-02T10:59:26Z</time>
      </trkpt>
      <trkpt lat="49.70057" lon="-1.88075">
        <ele>32.796875</ele>
        <time>2019-09-02T10:59:28Z</time>
      </trkpt>
      <trkpt lat="49.70057" lon="-1.88052">
        <ele>32</ele>
        <time>2019-09-02T10:59:30Z</time>
      </trkpt>
      <trkpt lat="49.70055" lon="-1.88028">
        <ele>31.398438</ele>
        <time>2019-09-02T10:59:32Z</time>
      </trkpt>
      <trkpt lat="49.70053" lon="-1.88005">
        <ele>31.597656</ele>
        <time>2019-09-02T10:59:34Z</time>
      </trkpt>
      <trkpt lat="49.70035" lon="-1.87888">
        <ele>29.796875</ele>
        <time>2019-09-02T10:59:46Z</time>
      </trkpt>
      <trkpt lat="49.70037" lon="-1.87871">
        <ele>30</ele>
        <time>2019-09-02T10:59:48Z</time>
      </trkpt>
      <trkpt lat="49.70046" lon="-1.87857">
        <ele>29.398438</ele>
        <time>2019-09-02T10:59:50Z</time>
      </trkpt>
      <trkpt lat="49.70055" lon="-1.87843">
        <ele>28.898438</ele>
        <time>2019-09-02T10:59:52Z</time>
      </trkpt>
      <trkpt lat="49.70064" lon="-1.87827">
        <ele>28.898438</ele>
        <time>2019-09-02T10:59:54Z</time>
      </trkpt>
      <trkpt lat="49.70074" lon="-1.87815">
        <ele>29</ele>
        <time>2019-09-02T10:59:56Z</time>
      </trkpt>
      <trkpt lat="49.70085" lon="-1.87806">
        <ele>29</ele>
        <time>2019-09-02T10:59:58Z</time>
      </trkpt>
      <trkpt lat="49.70094" lon="-1.87798">
        <ele>29.699219</ele>
        <time>2019-09-02T11:00:00Z</time>
      </trkpt>
      <trkpt lat="49.70102" lon="-1.8779">
        <ele>31</ele>
        <time>2019-09-02T11:00:02Z</time>
      </trkpt>
      <trkpt lat="49.70109" lon="-1.87776">
        <ele>32.5</ele>
        <time>2019-09-02T11:00:05Z</time>
      </trkpt>
      <trkpt lat="49.70113" lon="-1.87762">
        <ele>33.699219</ele>
        <time>2019-09-02T11:00:08Z</time>
      </trkpt>
      <trkpt lat="49.70114" lon="-1.87748">
        <ele>34.597656</ele>
        <time>2019-09-02T11:00:11Z</time>
      </trkpt>
      <trkpt lat="49.70115" lon="-1.87733">
        <ele>34.796875</ele>
        <time>2019-09-02T11:00:14Z</time>
      </trkpt>
      <trkpt lat="49.70113" lon="-1.87686">
        <ele>33.296875</ele>
        <time>2019-09-02T11:00:21Z</time>
      </trkpt>
      <trkpt lat="49.70116" lon="-1.87667">
        <ele>33</ele>
        <time>2019-09-02T11:00:23Z</time>
      </trkpt>
      <trkpt lat="49.70128" lon="-1.87603">
        <ele>31.898438</ele>
        <time>2019-09-02T11:00:31Z</time>
      </trkpt>
      <trkpt lat="49.70129" lon="-1.87589">
        <ele>31.597656</ele>
        <time>2019-09-02T11:00:33Z</time>
      </trkpt>
      <trkpt lat="49.70126" lon="-1.87574">
        <ele>31.699219</ele>
        <time>2019-09-02T11:00:35Z</time>
      </trkpt>
      <trkpt lat="49.70123" lon="-1.8756">
        <ele>32.199219</ele>
        <time>2019-09-02T11:00:37Z</time>
      </trkpt>
      <trkpt lat="49.701" lon="-1.87474">
        <ele>35.5</ele>
        <time>2019-09-02T11:00:52Z</time>
      </trkpt>
      <trkpt lat="49.70064" lon="-1.87363">
        <ele>38.699219</ele>
        <time>2019-09-02T11:01:13Z</time>
      </trkpt>
      <trkpt lat="49.70058" lon="-1.87347">
        <ele>39</ele>
        <time>2019-09-02T11:01:16Z</time>
      </trkpt>
      <trkpt lat="49.70051" lon="-1.87331">
        <ele>39.097656</ele>
        <time>2019-09-02T11:01:19Z</time>
      </trkpt>
      <trkpt lat="49.70043" lon="-1.87317">
        <ele>39.097656</ele>
        <time>2019-09-02T11:01:22Z</time>
      </trkpt>
      <trkpt lat="49.70011" lon="-1.87262">
        <ele>38.796875</ele>
        <time>2019-09-02T11:01:36Z</time>
      </trkpt>
      <trkpt lat="49.70002" lon="-1.87249">
        <ele>38.597656</ele>
        <time>2019-09-02T11:01:40Z</time>
      </trkpt>
      <trkpt lat="49.69987" lon="-1.87222">
        <ele>38.398438</ele>
        <time>2019-09-02T11:01:46Z</time>
      </trkpt>
      <trkpt lat="49.69979" lon="-1.87206">
        <ele>38.398438</ele>
        <time>2019-09-02T11:01:49Z</time>
      </trkpt>
      <trkpt lat="49.69972" lon="-1.87189">
        <ele>38.296875</ele>
        <time>2019-09-02T11:01:52Z</time>
      </trkpt>
      <trkpt lat="49.69957" lon="-1.87148">
        <ele>37.398438</ele>
        <time>2019-09-02T11:01:58Z</time>
      </trkpt>
      <trkpt lat="49.6995" lon="-1.87131">
        <ele>36.898438</ele>
        <time>2019-09-02T11:02:01Z</time>
      </trkpt>
      <trkpt lat="49.69942" lon="-1.87115">
        <ele>36.398438</ele>
        <time>2019-09-02T11:02:04Z</time>
      </trkpt>
      <trkpt lat="49.69934" lon="-1.87106">
        <ele>35.796875</ele>
        <time>2019-09-02T11:02:06Z</time>
      </trkpt>
      <trkpt lat="49.69924" lon="-1.87097">
        <ele>34.296875</ele>
        <time>2019-09-02T11:02:08Z</time>
      </trkpt>
      <trkpt lat="49.69914" lon="-1.8709">
        <ele>33.097656</ele>
        <time>2019-09-02T11:02:10Z</time>
      </trkpt>
      <trkpt lat="49.69906" lon="-1.87078">
        <ele>32.199219</ele>
        <time>2019-09-02T11:02:12Z</time>
      </trkpt>
      <trkpt lat="49.69899" lon="-1.87062">
        <ele>31.699219</ele>
        <time>2019-09-02T11:02:14Z</time>
      </trkpt>
      <trkpt lat="49.69882" lon="-1.87016">
        <ele>30.296875</ele>
        <time>2019-09-02T11:02:20Z</time>
      </trkpt>
      <trkpt lat="49.69889" lon="-1.87007">
        <ele>28.699219</ele>
        <time>2019-09-02T11:02:24Z</time>
      </trkpt>
      <trkpt lat="49.69902" lon="-1.87004">
        <ele>28.398438</ele>
        <time>2019-09-02T11:02:27Z</time>
      </trkpt>
      <trkpt lat="49.69911" lon="-1.87001">
        <ele>28</ele>
        <time>2019-09-02T11:02:29Z</time>
      </trkpt>
      <trkpt lat="49.69922" lon="-1.87">
        <ele>27.796875</ele>
        <time>2019-09-02T11:02:31Z</time>
      </trkpt>
      <trkpt lat="49.69932" lon="-1.87006">
        <ele>27.898438</ele>
        <time>2019-09-02T11:02:33Z</time>
      </trkpt>
      <trkpt lat="49.69941" lon="-1.87013">
        <ele>28.199219</ele>
        <time>2019-09-02T11:02:35Z</time>
      </trkpt>
      <trkpt lat="49.69952" lon="-1.87018">
        <ele>27.796875</ele>
        <time>2019-09-02T11:02:37Z</time>
      </trkpt>
      <trkpt lat="49.69964" lon="-1.8702">
        <ele>27.398438</ele>
        <time>2019-09-02T11:02:39Z</time>
      </trkpt>
      <trkpt lat="49.69986" lon="-1.87025">
        <ele>27.398438</ele>
        <time>2019-09-02T11:02:43Z</time>
      </trkpt>
      <trkpt lat="49.69996" lon="-1.87029">
        <ele>27.5</ele>
        <time>2019-09-02T11:02:45Z</time>
      </trkpt>
      <trkpt lat="49.70005" lon="-1.87034">
        <ele>27.097656</ele>
        <time>2019-09-02T11:02:47Z</time>
      </trkpt>
      <trkpt lat="49.70013" lon="-1.87041">
        <ele>26.398438</ele>
        <time>2019-09-02T11:02:49Z</time>
      </trkpt>
      <trkpt lat="49.70073" lon="-1.87088">
        <ele>21.597656</ele>
        <time>2019-09-02T11:03:01Z</time>
      </trkpt>
      <trkpt lat="49.70084" lon="-1.871">
        <ele>22</ele>
        <time>2019-09-02T11:03:03Z</time>
      </trkpt>
      <trkpt lat="49.70094" lon="-1.87113">
        <ele>22.199219</ele>
        <time>2019-09-02T11:03:05Z</time>
      </trkpt>
      <trkpt lat="49.70104" lon="-1.87127">
        <ele>22</ele>
        <time>2019-09-02T11:03:07Z</time>
      </trkpt>
      <trkpt lat="49.70113" lon="-1.87141">
        <ele>22.097656</ele>
        <time>2019-09-02T11:03:09Z</time>
      </trkpt>
      <trkpt lat="49.70122" lon="-1.87157">
        <ele>22.699219</ele>
        <time>2019-09-02T11:03:11Z</time>
      </trkpt>
      <trkpt lat="49.7013" lon="-1.87173">
        <ele>23.699219</ele>
        <time>2019-09-02T11:03:13Z</time>
      </trkpt>
      <trkpt lat="49.70151" lon="-1.87207">
        <ele>25.5</ele>
        <time>2019-09-02T11:03:19Z</time>
      </trkpt>
      <trkpt lat="49.70158" lon="-1.87216">
        <ele>26.296875</ele>
        <time>2019-09-02T11:03:21Z</time>
      </trkpt>
      <trkpt lat="49.70176" lon="-1.87238">
        <ele>25</ele>
        <time>2019-09-02T11:03:27Z</time>
      </trkpt>
      <trkpt lat="49.70186" lon="-1.87246">
        <ele>24.5</ele>
        <time>2019-09-02T11:03:30Z</time>
      </trkpt>
      <trkpt lat="49.70197" lon="-1.87258">
        <ele>22.796875</ele>
        <time>2019-09-02T11:03:33Z</time>
      </trkpt>
      <trkpt lat="49.70207" lon="-1.87265">
        <ele>20.699219</ele>
        <time>2019-09-02T11:03:35Z</time>
      </trkpt>
      <trkpt lat="49.70217" lon="-1.87274">
        <ele>19.5</ele>
        <time>2019-09-02T11:03:37Z</time>
      </trkpt>
      <trkpt lat="49.70226" lon="-1.87286">
        <ele>19.5</ele>
        <time>2019-09-02T11:03:39Z</time>
      </trkpt>
      <trkpt lat="49.70261" lon="-1.87332">
        <ele>18.796875</ele>
        <time>2019-09-02T11:03:47Z</time>
      </trkpt>
      <trkpt lat="49.70271" lon="-1.87342">
        <ele>18</ele>
        <time>2019-09-02T11:03:49Z</time>
      </trkpt>
      <trkpt lat="49.70306" lon="-1.87372">
        <ele>13.898438</ele>
        <time>2019-09-02T11:03:55Z</time>
      </trkpt>
      <trkpt lat="49.70316" lon="-1.87379">
        <ele>12.699219</ele>
        <time>2019-09-02T11:03:57Z</time>
      </trkpt>
      <trkpt lat="49.70327" lon="-1.87381">
        <ele>11.898438</ele>
        <time>2019-09-02T11:03:59Z</time>
      </trkpt>
      <trkpt lat="49.70337" lon="-1.87379">
        <ele>11.199219</ele>
        <time>2019-09-02T11:04:01Z</time>
      </trkpt>
      <trkpt lat="49.70347" lon="-1.87375">
        <ele>11.296875</ele>
        <time>2019-09-02T11:04:04Z</time>
      </trkpt>
      <trkpt lat="49.70355" lon="-1.87369">
        <ele>15.5</ele>
        <time>2019-09-02T11:04:10Z</time>
      </trkpt>
      <trkpt lat="49.70359" lon="-1.87354">
        <ele>18.796875</ele>
        <time>2019-09-02T11:04:24Z</time>
      </trkpt>
      <trkpt lat="49.70409" lon="-1.87093">
        <ele>50.308594</ele>
        <time>2019-09-02T11:06:59Z</time>
      </trkpt>
      <trkpt lat="49.70414" lon="-1.8709">
        <ele>51.652344</ele>
        <time>2019-09-02T11:08:18Z</time>
      </trkpt>
      <trkpt lat="49.70416" lon="-1.87088">
        <ele>43.949219</ele>
        <time>2019-09-02T11:36:03Z</time>
      </trkpt>
      <trkpt lat="49.70412" lon="-1.87074">
        <ele>50.097656</ele>
        <time>2019-09-02T11:37:24Z</time>
      </trkpt>
      <trkpt lat="49.70411" lon="-1.8706">
        <ele>51.5</ele>
        <time>2019-09-02T11:37:29Z</time>
      </trkpt>
      <trkpt lat="49.70412" lon="-1.87046">
        <ele>52.898438</ele>
        <time>2019-09-02T11:37:34Z</time>
      </trkpt>
      <trkpt lat="49.70412" lon="-1.87029">
        <ele>53.796875</ele>
        <time>2019-09-02T11:37:40Z</time>
      </trkpt>
      <trkpt lat="49.7041" lon="-1.87001">
        <ele>55.699219</ele>
        <time>2019-09-02T11:37:50Z</time>
      </trkpt>
      <trkpt lat="49.70406" lon="-1.86986">
        <ele>56.699219</ele>
        <time>2019-09-02T11:37:55Z</time>
      </trkpt>
      <trkpt lat="49.70395" lon="-1.8694">
        <ele>60.296875</ele>
        <time>2019-09-02T11:38:10Z</time>
      </trkpt>
      <trkpt lat="49.70393" lon="-1.86924">
        <ele>61.296875</ele>
        <time>2019-09-02T11:38:15Z</time>
      </trkpt>
      <trkpt lat="49.70382" lon="-1.86864">
        <ele>64.398438</ele>
        <time>2019-09-02T11:38:35Z</time>
      </trkpt>
      <trkpt lat="49.70367" lon="-1.86802">
        <ele>65</ele>
        <time>2019-09-02T11:38:50Z</time>
      </trkpt>
      <trkpt lat="49.70362" lon="-1.86787">
        <ele>65</ele>
        <time>2019-09-02T11:38:53Z</time>
      </trkpt>
      <trkpt lat="49.70346" lon="-1.86742">
        <ele>64.597656</ele>
        <time>2019-09-02T11:39:02Z</time>
      </trkpt>
      <trkpt lat="49.70342" lon="-1.86724">
        <ele>64.5</ele>
        <time>2019-09-02T11:39:05Z</time>
      </trkpt>
      <trkpt lat="49.70334" lon="-1.86674">
        <ele>64.296875</ele>
        <time>2019-09-02T11:39:12Z</time>
      </trkpt>
      <trkpt lat="49.70332" lon="-1.86658">
        <ele>64.199219</ele>
        <time>2019-09-02T11:39:14Z</time>
      </trkpt>
      <trkpt lat="49.70331" lon="-1.86643">
        <ele>64.199219</ele>
        <time>2019-09-02T11:39:16Z</time>
      </trkpt>
      <trkpt lat="49.70326" lon="-1.86561">
        <ele>63.199219</ele>
        <time>2019-09-02T11:39:26Z</time>
      </trkpt>
      <trkpt lat="49.70323" lon="-1.86544">
        <ele>63.199219</ele>
        <time>2019-09-02T11:39:28Z</time>
      </trkpt>
      <trkpt lat="49.70319" lon="-1.86528">
        <ele>63.199219</ele>
        <time>2019-09-02T11:39:30Z</time>
      </trkpt>
      <trkpt lat="49.70314" lon="-1.86513">
        <ele>63.296875</ele>
        <time>2019-09-02T11:39:32Z</time>
      </trkpt>
      <trkpt lat="49.70309" lon="-1.865">
        <ele>63.296875</ele>
        <time>2019-09-02T11:39:34Z</time>
      </trkpt>
      <trkpt lat="49.70297" lon="-1.86471">
        <ele>63.398438</ele>
        <time>2019-09-02T11:39:39Z</time>
      </trkpt>
      <trkpt lat="49.70289" lon="-1.86456">
        <ele>63.398438</ele>
        <time>2019-09-02T11:39:42Z</time>
      </trkpt>
      <trkpt lat="49.70281" lon="-1.86442">
        <ele>63.199219</ele>
        <time>2019-09-02T11:39:45Z</time>
      </trkpt>
      <trkpt lat="49.70274" lon="-1.86432">
        <ele>62.898438</ele>
        <time>2019-09-02T11:39:47Z</time>
      </trkpt>
      <trkpt lat="49.70266" lon="-1.86423">
        <ele>62.597656</ele>
        <time>2019-09-02T11:39:49Z</time>
      </trkpt>
      <trkpt lat="49.70249" lon="-1.86403">
        <ele>62</ele>
        <time>2019-09-02T11:39:53Z</time>
      </trkpt>
      <trkpt lat="49.70241" lon="-1.8639">
        <ele>61.597656</ele>
        <time>2019-09-02T11:39:55Z</time>
      </trkpt>
      <trkpt lat="49.70233" lon="-1.86375">
        <ele>61.296875</ele>
        <time>2019-09-02T11:39:57Z</time>
      </trkpt>
      <trkpt lat="49.70227" lon="-1.86358">
        <ele>61.5</ele>
        <time>2019-09-02T11:39:59Z</time>
      </trkpt>
      <trkpt lat="49.70223" lon="-1.86339">
        <ele>61.097656</ele>
        <time>2019-09-02T11:40:01Z</time>
      </trkpt>
      <trkpt lat="49.70204" lon="-1.8625">
        <ele>59.597656</ele>
        <time>2019-09-02T11:40:11Z</time>
      </trkpt>
      <trkpt lat="49.70182" lon="-1.86141">
        <ele>61.5</ele>
        <time>2019-09-02T11:40:33Z</time>
      </trkpt>
      <trkpt lat="49.7018" lon="-1.86127">
        <ele>62.199219</ele>
        <time>2019-09-02T11:40:36Z</time>
      </trkpt>
      <trkpt lat="49.7018" lon="-1.86109">
        <ele>62.699219</ele>
        <time>2019-09-02T11:40:40Z</time>
      </trkpt>
      <trkpt lat="49.7018" lon="-1.86059">
        <ele>64.699219</ele>
        <time>2019-09-02T11:40:52Z</time>
      </trkpt>
      <trkpt lat="49.70183" lon="-1.86025">
        <ele>65.5</ele>
        <time>2019-09-02T11:41:00Z</time>
      </trkpt>
      <trkpt lat="49.70186" lon="-1.86011">
        <ele>65.597656</ele>
        <time>2019-09-02T11:41:03Z</time>
      </trkpt>
      <trkpt lat="49.70193" lon="-1.85969">
        <ele>65.199219</ele>
        <time>2019-09-02T11:41:12Z</time>
      </trkpt>
      <trkpt lat="49.70197" lon="-1.85955">
        <ele>65.296875</ele>
        <time>2019-09-02T11:41:15Z</time>
      </trkpt>
      <trkpt lat="49.70203" lon="-1.85943">
        <ele>65.898438</ele>
        <time>2019-09-02T11:41:18Z</time>
      </trkpt>
      <trkpt lat="49.70209" lon="-1.85932">
        <ele>66.5</ele>
        <time>2019-09-02T11:41:21Z</time>
      </trkpt>
      <trkpt lat="49.70216" lon="-1.85917">
        <ele>67.199219</ele>
        <time>2019-09-02T11:41:25Z</time>
      </trkpt>
      <trkpt lat="49.7022" lon="-1.85902">
        <ele>67.898438</ele>
        <time>2019-09-02T11:41:29Z</time>
      </trkpt>
      <trkpt lat="49.70222" lon="-1.85887">
        <ele>68.699219</ele>
        <time>2019-09-02T11:41:33Z</time>
      </trkpt>
      <trkpt lat="49.70299" lon="-1.85449">
        <ele>72</ele>
        <time>2019-09-02T11:43:06Z</time>
      </trkpt>
      <trkpt lat="49.70305" lon="-1.85423">
        <ele>70.398438</ele>
        <time>2019-09-02T11:43:08Z</time>
      </trkpt>
      <trkpt lat="49.70312" lon="-1.85402">
        <ele>69.5</ele>
        <time>2019-09-02T11:43:10Z</time>
      </trkpt>
      <trkpt lat="49.70322" lon="-1.8539">
        <ele>68.398438</ele>
        <time>2019-09-02T11:43:12Z</time>
      </trkpt>
      <trkpt lat="49.70335" lon="-1.85385">
        <ele>67.398438</ele>
        <time>2019-09-02T11:43:14Z</time>
      </trkpt>
      <trkpt lat="49.70366" lon="-1.85378">
        <ele>65.5</ele>
        <time>2019-09-02T11:43:18Z</time>
      </trkpt>
      <trkpt lat="49.70381" lon="-1.8537">
        <ele>64</ele>
        <time>2019-09-02T11:43:20Z</time>
      </trkpt>
      <trkpt lat="49.70394" lon="-1.85357">
        <ele>61.898438</ele>
        <time>2019-09-02T11:43:22Z</time>
      </trkpt>
      <trkpt lat="49.70403" lon="-1.85344">
        <ele>59.796875</ele>
        <time>2019-09-02T11:43:24Z</time>
      </trkpt>
      <trkpt lat="49.70409" lon="-1.85326">
        <ele>58.097656</ele>
        <time>2019-09-02T11:43:26Z</time>
      </trkpt>
      <trkpt lat="49.70413" lon="-1.85307">
        <ele>56.398438</ele>
        <time>2019-09-02T11:43:28Z</time>
      </trkpt>
      <trkpt lat="49.70419" lon="-1.85288">
        <ele>54.699219</ele>
        <time>2019-09-02T11:43:30Z</time>
      </trkpt>
      <trkpt lat="49.70421" lon="-1.8527">
        <ele>53.597656</ele>
        <time>2019-09-02T11:43:32Z</time>
      </trkpt>
      <trkpt lat="49.7042" lon="-1.85252">
        <ele>52.398438</ele>
        <time>2019-09-02T11:43:34Z</time>
      </trkpt>
      <trkpt lat="49.70418" lon="-1.85233">
        <ele>51.097656</ele>
        <time>2019-09-02T11:43:37Z</time>
      </trkpt>
      <trkpt lat="49.70407" lon="-1.8522">
        <ele>50.699219</ele>
        <time>2019-09-02T11:43:40Z</time>
      </trkpt>
      <trkpt lat="49.70397" lon="-1.85212">
        <ele>49.699219</ele>
        <time>2019-09-02T11:43:42Z</time>
      </trkpt>
      <trkpt lat="49.70388" lon="-1.85197">
        <ele>48.597656</ele>
        <time>2019-09-02T11:43:44Z</time>
      </trkpt>
      <trkpt lat="49.7036" lon="-1.85135">
        <ele>45.5</ele>
        <time>2019-09-02T11:43:50Z</time>
      </trkpt>
      <trkpt lat="49.7032" lon="-1.85046">
        <ele>39.5</ele>
        <time>2019-09-02T11:43:57Z</time>
      </trkpt>
      <trkpt lat="49.70314" lon="-1.85031">
        <ele>38.597656</ele>
        <time>2019-09-02T11:43:58Z</time>
      </trkpt>
      <trkpt lat="49.70289" lon="-1.84945">
        <ele>33.398438</ele>
        <time>2019-09-02T11:44:04Z</time>
      </trkpt>
      <trkpt lat="49.70284" lon="-1.8492">
        <ele>32.699219</ele>
        <time>2019-09-02T11:44:06Z</time>
      </trkpt>
      <trkpt lat="49.70282" lon="-1.849">
        <ele>31.898438</ele>
        <time>2019-09-02T11:44:08Z</time>
      </trkpt>
      <trkpt lat="49.70281" lon="-1.84881">
        <ele>30.898438</ele>
        <time>2019-09-02T11:44:10Z</time>
      </trkpt>
      <trkpt lat="49.70281" lon="-1.84835">
        <ele>29</ele>
        <time>2019-09-02T11:44:14Z</time>
      </trkpt>
      <trkpt lat="49.7028" lon="-1.84809">
        <ele>28.199219</ele>
        <time>2019-09-02T11:44:16Z</time>
      </trkpt>
      <trkpt lat="49.7028" lon="-1.84783">
        <ele>27.296875</ele>
        <time>2019-09-02T11:44:18Z</time>
      </trkpt>
      <trkpt lat="49.70283" lon="-1.84755">
        <ele>26.796875</ele>
        <time>2019-09-02T11:44:20Z</time>
      </trkpt>
      <trkpt lat="49.703" lon="-1.84636">
        <ele>22.398438</ele>
        <time>2019-09-02T11:44:28Z</time>
      </trkpt>
      <trkpt lat="49.70303" lon="-1.8462">
        <ele>21.796875</ele>
        <time>2019-09-02T11:44:29Z</time>
      </trkpt>
      <trkpt lat="49.70311" lon="-1.8459">
        <ele>20.699219</ele>
        <time>2019-09-02T11:44:31Z</time>
      </trkpt>
      <trkpt lat="49.70316" lon="-1.84576">
        <ele>20.296875</ele>
        <time>2019-09-02T11:44:32Z</time>
      </trkpt>
      <trkpt lat="49.70321" lon="-1.84563">
        <ele>19.597656</ele>
        <time>2019-09-02T11:44:33Z</time>
      </trkpt>
      <trkpt lat="49.70331" lon="-1.84544">
        <ele>19.199219</ele>
        <time>2019-09-02T11:44:35Z</time>
      </trkpt>
      <trkpt lat="49.70336" lon="-1.84532">
        <ele>18.398438</ele>
        <time>2019-09-02T11:44:37Z</time>
      </trkpt>
      <trkpt lat="49.70331" lon="-1.84514">
        <ele>17.898438</ele>
        <time>2019-09-02T11:44:40Z</time>
      </trkpt>
      <trkpt lat="49.70325" lon="-1.84502">
        <ele>17.5</ele>
        <time>2019-09-02T11:44:42Z</time>
      </trkpt>
      <trkpt lat="49.70319" lon="-1.84489">
        <ele>16.898438</ele>
        <time>2019-09-02T11:44:44Z</time>
      </trkpt>
      <trkpt lat="49.70313" lon="-1.84473">
        <ele>16.296875</ele>
        <time>2019-09-02T11:44:46Z</time>
      </trkpt>
      <trkpt lat="49.70309" lon="-1.84456">
        <ele>15.597656</ele>
        <time>2019-09-02T11:44:48Z</time>
      </trkpt>
      <trkpt lat="49.70308" lon="-1.84437">
        <ele>15.097656</ele>
        <time>2019-09-02T11:44:50Z</time>
      </trkpt>
      <trkpt lat="49.70315" lon="-1.84421">
        <ele>14.597656</ele>
        <time>2019-09-02T11:44:52Z</time>
      </trkpt>
      <trkpt lat="49.70324" lon="-1.84406">
        <ele>14.097656</ele>
        <time>2019-09-02T11:44:54Z</time>
      </trkpt>
      <trkpt lat="49.70333" lon="-1.84391">
        <ele>13.398438</ele>
        <time>2019-09-02T11:44:56Z</time>
      </trkpt>
      <trkpt lat="49.70343" lon="-1.84381">
        <ele>12.796875</ele>
        <time>2019-09-02T11:44:58Z</time>
      </trkpt>
      <trkpt lat="49.70352" lon="-1.84376">
        <ele>13.5</ele>
        <time>2019-09-02T11:45:02Z</time>
      </trkpt>
      <trkpt lat="49.70341" lon="-1.8438">
        <ele>14.097656</ele>
        <time>2019-09-02T11:45:10Z</time>
      </trkpt>
      <trkpt lat="49.70331" lon="-1.84374">
        <ele>14.199219</ele>
        <time>2019-09-02T11:45:14Z</time>
      </trkpt>
      <trkpt lat="49.70324" lon="-1.84364">
        <ele>14.296875</ele>
        <time>2019-09-02T11:45:17Z</time>
      </trkpt>
      <trkpt lat="49.70316" lon="-1.84352">
        <ele>14.398438</ele>
        <time>2019-09-02T11:45:20Z</time>
      </trkpt>
      <trkpt lat="49.70309" lon="-1.84337">
        <ele>14.5</ele>
        <time>2019-09-02T11:45:23Z</time>
      </trkpt>
      <trkpt lat="49.70304" lon="-1.84323">
        <ele>14.5</ele>
        <time>2019-09-02T11:45:26Z</time>
      </trkpt>
      <trkpt lat="49.70312" lon="-1.84314">
        <ele>15.097656</ele>
        <time>2019-09-02T11:45:33Z</time>
      </trkpt>
      <trkpt lat="49.7032" lon="-1.84308">
        <ele>13.898438</ele>
        <time>2019-09-02T11:45:50Z</time>
      </trkpt>
      <trkpt lat="49.7033" lon="-1.843">
        <ele>12.796875</ele>
        <time>2019-09-02T11:45:55Z</time>
      </trkpt>
      <trkpt lat="49.70337" lon="-1.84289">
        <ele>13.5</ele>
        <time>2019-09-02T11:46:00Z</time>
      </trkpt>
      <trkpt lat="49.7033" lon="-1.84299">
        <ele>13.5</ele>
        <time>2019-09-02T11:46:15Z</time>
      </trkpt>
      <trkpt lat="49.7032" lon="-1.8431">
        <ele>15</ele>
        <time>2019-09-02T11:46:20Z</time>
      </trkpt>
      <trkpt lat="49.7031" lon="-1.84312">
        <ele>15.699219</ele>
        <time>2019-09-02T11:46:24Z</time>
      </trkpt>
      <trkpt lat="49.70306" lon="-1.84296">
        <ele>15.898438</ele>
        <time>2019-09-02T11:46:28Z</time>
      </trkpt>
      <trkpt lat="49.70301" lon="-1.84279">
        <ele>16.097656</ele>
        <time>2019-09-02T11:46:32Z</time>
      </trkpt>
      <trkpt lat="49.70296" lon="-1.84268">
        <ele>16.199219</ele>
        <time>2019-09-02T11:46:35Z</time>
      </trkpt>
      <trkpt lat="49.70295" lon="-1.84253">
        <ele>15.796875</ele>
        <time>2019-09-02T11:46:41Z</time>
      </trkpt>
      <trkpt lat="49.70299" lon="-1.84241">
        <ele>15.296875</ele>
        <time>2019-09-02T11:46:45Z</time>
      </trkpt>
      <trkpt lat="49.70309" lon="-1.84212">
        <ele>14.699219</ele>
        <time>2019-09-02T11:47:09Z</time>
      </trkpt>
      <trkpt lat="49.70345" lon="-1.84089">
        <ele>12</ele>
        <time>2019-09-02T11:47:26Z</time>
      </trkpt>
      <trkpt lat="49.70351" lon="-1.84075">
        <ele>11.5</ele>
        <time>2019-09-02T11:47:28Z</time>
      </trkpt>
      <trkpt lat="49.70359" lon="-1.84061">
        <ele>11.097656</ele>
        <time>2019-09-02T11:47:30Z</time>
      </trkpt>
      <trkpt lat="49.70367" lon="-1.84047">
        <ele>10.398438</ele>
        <time>2019-09-02T11:47:32Z</time>
      </trkpt>
      <trkpt lat="49.70397" lon="-1.83998">
        <ele>8.199219</ele>
        <time>2019-09-02T11:47:40Z</time>
      </trkpt>
      <trkpt lat="49.70403" lon="-1.83983">
        <ele>8.296875</ele>
        <time>2019-09-02T11:47:42Z</time>
      </trkpt>
      <trkpt lat="49.70419" lon="-1.83937">
        <ele>8.398438</ele>
        <time>2019-09-02T11:47:48Z</time>
      </trkpt>
      <trkpt lat="49.70434" lon="-1.8389">
        <ele>8.398438</ele>
        <time>2019-09-02T11:47:54Z</time>
      </trkpt>
      <trkpt lat="49.70443" lon="-1.83856">
        <ele>7.898438</ele>
        <time>2019-09-02T11:47:58Z</time>
      </trkpt>
      <trkpt lat="49.7045" lon="-1.83841">
        <ele>7.5</ele>
        <time>2019-09-02T11:48:00Z</time>
      </trkpt>
      <trkpt lat="49.70514" lon="-1.83699">
        <ele>5.097656</ele>
        <time>2019-09-02T11:48:20Z</time>
      </trkpt>
      <trkpt lat="49.70521" lon="-1.83687">
        <ele>5</ele>
        <time>2019-09-02T11:48:22Z</time>
      </trkpt>
      <trkpt lat="49.70541" lon="-1.83652">
        <ele>5</ele>
        <time>2019-09-02T11:48:29Z</time>
      </trkpt>
      <trkpt lat="49.70549" lon="-1.83642">
        <ele>5.296875</ele>
        <time>2019-09-02T11:48:33Z</time>
      </trkpt>
      <trkpt lat="49.7056" lon="-1.83637">
        <ele>5.5</ele>
        <time>2019-09-02T11:48:37Z</time>
      </trkpt>
      <trkpt lat="49.70571" lon="-1.83633">
        <ele>5.398438</ele>
        <time>2019-09-02T11:48:41Z</time>
      </trkpt>
      <trkpt lat="49.7058" lon="-1.83635">
        <ele>8.199219</ele>
        <time>2019-09-02T11:48:49Z</time>
      </trkpt>
      <trkpt lat="49.706" lon="-1.83636">
        <ele>8.296875</ele>
        <time>2019-09-02T11:52:20Z</time>
      </trkpt>
      <trkpt lat="49.7061" lon="-1.83635">
        <ele>8.398438</ele>
        <time>2019-09-02T11:52:25Z</time>
      </trkpt>
      <trkpt lat="49.7062" lon="-1.83633">
        <ele>8.398438</ele>
        <time>2019-09-02T11:52:30Z</time>
      </trkpt>
      <trkpt lat="49.70642" lon="-1.83626">
        <ele>8</ele>
        <time>2019-09-02T11:52:38Z</time>
      </trkpt>
      <trkpt lat="49.70653" lon="-1.83621">
        <ele>8</ele>
        <time>2019-09-02T11:52:41Z</time>
      </trkpt>
      <trkpt lat="49.70663" lon="-1.83614">
        <ele>8</ele>
        <time>2019-09-02T11:52:44Z</time>
      </trkpt>
      <trkpt lat="49.70694" lon="-1.83593">
        <ele>7.5</ele>
        <time>2019-09-02T11:52:55Z</time>
      </trkpt>
      <trkpt lat="49.70705" lon="-1.8359">
        <ele>7.296875</ele>
        <time>2019-09-02T11:52:59Z</time>
      </trkpt>
      <trkpt lat="49.70715" lon="-1.83596">
        <ele>6.796875</ele>
        <time>2019-09-02T11:53:03Z</time>
      </trkpt>
      <trkpt lat="49.70721" lon="-1.8361">
        <ele>6.597656</ele>
        <time>2019-09-02T11:53:06Z</time>
      </trkpt>
      <trkpt lat="49.70721" lon="-1.83626">
        <ele>6.398438</ele>
        <time>2019-09-02T11:53:09Z</time>
      </trkpt>
      <trkpt lat="49.70715" lon="-1.83638">
        <ele>6.199219</ele>
        <time>2019-09-02T11:53:12Z</time>
      </trkpt>
      <trkpt lat="49.70708" lon="-1.83648">
        <ele>6.097656</ele>
        <time>2019-09-02T11:53:15Z</time>
      </trkpt>
      <trkpt lat="49.70699" lon="-1.83657">
        <ele>6.296875</ele>
        <time>2019-09-02T11:53:18Z</time>
      </trkpt>
      <trkpt lat="49.70683" lon="-1.83674">
        <ele>6.296875</ele>
        <time>2019-09-02T11:53:26Z</time>
      </trkpt>
      <trkpt lat="49.70672" lon="-1.83682">
        <ele>6.296875</ele>
        <time>2019-09-02T11:53:30Z</time>
      </trkpt>
      <trkpt lat="49.70663" lon="-1.83688">
        <ele>6.296875</ele>
        <time>2019-09-02T11:53:33Z</time>
      </trkpt>
      <trkpt lat="49.70653" lon="-1.83691">
        <ele>6.597656</ele>
        <time>2019-09-02T11:53:36Z</time>
      </trkpt>
      <trkpt lat="49.70623" lon="-1.837">
        <ele>6.898438</ele>
        <time>2019-09-02T11:53:46Z</time>
      </trkpt>
      <trkpt lat="49.70615" lon="-1.83709">
        <ele>6.898438</ele>
        <time>2019-09-02T11:53:49Z</time>
      </trkpt>
      <trkpt lat="49.70609" lon="-1.83723">
        <ele>7.097656</ele>
        <time>2019-09-02T11:53:52Z</time>
      </trkpt>
      <trkpt lat="49.70605" lon="-1.83738">
        <ele>7.296875</ele>
        <time>2019-09-02T11:53:55Z</time>
      </trkpt>
      <trkpt lat="49.70597" lon="-1.83765">
        <ele>7.597656</ele>
        <time>2019-09-02T11:54:01Z</time>
      </trkpt>
      <trkpt lat="49.70591" lon="-1.83794">
        <ele>7.5</ele>
        <time>2019-09-02T11:54:07Z</time>
      </trkpt>
      <trkpt lat="49.70589" lon="-1.8381">
        <ele>7.5</ele>
        <time>2019-09-02T11:54:10Z</time>
      </trkpt>
      <trkpt lat="49.70588" lon="-1.83827">
        <ele>7.699219</ele>
        <time>2019-09-02T11:54:13Z</time>
      </trkpt>
      <trkpt lat="49.7059" lon="-1.83842">
        <ele>7.796875</ele>
        <time>2019-09-02T11:54:16Z</time>
      </trkpt>
      <trkpt lat="49.70594" lon="-1.83857">
        <ele>8</ele>
        <time>2019-09-02T11:54:19Z</time>
      </trkpt>
      <trkpt lat="49.70597" lon="-1.83872">
        <ele>8</ele>
        <time>2019-09-02T11:54:22Z</time>
      </trkpt>
      <trkpt lat="49.70597" lon="-1.83887">
        <ele>8.199219</ele>
        <time>2019-09-02T11:54:25Z</time>
      </trkpt>
      <trkpt lat="49.70596" lon="-1.83901">
        <ele>8.5</ele>
        <time>2019-09-02T11:54:28Z</time>
      </trkpt>
      <trkpt lat="49.70594" lon="-1.83916">
        <ele>8.699219</ele>
        <time>2019-09-02T11:54:31Z</time>
      </trkpt>
      <trkpt lat="49.70591" lon="-1.8393">
        <ele>8.796875</ele>
        <time>2019-09-02T11:54:34Z</time>
      </trkpt>
      <trkpt lat="49.70586" lon="-1.83944">
        <ele>8.898438</ele>
        <time>2019-09-02T11:54:37Z</time>
      </trkpt>
      <trkpt lat="49.70583" lon="-1.83958">
        <ele>9.097656</ele>
        <time>2019-09-02T11:54:40Z</time>
      </trkpt>
      <trkpt lat="49.70582" lon="-1.83973">
        <ele>9.199219</ele>
        <time>2019-09-02T11:54:43Z</time>
      </trkpt>
      <trkpt lat="49.70583" lon="-1.83989">
        <ele>9.398438</ele>
        <time>2019-09-02T11:54:46Z</time>
      </trkpt>
      <trkpt lat="49.70586" lon="-1.84037">
        <ele>9.898438</ele>
        <time>2019-09-02T11:54:55Z</time>
      </trkpt>
      <trkpt lat="49.70586" lon="-1.84053">
        <ele>10.199219</ele>
        <time>2019-09-02T11:54:58Z</time>
      </trkpt>
      <trkpt lat="49.70581" lon="-1.84065">
        <ele>10.398438</ele>
        <time>2019-09-02T11:55:01Z</time>
      </trkpt>
      <trkpt lat="49.70574" lon="-1.84075">
        <ele>10.597656</ele>
        <time>2019-09-02T11:55:04Z</time>
      </trkpt>
      <trkpt lat="49.70565" lon="-1.84084">
        <ele>10.796875</ele>
        <time>2019-09-02T11:55:07Z</time>
      </trkpt>
      <trkpt lat="49.70558" lon="-1.84095">
        <ele>10.898438</ele>
        <time>2019-09-02T11:55:10Z</time>
      </trkpt>
      <trkpt lat="49.70551" lon="-1.84108">
        <ele>11.097656</ele>
        <time>2019-09-02T11:55:13Z</time>
      </trkpt>
      <trkpt lat="49.70511" lon="-1.84186">
        <ele>12.796875</ele>
        <time>2019-09-02T11:55:31Z</time>
      </trkpt>
      <trkpt lat="49.70509" lon="-1.84204">
        <ele>11.9375</ele>
        <time>2019-09-02T11:56:21Z</time>
      </trkpt>
      <trkpt lat="49.7044" lon="-1.84099">
        <ele>13.597656</ele>
        <time>2019-09-02T11:57:16Z</time>
      </trkpt>
      <trkpt lat="49.70434" lon="-1.84087">
        <ele>13.398438</ele>
        <time>2019-09-02T11:57:19Z</time>
      </trkpt>
      <trkpt lat="49.70426" lon="-1.84076">
        <ele>13.199219</ele>
        <time>2019-09-02T11:57:22Z</time>
      </trkpt>
      <trkpt lat="49.70418" lon="-1.84068">
        <ele>12.898438</ele>
        <time>2019-09-02T11:57:25Z</time>
      </trkpt>
      <trkpt lat="49.70408" lon="-1.84058">
        <ele>13</ele>
        <time>2019-09-02T11:57:29Z</time>
      </trkpt>
      <trkpt lat="49.704" lon="-1.84048">
        <ele>12.898438</ele>
        <time>2019-09-02T11:57:32Z</time>
      </trkpt>
      <trkpt lat="49.70394" lon="-1.84037">
        <ele>12.5</ele>
        <time>2019-09-02T11:57:35Z</time>
      </trkpt>
      <trkpt lat="49.70391" lon="-1.84019">
        <ele>12</ele>
        <time>2019-09-02T11:57:38Z</time>
      </trkpt>
      <trkpt lat="49.70394" lon="-1.84001">
        <ele>11.5</ele>
        <time>2019-09-02T11:57:41Z</time>
      </trkpt>
      <trkpt lat="49.70401" lon="-1.83982">
        <ele>11.097656</ele>
        <time>2019-09-02T11:57:44Z</time>
      </trkpt>
      <trkpt lat="49.70433" lon="-1.83887">
        <ele>9.398438</ele>
        <time>2019-09-02T11:57:58Z</time>
      </trkpt>
      <trkpt lat="49.70436" lon="-1.83872">
        <ele>9.398438</ele>
        <time>2019-09-02T11:58:00Z</time>
      </trkpt>
      <trkpt lat="49.70441" lon="-1.83858">
        <ele>9.296875</ele>
        <time>2019-09-02T11:58:02Z</time>
      </trkpt>
      <trkpt lat="49.70446" lon="-1.83846">
        <ele>8.5</ele>
        <time>2019-09-02T11:58:04Z</time>
      </trkpt>
      <trkpt lat="49.70459" lon="-1.83817">
        <ele>7.097656</ele>
        <time>2019-09-02T11:58:10Z</time>
      </trkpt>
      <trkpt lat="49.70462" lon="-1.83804">
        <ele>8.597656</ele>
        <time>2019-09-02T11:58:14Z</time>
      </trkpt>
      <trkpt lat="49.70453" lon="-1.83797">
        <ele>8.296875</ele>
        <time>2019-09-02T11:58:25Z</time>
      </trkpt>
      <trkpt lat="49.70443" lon="-1.83793">
        <ele>8.5</ele>
        <time>2019-09-02T11:58:30Z</time>
      </trkpt>
      <trkpt lat="49.70425" lon="-1.83788">
        <ele>9</ele>
        <time>2019-09-02T11:58:40Z</time>
      </trkpt>
      <trkpt lat="49.70296" lon="-1.83763">
        <ele>17.296875</ele>
        <time>2019-09-02T11:59:34Z</time>
      </trkpt>
      <trkpt lat="49.70287" lon="-1.8376">
        <ele>19</ele>
        <time>2019-09-02T11:59:38Z</time>
      </trkpt>
      <trkpt lat="49.70256" lon="-1.8375">
        <ele>22</ele>
        <time>2019-09-02T11:59:52Z</time>
      </trkpt>
      <trkpt lat="49.70248" lon="-1.83741">
        <ele>23.597656</ele>
        <time>2019-09-02T11:59:57Z</time>
      </trkpt>
      <trkpt lat="49.70241" lon="-1.83727">
        <ele>24.796875</ele>
        <time>2019-09-02T12:00:02Z</time>
      </trkpt>
      <trkpt lat="49.70233" lon="-1.8372">
        <ele>26.296875</ele>
        <time>2019-09-02T12:00:06Z</time>
      </trkpt>
      <trkpt lat="49.70224" lon="-1.83715">
        <ele>28.699219</ele>
        <time>2019-09-02T12:00:11Z</time>
      </trkpt>
      <trkpt lat="49.70215" lon="-1.83715">
        <ele>29.597656</ele>
        <time>2019-09-02T12:00:16Z</time>
      </trkpt>
      <trkpt lat="49.70209" lon="-1.83728">
        <ele>30.199219</ele>
        <time>2019-09-02T12:00:21Z</time>
      </trkpt>
      <trkpt lat="49.70205" lon="-1.83744">
        <ele>31.699219</ele>
        <time>2019-09-02T12:00:26Z</time>
      </trkpt>
      <trkpt lat="49.70201" lon="-1.83759">
        <ele>31.796875</ele>
        <time>2019-09-02T12:00:31Z</time>
      </trkpt>
      <trkpt lat="49.70197" lon="-1.83786">
        <ele>33.5</ele>
        <time>2019-09-02T12:00:39Z</time>
      </trkpt>
      <trkpt lat="49.70191" lon="-1.83801">
        <ele>34.5</ele>
        <time>2019-09-02T12:00:44Z</time>
      </trkpt>
      <trkpt lat="49.70181" lon="-1.83827">
        <ele>35.796875</ele>
        <time>2019-09-02T12:00:53Z</time>
      </trkpt>
      <trkpt lat="49.7017" lon="-1.8385">
        <ele>37.296875</ele>
        <time>2019-09-02T12:01:01Z</time>
      </trkpt>
      <trkpt lat="49.70152" lon="-1.83887">
        <ele>38.796875</ele>
        <time>2019-09-02T12:01:14Z</time>
      </trkpt>
      <trkpt lat="49.70149" lon="-1.839">
        <ele>41.796875</ele>
        <time>2019-09-02T12:01:18Z</time>
      </trkpt>
      <trkpt lat="49.70122" lon="-1.83988">
        <ele>47.199219</ele>
        <time>2019-09-02T12:01:48Z</time>
      </trkpt>
      <trkpt lat="49.70117" lon="-1.84001">
        <ele>48.296875</ele>
        <time>2019-09-02T12:01:53Z</time>
      </trkpt>
      <trkpt lat="49.70113" lon="-1.84016">
        <ele>49.097656</ele>
        <time>2019-09-02T12:01:58Z</time>
      </trkpt>
      <trkpt lat="49.70105" lon="-1.84047">
        <ele>51.398438</ele>
        <time>2019-09-02T12:02:08Z</time>
      </trkpt>
      <trkpt lat="49.70099" lon="-1.84061">
        <ele>53.097656</ele>
        <time>2019-09-02T12:02:13Z</time>
      </trkpt>
      <trkpt lat="49.70093" lon="-1.84072">
        <ele>52.5</ele>
        <time>2019-09-02T12:02:18Z</time>
      </trkpt>
      <trkpt lat="49.70093" lon="-1.84087">
        <ele>50.5</ele>
        <time>2019-09-02T12:02:44Z</time>
      </trkpt>
      <trkpt lat="49.70103" lon="-1.84092">
        <ele>48.296875</ele>
        <time>2019-09-02T12:02:47Z</time>
      </trkpt>
      <trkpt lat="49.70128" lon="-1.84108">
        <ele>43</ele>
        <time>2019-09-02T12:02:51Z</time>
      </trkpt>
      <trkpt lat="49.70143" lon="-1.84122">
        <ele>40.296875</ele>
        <time>2019-09-02T12:02:53Z</time>
      </trkpt>
      <trkpt lat="49.70157" lon="-1.84136">
        <ele>37.796875</ele>
        <time>2019-09-02T12:02:55Z</time>
      </trkpt>
      <trkpt lat="49.70168" lon="-1.8415">
        <ele>35.5</ele>
        <time>2019-09-02T12:02:57Z</time>
      </trkpt>
      <trkpt lat="49.70178" lon="-1.84163">
        <ele>33.296875</ele>
        <time>2019-09-02T12:02:59Z</time>
      </trkpt>
      <trkpt lat="49.70186" lon="-1.84177">
        <ele>31.199219</ele>
        <time>2019-09-02T12:03:01Z</time>
      </trkpt>
      <trkpt lat="49.70193" lon="-1.84198">
        <ele>29.199219</ele>
        <time>2019-09-02T12:03:03Z</time>
      </trkpt>
      <trkpt lat="49.70198" lon="-1.84221">
        <ele>27.5</ele>
        <time>2019-09-02T12:03:05Z</time>
      </trkpt>
      <trkpt lat="49.70202" lon="-1.84243">
        <ele>25.898438</ele>
        <time>2019-09-02T12:03:07Z</time>
      </trkpt>
      <trkpt lat="49.70203" lon="-1.84262">
        <ele>24.199219</ele>
        <time>2019-09-02T12:03:09Z</time>
      </trkpt>
      <trkpt lat="49.70204" lon="-1.8428">
        <ele>22.5</ele>
        <time>2019-09-02T12:03:11Z</time>
      </trkpt>
      <trkpt lat="49.70204" lon="-1.84296">
        <ele>20.796875</ele>
        <time>2019-09-02T12:03:13Z</time>
      </trkpt>
      <trkpt lat="49.70205" lon="-1.84311">
        <ele>18.597656</ele>
        <time>2019-09-02T12:03:15Z</time>
      </trkpt>
      <trkpt lat="49.70207" lon="-1.84329">
        <ele>17.199219</ele>
        <time>2019-09-02T12:03:18Z</time>
      </trkpt>
      <trkpt lat="49.70207" lon="-1.84344">
        <ele>18.296875</ele>
        <time>2019-09-02T12:03:27Z</time>
      </trkpt>
      <trkpt lat="49.70198" lon="-1.84355">
        <ele>19.199219</ele>
        <time>2019-09-02T12:03:32Z</time>
      </trkpt>
      <trkpt lat="49.70188" lon="-1.8436">
        <ele>19.898438</ele>
        <time>2019-09-02T12:03:36Z</time>
      </trkpt>
      <trkpt lat="49.70176" lon="-1.84362">
        <ele>20.398438</ele>
        <time>2019-09-02T12:03:40Z</time>
      </trkpt>
      <trkpt lat="49.70157" lon="-1.84363">
        <ele>21.296875</ele>
        <time>2019-09-02T12:03:46Z</time>
      </trkpt>
      <trkpt lat="49.70137" lon="-1.84363">
        <ele>23.898438</ele>
        <time>2019-09-02T12:03:52Z</time>
      </trkpt>
      <trkpt lat="49.70106" lon="-1.84358">
        <ele>26.597656</ele>
        <time>2019-09-02T12:04:03Z</time>
      </trkpt>
      <trkpt lat="49.70074" lon="-1.84356">
        <ele>30.898438</ele>
        <time>2019-09-02T12:04:17Z</time>
      </trkpt>
      <trkpt lat="49.69985" lon="-1.84361">
        <ele>36.398438</ele>
        <time>2019-09-02T12:04:56Z</time>
      </trkpt>
      <trkpt lat="49.6992" lon="-1.84376">
        <ele>40.796875</ele>
        <time>2019-09-02T12:05:24Z</time>
      </trkpt>
      <trkpt lat="49.69834" lon="-1.84404">
        <ele>44.796875</ele>
        <time>2019-09-02T12:06:01Z</time>
      </trkpt>
      <trkpt lat="49.69824" lon="-1.8441">
        <ele>45.199219</ele>
        <time>2019-09-02T12:06:05Z</time>
      </trkpt>
      <trkpt lat="49.69808" lon="-1.84424">
        <ele>44.199219</ele>
        <time>2019-09-02T12:06:12Z</time>
      </trkpt>
      <trkpt lat="49.69798" lon="-1.8443">
        <ele>43.898438</ele>
        <time>2019-09-02T12:06:17Z</time>
      </trkpt>
      <trkpt lat="49.69777" lon="-1.8444">
        <ele>44.296875</ele>
        <time>2019-09-02T12:06:25Z</time>
      </trkpt>
      <trkpt lat="49.69767" lon="-1.84444">
        <ele>44.699219</ele>
        <time>2019-09-02T12:06:29Z</time>
      </trkpt>
      <trkpt lat="49.69655" lon="-1.84477">
        <ele>49.699219</ele>
        <time>2019-09-02T12:07:09Z</time>
      </trkpt>
      <trkpt lat="49.69634" lon="-1.84478">
        <ele>50.597656</ele>
        <time>2019-09-02T12:07:17Z</time>
      </trkpt>
      <trkpt lat="49.69624" lon="-1.84477">
        <ele>51.398438</ele>
        <time>2019-09-02T12:07:21Z</time>
      </trkpt>
      <trkpt lat="49.69614" lon="-1.84468">
        <ele>51.699219</ele>
        <time>2019-09-02T12:07:25Z</time>
      </trkpt>
      <trkpt lat="49.69606" lon="-1.84458">
        <ele>52.296875</ele>
        <time>2019-09-02T12:07:28Z</time>
      </trkpt>
      <trkpt lat="49.69598" lon="-1.84449">
        <ele>53.097656</ele>
        <time>2019-09-02T12:07:31Z</time>
      </trkpt>
      <trkpt lat="49.69589" lon="-1.84445">
        <ele>53.199219</ele>
        <time>2019-09-02T12:07:34Z</time>
      </trkpt>
      <trkpt lat="49.69578" lon="-1.84445">
        <ele>53.5</ele>
        <time>2019-09-02T12:07:38Z</time>
      </trkpt>
      <trkpt lat="49.69567" lon="-1.84447">
        <ele>53.5</ele>
        <time>2019-09-02T12:07:42Z</time>
      </trkpt>
      <trkpt lat="49.69546" lon="-1.8445">
        <ele>55.398438</ele>
        <time>2019-09-02T12:07:49Z</time>
      </trkpt>
      <trkpt lat="49.69536" lon="-1.84449">
        <ele>55.898438</ele>
        <time>2019-09-02T12:07:52Z</time>
      </trkpt>
      <trkpt lat="49.69483" lon="-1.84446">
        <ele>54.296875</ele>
        <time>2019-09-02T12:08:07Z</time>
      </trkpt>
      <trkpt lat="49.69444" lon="-1.84446">
        <ele>54.097656</ele>
        <time>2019-09-02T12:08:19Z</time>
      </trkpt>
      <trkpt lat="49.69435" lon="-1.8445">
        <ele>54.296875</ele>
        <time>2019-09-02T12:08:22Z</time>
      </trkpt>
      <trkpt lat="49.69426" lon="-1.84462">
        <ele>53.699219</ele>
        <time>2019-09-02T12:08:26Z</time>
      </trkpt>
      <trkpt lat="49.69411" lon="-1.84482">
        <ele>52.097656</ele>
        <time>2019-09-02T12:08:34Z</time>
      </trkpt>
      <trkpt lat="49.69401" lon="-1.84491">
        <ele>51.097656</ele>
        <time>2019-09-02T12:08:38Z</time>
      </trkpt>
      <trkpt lat="49.69384" lon="-1.84509">
        <ele>52.398438</ele>
        <time>2019-09-02T12:08:45Z</time>
      </trkpt>
      <trkpt lat="49.69366" lon="-1.84529">
        <ele>55.199219</ele>
        <time>2019-09-02T12:08:53Z</time>
      </trkpt>
      <trkpt lat="49.69358" lon="-1.84541">
        <ele>56.398438</ele>
        <time>2019-09-02T12:08:57Z</time>
      </trkpt>
      <trkpt lat="49.6935" lon="-1.84553">
        <ele>55.898438</ele>
        <time>2019-09-02T12:09:01Z</time>
      </trkpt>
      <trkpt lat="49.69344" lon="-1.84564">
        <ele>54.796875</ele>
        <time>2019-09-02T12:09:04Z</time>
      </trkpt>
      <trkpt lat="49.69338" lon="-1.84578">
        <ele>55.5</ele>
        <time>2019-09-02T12:09:08Z</time>
      </trkpt>
      <trkpt lat="49.69315" lon="-1.84634">
        <ele>52</ele>
        <time>2019-09-02T12:09:23Z</time>
      </trkpt>
      <trkpt lat="49.69308" lon="-1.84647">
        <ele>51.5</ele>
        <time>2019-09-02T12:09:27Z</time>
      </trkpt>
      <trkpt lat="49.693" lon="-1.84659">
        <ele>51.597656</ele>
        <time>2019-09-02T12:09:31Z</time>
      </trkpt>
      <trkpt lat="49.69289" lon="-1.84669">
        <ele>52.597656</ele>
        <time>2019-09-02T12:09:35Z</time>
      </trkpt>
      <trkpt lat="49.69281" lon="-1.84676">
        <ele>53.898438</ele>
        <time>2019-09-02T12:09:38Z</time>
      </trkpt>
      <trkpt lat="49.69255" lon="-1.84693">
        <ele>57.796875</ele>
        <time>2019-09-02T12:09:48Z</time>
      </trkpt>
      <trkpt lat="49.69244" lon="-1.84699">
        <ele>59</ele>
        <time>2019-09-02T12:09:52Z</time>
      </trkpt>
      <trkpt lat="49.69169" lon="-1.84735">
        <ele>62.597656</ele>
        <time>2019-09-02T12:10:22Z</time>
      </trkpt>
      <trkpt lat="49.69149" lon="-1.84742">
        <ele>64.699219</ele>
        <time>2019-09-02T12:10:29Z</time>
      </trkpt>
      <trkpt lat="49.6914" lon="-1.84748">
        <ele>67.199219</ele>
        <time>2019-09-02T12:10:34Z</time>
      </trkpt>
      <trkpt lat="49.69129" lon="-1.84752">
        <ele>69.5</ele>
        <time>2019-09-02T12:10:40Z</time>
      </trkpt>
      <trkpt lat="49.69099" lon="-1.84763">
        <ele>72.597656</ele>
        <time>2019-09-02T12:10:58Z</time>
      </trkpt>
      <trkpt lat="49.69091" lon="-1.84774">
        <ele>71</ele>
        <time>2019-09-02T12:11:04Z</time>
      </trkpt>
      <trkpt lat="49.69088" lon="-1.84788">
        <ele>69.796875</ele>
        <time>2019-09-02T12:11:11Z</time>
      </trkpt>
      <trkpt lat="49.69082" lon="-1.84817">
        <ele>71.5</ele>
        <time>2019-09-02T12:11:25Z</time>
      </trkpt>
      <trkpt lat="49.6908" lon="-1.84832">
        <ele>74</ele>
        <time>2019-09-02T12:11:33Z</time>
      </trkpt>
      <trkpt lat="49.69076" lon="-1.84847">
        <ele>74.796875</ele>
        <time>2019-09-02T12:11:40Z</time>
      </trkpt>
      <trkpt lat="49.69074" lon="-1.84862">
        <ele>77.398438</ele>
        <time>2019-09-02T12:11:48Z</time>
      </trkpt>
      <trkpt lat="49.6907" lon="-1.84876">
        <ele>79.898438</ele>
        <time>2019-09-02T12:11:56Z</time>
      </trkpt>
      <trkpt lat="49.69067" lon="-1.84891">
        <ele>81</ele>
        <time>2019-09-02T12:12:03Z</time>
      </trkpt>
      <trkpt lat="49.69062" lon="-1.84906">
        <ele>82.398438</ele>
        <time>2019-09-02T12:12:10Z</time>
      </trkpt>
      <trkpt lat="49.6905" lon="-1.84944">
        <ele>84.699219</ele>
        <time>2019-09-02T12:12:28Z</time>
      </trkpt>
      <trkpt lat="49.69047" lon="-1.84957">
        <ele>86.199219</ele>
        <time>2019-09-02T12:12:34Z</time>
      </trkpt>
      <trkpt lat="49.69041" lon="-1.84984">
        <ele>88.398438</ele>
        <time>2019-09-02T12:12:44Z</time>
      </trkpt>
      <trkpt lat="49.69037" lon="-1.85014">
        <ele>91.097656</ele>
        <time>2019-09-02T12:12:56Z</time>
      </trkpt>
      <trkpt lat="49.69035" lon="-1.85029">
        <ele>95.699219</ele>
        <time>2019-09-02T12:13:02Z</time>
      </trkpt>
      <trkpt lat="49.69032" lon="-1.85042">
        <ele>99.097656</ele>
        <time>2019-09-02T12:13:48Z</time>
      </trkpt>
      <trkpt lat="49.69032" lon="-1.85056">
        <ele>99.5</ele>
        <time>2019-09-02T12:14:14Z</time>
      </trkpt>
      <trkpt lat="49.69032" lon="-1.85072">
        <ele>100.296875</ele>
        <time>2019-09-02T12:14:28Z</time>
      </trkpt>
      <trkpt lat="49.69027" lon="-1.85085">
        <ele>101</ele>
        <time>2019-09-02T12:14:33Z</time>
      </trkpt>
      <trkpt lat="49.6902" lon="-1.85114">
        <ele>102.199219</ele>
        <time>2019-09-02T12:14:44Z</time>
      </trkpt>
      <trkpt lat="49.69012" lon="-1.85143">
        <ele>103.097656</ele>
        <time>2019-09-02T12:14:53Z</time>
      </trkpt>
      <trkpt lat="49.69007" lon="-1.85157">
        <ele>103.199219</ele>
        <time>2019-09-02T12:14:57Z</time>
      </trkpt>
      <trkpt lat="49.69001" lon="-1.85169">
        <ele>102.796875</ele>
        <time>2019-09-02T12:15:01Z</time>
      </trkpt>
      <trkpt lat="49.68994" lon="-1.85177">
        <ele>102.398438</ele>
        <time>2019-09-02T12:15:07Z</time>
      </trkpt>
      <trkpt lat="49.68985" lon="-1.85176">
        <ele>101.898438</ele>
        <time>2019-09-02T12:15:13Z</time>
      </trkpt>
      <trkpt lat="49.68975" lon="-1.8517">
        <ele>101.699219</ele>
        <time>2019-09-02T12:15:17Z</time>
      </trkpt>
      <trkpt lat="49.68948" lon="-1.85154">
        <ele>101.296875</ele>
        <time>2019-09-02T12:15:26Z</time>
      </trkpt>
      <trkpt lat="49.68853" lon="-1.85112">
        <ele>100.699219</ele>
        <time>2019-09-02T12:15:47Z</time>
      </trkpt>
      <trkpt lat="49.68802" lon="-1.85098">
        <ele>101.5</ele>
        <time>2019-09-02T12:15:57Z</time>
      </trkpt>
      <trkpt lat="49.68726" lon="-1.85081">
        <ele>103</ele>
        <time>2019-09-02T12:16:17Z</time>
      </trkpt>
      <trkpt lat="49.68687" lon="-1.85065">
        <ele>101</ele>
        <time>2019-09-02T12:16:25Z</time>
      </trkpt>
      <trkpt lat="49.68676" lon="-1.85065">
        <ele>100.597656</ele>
        <time>2019-09-02T12:16:27Z</time>
      </trkpt>
      <trkpt lat="49.68665" lon="-1.85067">
        <ele>99.398438</ele>
        <time>2019-09-02T12:16:29Z</time>
      </trkpt>
      <trkpt lat="49.68652" lon="-1.85069">
        <ele>98.898438</ele>
        <time>2019-09-02T12:16:32Z</time>
      </trkpt>
      <trkpt lat="49.68581" lon="-1.8509">
        <ele>92.597656</ele>
        <time>2019-09-02T12:16:44Z</time>
      </trkpt>
      <trkpt lat="49.68565" lon="-1.85083">
        <ele>92.296875</ele>
        <time>2019-09-02T12:16:46Z</time>
      </trkpt>
      <trkpt lat="49.68552" lon="-1.85069">
        <ele>92.5</ele>
        <time>2019-09-02T12:16:48Z</time>
      </trkpt>
      <trkpt lat="49.68539" lon="-1.85057">
        <ele>92.597656</ele>
        <time>2019-09-02T12:16:50Z</time>
      </trkpt>
      <trkpt lat="49.68526" lon="-1.85051">
        <ele>92.796875</ele>
        <time>2019-09-02T12:16:52Z</time>
      </trkpt>
      <trkpt lat="49.68513" lon="-1.85051">
        <ele>93.597656</ele>
        <time>2019-09-02T12:16:54Z</time>
      </trkpt>
      <trkpt lat="49.68501" lon="-1.85052">
        <ele>94.296875</ele>
        <time>2019-09-02T12:16:56Z</time>
      </trkpt>
      <trkpt lat="49.68459" lon="-1.85059">
        <ele>96.898438</ele>
        <time>2019-09-02T12:17:04Z</time>
      </trkpt>
      <trkpt lat="49.68446" lon="-1.85059">
        <ele>97.597656</ele>
        <time>2019-09-02T12:17:07Z</time>
      </trkpt>
      <trkpt lat="49.68437" lon="-1.8505">
        <ele>97.597656</ele>
        <time>2019-09-02T12:17:10Z</time>
      </trkpt>
      <trkpt lat="49.68429" lon="-1.85038">
        <ele>97.796875</ele>
        <time>2019-09-02T12:17:13Z</time>
      </trkpt>
      <trkpt lat="49.68413" lon="-1.85018">
        <ele>97.898438</ele>
        <time>2019-09-02T12:17:19Z</time>
      </trkpt>
      <trkpt lat="49.68397" lon="-1.85001">
        <ele>97</ele>
        <time>2019-09-02T12:17:27Z</time>
      </trkpt>
      <trkpt lat="49.68364" lon="-1.84967">
        <ele>97.398438</ele>
        <time>2019-09-02T12:17:42Z</time>
      </trkpt>
      <trkpt lat="49.68357" lon="-1.84954">
        <ele>99.296875</ele>
        <time>2019-09-02T12:17:46Z</time>
      </trkpt>
      <trkpt lat="49.68336" lon="-1.84923">
        <ele>103.5</ele>
        <time>2019-09-02T12:17:55Z</time>
      </trkpt>
      <trkpt lat="49.6832" lon="-1.84903">
        <ele>105.5</ele>
        <time>2019-09-02T12:18:01Z</time>
      </trkpt>
      <trkpt lat="49.68311" lon="-1.84894">
        <ele>106.699219</ele>
        <time>2019-09-02T12:18:04Z</time>
      </trkpt>
      <trkpt lat="49.68302" lon="-1.84886">
        <ele>108.597656</ele>
        <time>2019-09-02T12:18:07Z</time>
      </trkpt>
      <trkpt lat="49.68292" lon="-1.84878">
        <ele>110.597656</ele>
        <time>2019-09-02T12:18:10Z</time>
      </trkpt>
      <trkpt lat="49.68271" lon="-1.84864">
        <ele>114.398438</ele>
        <time>2019-09-02T12:18:16Z</time>
      </trkpt>
      <trkpt lat="49.68232" lon="-1.84842">
        <ele>117.898438</ele>
        <time>2019-09-02T12:18:28Z</time>
      </trkpt>
      <trkpt lat="49.68222" lon="-1.84837">
        <ele>118.597656</ele>
        <time>2019-09-02T12:18:31Z</time>
      </trkpt>
      <trkpt lat="49.68211" lon="-1.84833">
        <ele>118.898438</ele>
        <time>2019-09-02T12:18:34Z</time>
      </trkpt>
      <trkpt lat="49.68201" lon="-1.8483">
        <ele>119.296875</ele>
        <time>2019-09-02T12:18:37Z</time>
      </trkpt>
      <trkpt lat="49.68192" lon="-1.84825">
        <ele>120</ele>
        <time>2019-09-02T12:18:40Z</time>
      </trkpt>
      <trkpt lat="49.68174" lon="-1.84814">
        <ele>121.597656</ele>
        <time>2019-09-02T12:18:46Z</time>
      </trkpt>
      <trkpt lat="49.68166" lon="-1.84807">
        <ele>122</ele>
        <time>2019-09-02T12:18:49Z</time>
      </trkpt>
      <trkpt lat="49.68156" lon="-1.84799">
        <ele>122.796875</ele>
        <time>2019-09-02T12:18:53Z</time>
      </trkpt>
      <trkpt lat="49.68147" lon="-1.84795">
        <ele>123.796875</ele>
        <time>2019-09-02T12:18:57Z</time>
      </trkpt>
      <trkpt lat="49.68138" lon="-1.84795">
        <ele>125.097656</ele>
        <time>2019-09-02T12:19:01Z</time>
      </trkpt>
      <trkpt lat="49.68129" lon="-1.84798">
        <ele>126.699219</ele>
        <time>2019-09-02T12:19:05Z</time>
      </trkpt>
      <trkpt lat="49.68091" lon="-1.84812">
        <ele>131</ele>
        <time>2019-09-02T12:19:21Z</time>
      </trkpt>
      <trkpt lat="49.68082" lon="-1.84817">
        <ele>132.398438</ele>
        <time>2019-09-02T12:19:25Z</time>
      </trkpt>
      <trkpt lat="49.68074" lon="-1.84822">
        <ele>133.097656</ele>
        <time>2019-09-02T12:19:29Z</time>
      </trkpt>
      <trkpt lat="49.68064" lon="-1.84829">
        <ele>133.699219</ele>
        <time>2019-09-02T12:19:34Z</time>
      </trkpt>
      <trkpt lat="49.68046" lon="-1.84842">
        <ele>136.199219</ele>
        <time>2019-09-02T12:19:44Z</time>
      </trkpt>
      <trkpt lat="49.68036" lon="-1.84844">
        <ele>136.398438</ele>
        <time>2019-09-02T12:20:07Z</time>
      </trkpt>
      <trkpt lat="49.68032" lon="-1.84831">
        <ele>136.199219</ele>
        <time>2019-09-02T12:20:11Z</time>
      </trkpt>
      <trkpt lat="49.68031" lon="-1.84813">
        <ele>135.796875</ele>
        <time>2019-09-02T12:20:15Z</time>
      </trkpt>
      <trkpt lat="49.68033" lon="-1.84794">
        <ele>135.5</ele>
        <time>2019-09-02T12:20:18Z</time>
      </trkpt>
      <trkpt lat="49.6804" lon="-1.84742">
        <ele>132.796875</ele>
        <time>2019-09-02T12:20:24Z</time>
      </trkpt>
      <trkpt lat="49.68084" lon="-1.84446">
        <ele>110.199219</ele>
        <time>2019-09-02T12:20:45Z</time>
      </trkpt>
      <trkpt lat="49.68087" lon="-1.84391">
        <ele>107.199219</ele>
        <time>2019-09-02T12:20:48Z</time>
      </trkpt>
      <trkpt lat="49.68086" lon="-1.84316">
        <ele>103.597656</ele>
        <time>2019-09-02T12:20:52Z</time>
      </trkpt>
      <trkpt lat="49.68084" lon="-1.84262">
        <ele>102.699219</ele>
        <time>2019-09-02T12:20:55Z</time>
      </trkpt>
      <trkpt lat="49.6808" lon="-1.84231">
        <ele>103.199219</ele>
        <time>2019-09-02T12:20:57Z</time>
      </trkpt>
      <trkpt lat="49.68074" lon="-1.84191">
        <ele>106.097656</ele>
        <time>2019-09-02T12:21:00Z</time>
      </trkpt>
      <trkpt lat="49.68064" lon="-1.8414">
        <ele>110.699219</ele>
        <time>2019-09-02T12:21:07Z</time>
      </trkpt>
      <trkpt lat="49.68062" lon="-1.84125">
        <ele>112.199219</ele>
        <time>2019-09-02T12:21:10Z</time>
      </trkpt>
      <trkpt lat="49.68061" lon="-1.8411">
        <ele>113.597656</ele>
        <time>2019-09-02T12:21:13Z</time>
      </trkpt>
      <trkpt lat="49.68061" lon="-1.84095">
        <ele>114.796875</ele>
        <time>2019-09-02T12:21:16Z</time>
      </trkpt>
      <trkpt lat="49.68062" lon="-1.8408">
        <ele>115.796875</ele>
        <time>2019-09-02T12:21:19Z</time>
      </trkpt>
      <trkpt lat="49.68068" lon="-1.84036">
        <ele>117.097656</ele>
        <time>2019-09-02T12:21:28Z</time>
      </trkpt>
      <trkpt lat="49.68078" lon="-1.83975">
        <ele>115.5</ele>
        <time>2019-09-02T12:21:42Z</time>
      </trkpt>
      <trkpt lat="49.68098" lon="-1.83854">
        <ele>121.597656</ele>
        <time>2019-09-02T12:22:10Z</time>
      </trkpt>
      <trkpt lat="49.68098" lon="-1.83836">
        <ele>123</ele>
        <time>2019-09-02T12:22:14Z</time>
      </trkpt>
      <trkpt lat="49.68096" lon="-1.83819">
        <ele>124.097656</ele>
        <time>2019-09-02T12:22:18Z</time>
      </trkpt>
      <trkpt lat="49.68092" lon="-1.83803">
        <ele>125.296875</ele>
        <time>2019-09-02T12:22:22Z</time>
      </trkpt>
      <trkpt lat="49.68088" lon="-1.8379">
        <ele>126.296875</ele>
        <time>2019-09-02T12:22:27Z</time>
      </trkpt>
      <trkpt lat="49.68074" lon="-1.83744">
        <ele>130</ele>
        <time>2019-09-02T12:22:40Z</time>
      </trkpt>
      <trkpt lat="49.68068" lon="-1.83729">
        <ele>131</ele>
        <time>2019-09-02T12:22:44Z</time>
      </trkpt>
      <trkpt lat="49.68062" lon="-1.83718">
        <ele>132</ele>
        <time>2019-09-02T12:22:47Z</time>
      </trkpt>
      <trkpt lat="49.68035" lon="-1.83672">
        <ele>135.5</ele>
        <time>2019-09-02T12:23:00Z</time>
      </trkpt>
      <trkpt lat="49.67973" lon="-1.83577">
        <ele>142.5</ele>
        <time>2019-09-02T12:23:28Z</time>
      </trkpt>
      <trkpt lat="49.67968" lon="-1.83565">
        <ele>143.296875</ele>
        <time>2019-09-02T12:23:31Z</time>
      </trkpt>
      <trkpt lat="49.67954" lon="-1.83538">
        <ele>142.5</ele>
        <time>2019-09-02T12:23:39Z</time>
      </trkpt>
      <trkpt lat="49.67948" lon="-1.83524">
        <ele>142.699219</ele>
        <time>2019-09-02T12:23:43Z</time>
      </trkpt>
      <trkpt lat="49.67936" lon="-1.83493">
        <ele>144.699219</ele>
        <time>2019-09-02T12:23:51Z</time>
      </trkpt>
      <trkpt lat="49.67892" lon="-1.83359">
        <ele>145.097656</ele>
        <time>2019-09-02T12:24:20Z</time>
      </trkpt>
      <trkpt lat="49.67857" lon="-1.83255">
        <ele>146.097656</ele>
        <time>2019-09-02T12:24:41Z</time>
      </trkpt>
      <trkpt lat="49.67851" lon="-1.83241">
        <ele>146.398438</ele>
        <time>2019-09-02T12:24:44Z</time>
      </trkpt>
      <trkpt lat="49.67844" lon="-1.83231">
        <ele>146.398438</ele>
        <time>2019-09-02T12:24:47Z</time>
      </trkpt>
      <trkpt lat="49.67827" lon="-1.8321">
        <ele>145.699219</ele>
        <time>2019-09-02T12:24:55Z</time>
      </trkpt>
      <trkpt lat="49.67821" lon="-1.83199">
        <ele>147.398438</ele>
        <time>2019-09-02T12:24:59Z</time>
      </trkpt>
      <trkpt lat="49.6782" lon="-1.83184">
        <ele>146.597656</ele>
        <time>2019-09-02T12:26:23Z</time>
      </trkpt>
      <trkpt lat="49.67831" lon="-1.83174">
        <ele>145.597656</ele>
        <time>2019-09-02T12:26:27Z</time>
      </trkpt>
      <trkpt lat="49.67853" lon="-1.83158">
        <ele>143.699219</ele>
        <time>2019-09-02T12:26:32Z</time>
      </trkpt>
      <trkpt lat="49.67864" lon="-1.83152">
        <ele>142.398438</ele>
        <time>2019-09-02T12:26:34Z</time>
      </trkpt>
      <trkpt lat="49.67981" lon="-1.83083">
        <ele>132.597656</ele>
        <time>2019-09-02T12:26:49Z</time>
      </trkpt>
      <trkpt lat="49.68127" lon="-1.83025">
        <ele>127.5</ele>
        <time>2019-09-02T12:27:05Z</time>
      </trkpt>
      <trkpt lat="49.68176" lon="-1.83008">
        <ele>125.898438</ele>
        <time>2019-09-02T12:27:11Z</time>
      </trkpt>
      <trkpt lat="49.68192" lon="-1.83">
        <ele>125</ele>
        <time>2019-09-02T12:27:13Z</time>
      </trkpt>
      <trkpt lat="49.68289" lon="-1.8294">
        <ele>119.097656</ele>
        <time>2019-09-02T12:27:25Z</time>
      </trkpt>
      <trkpt lat="49.68363" lon="-1.82884">
        <ele>113.699219</ele>
        <time>2019-09-02T12:27:33Z</time>
      </trkpt>
      <trkpt lat="49.68381" lon="-1.82868">
        <ele>112.398438</ele>
        <time>2019-09-02T12:27:35Z</time>
      </trkpt>
      <trkpt lat="49.68424" lon="-1.82826">
        <ele>109.398438</ele>
        <time>2019-09-02T12:27:40Z</time>
      </trkpt>
      <trkpt lat="49.68483" lon="-1.82786">
        <ele>104.597656</ele>
        <time>2019-09-02T12:27:47Z</time>
      </trkpt>
      <trkpt lat="49.68496" lon="-1.82772">
        <ele>103.199219</ele>
        <time>2019-09-02T12:27:49Z</time>
      </trkpt>
      <trkpt lat="49.68502" lon="-1.82751">
        <ele>102.199219</ele>
        <time>2019-09-02T12:27:51Z</time>
      </trkpt>
      <trkpt lat="49.685" lon="-1.82728">
        <ele>101.398438</ele>
        <time>2019-09-02T12:27:53Z</time>
      </trkpt>
      <trkpt lat="49.68494" lon="-1.82709">
        <ele>100.898438</ele>
        <time>2019-09-02T12:27:55Z</time>
      </trkpt>
      <trkpt lat="49.68479" lon="-1.82666">
        <ele>98.898438</ele>
        <time>2019-09-02T12:28:03Z</time>
      </trkpt>
      <trkpt lat="49.68473" lon="-1.82653">
        <ele>98.296875</ele>
        <time>2019-09-02T12:28:06Z</time>
      </trkpt>
      <trkpt lat="49.68443" lon="-1.82591">
        <ele>94.597656</ele>
        <time>2019-09-02T12:28:15Z</time>
      </trkpt>
      <trkpt lat="49.68416" lon="-1.82542">
        <ele>92</ele>
        <time>2019-09-02T12:28:20Z</time>
      </trkpt>
      <trkpt lat="49.68403" lon="-1.82522">
        <ele>91.097656</ele>
        <time>2019-09-02T12:28:22Z</time>
      </trkpt>
      <trkpt lat="49.68383" lon="-1.82495">
        <ele>91.296875</ele>
        <time>2019-09-02T12:28:25Z</time>
      </trkpt>
      <trkpt lat="49.68373" lon="-1.82476">
        <ele>92.398438</ele>
        <time>2019-09-02T12:28:27Z</time>
      </trkpt>
      <trkpt lat="49.68367" lon="-1.82457">
        <ele>93.597656</ele>
        <time>2019-09-02T12:28:29Z</time>
      </trkpt>
      <trkpt lat="49.68363" lon="-1.82442">
        <ele>94.796875</ele>
        <time>2019-09-02T12:28:31Z</time>
      </trkpt>
      <trkpt lat="49.68351" lon="-1.82393">
        <ele>97.796875</ele>
        <time>2019-09-02T12:28:41Z</time>
      </trkpt>
      <trkpt lat="49.68346" lon="-1.82378">
        <ele>99.199219</ele>
        <time>2019-09-02T12:28:45Z</time>
      </trkpt>
      <trkpt lat="49.68339" lon="-1.82363">
        <ele>100.296875</ele>
        <time>2019-09-02T12:28:49Z</time>
      </trkpt>
      <trkpt lat="49.68308" lon="-1.82298">
        <ele>105</ele>
        <time>2019-09-02T12:29:09Z</time>
      </trkpt>
      <trkpt lat="49.68275" lon="-1.82239">
        <ele>108.097656</ele>
        <time>2019-09-02T12:29:27Z</time>
      </trkpt>
      <trkpt lat="49.68267" lon="-1.82229">
        <ele>108.296875</ele>
        <time>2019-09-02T12:29:30Z</time>
      </trkpt>
      <trkpt lat="49.68259" lon="-1.82224">
        <ele>108.597656</ele>
        <time>2019-09-02T12:29:33Z</time>
      </trkpt>
      <trkpt lat="49.68249" lon="-1.82213">
        <ele>108.699219</ele>
        <time>2019-09-02T12:29:37Z</time>
      </trkpt>
      <trkpt lat="49.68245" lon="-1.822">
        <ele>108.699219</ele>
        <time>2019-09-02T12:29:40Z</time>
      </trkpt>
      <trkpt lat="49.68236" lon="-1.82171">
        <ele>108.597656</ele>
        <time>2019-09-02T12:29:48Z</time>
      </trkpt>
      <trkpt lat="49.6823" lon="-1.82157">
        <ele>108.5</ele>
        <time>2019-09-02T12:29:51Z</time>
      </trkpt>
      <trkpt lat="49.68226" lon="-1.82141">
        <ele>108.199219</ele>
        <time>2019-09-02T12:29:54Z</time>
      </trkpt>
      <trkpt lat="49.68204" lon="-1.82062">
        <ele>106.597656</ele>
        <time>2019-09-02T12:30:06Z</time>
      </trkpt>
      <trkpt lat="49.68198" lon="-1.82048">
        <ele>107.398438</ele>
        <time>2019-09-02T12:30:08Z</time>
      </trkpt>
      <trkpt lat="49.6819" lon="-1.82041">
        <ele>108.796875</ele>
        <time>2019-09-02T12:30:10Z</time>
      </trkpt>
      <trkpt lat="49.68179" lon="-1.82043">
        <ele>110.296875</ele>
        <time>2019-09-02T12:30:13Z</time>
      </trkpt>
      <trkpt lat="49.68168" lon="-1.82042">
        <ele>111.597656</ele>
        <time>2019-09-02T12:30:17Z</time>
      </trkpt>
      <trkpt lat="49.68158" lon="-1.82042">
        <ele>112.796875</ele>
        <time>2019-09-02T12:30:21Z</time>
      </trkpt>
      <trkpt lat="49.68148" lon="-1.82037">
        <ele>114</ele>
        <time>2019-09-02T12:30:25Z</time>
      </trkpt>
      <trkpt lat="49.68137" lon="-1.82034">
        <ele>115.097656</ele>
        <time>2019-09-02T12:30:29Z</time>
      </trkpt>
      <trkpt lat="49.68126" lon="-1.82028">
        <ele>116.097656</ele>
        <time>2019-09-02T12:30:33Z</time>
      </trkpt>
      <trkpt lat="49.68115" lon="-1.82025">
        <ele>117</ele>
        <time>2019-09-02T12:30:37Z</time>
      </trkpt>
      <trkpt lat="49.68104" lon="-1.82023">
        <ele>117.796875</ele>
        <time>2019-09-02T12:30:41Z</time>
      </trkpt>
      <trkpt lat="49.68092" lon="-1.82023">
        <ele>118.5</ele>
        <time>2019-09-02T12:30:45Z</time>
      </trkpt>
      <trkpt lat="49.68081" lon="-1.82025">
        <ele>119.296875</ele>
        <time>2019-09-02T12:30:49Z</time>
      </trkpt>
      <trkpt lat="49.6807" lon="-1.82028">
        <ele>120.097656</ele>
        <time>2019-09-02T12:30:53Z</time>
      </trkpt>
      <trkpt lat="49.68051" lon="-1.82036">
        <ele>121.5</ele>
        <time>2019-09-02T12:31:01Z</time>
      </trkpt>
      <trkpt lat="49.68043" lon="-1.82041">
        <ele>122.199219</ele>
        <time>2019-09-02T12:31:05Z</time>
      </trkpt>
      <trkpt lat="49.68034" lon="-1.82047">
        <ele>123.199219</ele>
        <time>2019-09-02T12:31:09Z</time>
      </trkpt>
      <trkpt lat="49.68025" lon="-1.82054">
        <ele>124.199219</ele>
        <time>2019-09-02T12:31:14Z</time>
      </trkpt>
      <trkpt lat="49.67999" lon="-1.82076">
        <ele>126.796875</ele>
        <time>2019-09-02T12:31:29Z</time>
      </trkpt>
      <trkpt lat="49.67791" lon="-1.82266">
        <ele>130.597656</ele>
        <time>2019-09-02T12:32:50Z</time>
      </trkpt>
      <trkpt lat="49.67772" lon="-1.82277">
        <ele>131.097656</ele>
        <time>2019-09-02T12:32:56Z</time>
      </trkpt>
      <trkpt lat="49.67763" lon="-1.8228">
        <ele>130.796875</ele>
        <time>2019-09-02T12:32:59Z</time>
      </trkpt>
      <trkpt lat="49.67753" lon="-1.82278">
        <ele>129.699219</ele>
        <time>2019-09-02T12:33:03Z</time>
      </trkpt>
      <trkpt lat="49.67746" lon="-1.82269">
        <ele>128.898438</ele>
        <time>2019-09-02T12:33:10Z</time>
      </trkpt>
      <trkpt lat="49.67742" lon="-1.82256">
        <ele>127.898438</ele>
        <time>2019-09-02T12:33:18Z</time>
      </trkpt>
      <trkpt lat="49.67735" lon="-1.82244">
        <ele>126.699219</ele>
        <time>2019-09-02T12:33:21Z</time>
      </trkpt>
      <trkpt lat="49.67712" lon="-1.82201">
        <ele>122.597656</ele>
        <time>2019-09-02T12:33:27Z</time>
      </trkpt>
      <trkpt lat="49.67701" lon="-1.8218">
        <ele>120.597656</ele>
        <time>2019-09-02T12:33:29Z</time>
      </trkpt>
      <trkpt lat="49.67662" lon="-1.82097">
        <ele>113</ele>
        <time>2019-09-02T12:33:36Z</time>
      </trkpt>
      <trkpt lat="49.67654" lon="-1.82076">
        <ele>111.296875</ele>
        <time>2019-09-02T12:33:38Z</time>
      </trkpt>
      <trkpt lat="49.67652" lon="-1.82058">
        <ele>108.796875</ele>
        <time>2019-09-02T12:33:40Z</time>
      </trkpt>
      <trkpt lat="49.67657" lon="-1.8204">
        <ele>106.597656</ele>
        <time>2019-09-02T12:33:42Z</time>
      </trkpt>
      <trkpt lat="49.67668" lon="-1.82024">
        <ele>104.398438</ele>
        <time>2019-09-02T12:33:44Z</time>
      </trkpt>
      <trkpt lat="49.67681" lon="-1.82013">
        <ele>101.699219</ele>
        <time>2019-09-02T12:33:46Z</time>
      </trkpt>
      <trkpt lat="49.67692" lon="-1.82002">
        <ele>99.699219</ele>
        <time>2019-09-02T12:33:48Z</time>
      </trkpt>
      <trkpt lat="49.67701" lon="-1.81986">
        <ele>97.796875</ele>
        <time>2019-09-02T12:33:50Z</time>
      </trkpt>
      <trkpt lat="49.67705" lon="-1.81964">
        <ele>95.398438</ele>
        <time>2019-09-02T12:33:52Z</time>
      </trkpt>
      <trkpt lat="49.67707" lon="-1.81941">
        <ele>92.398438</ele>
        <time>2019-09-02T12:33:54Z</time>
      </trkpt>
      <trkpt lat="49.67715" lon="-1.81918">
        <ele>90.898438</ele>
        <time>2019-09-02T12:33:56Z</time>
      </trkpt>
      <trkpt lat="49.6772" lon="-1.81906">
        <ele>89.296875</ele>
        <time>2019-09-02T12:33:57Z</time>
      </trkpt>
      <trkpt lat="49.67804" lon="-1.81706">
        <ele>75.699219</ele>
        <time>2019-09-02T12:34:11Z</time>
      </trkpt>
      <trkpt lat="49.67809" lon="-1.81692">
        <ele>74.699219</ele>
        <time>2019-09-02T12:34:12Z</time>
      </trkpt>
      <trkpt lat="49.67813" lon="-1.81677">
        <ele>73.796875</ele>
        <time>2019-09-02T12:34:13Z</time>
      </trkpt>
      <trkpt lat="49.67816" lon="-1.81662">
        <ele>72.796875</ele>
        <time>2019-09-02T12:34:14Z</time>
      </trkpt>
      <trkpt lat="49.67819" lon="-1.81648">
        <ele>70.898438</ele>
        <time>2019-09-02T12:34:15Z</time>
      </trkpt>
      <trkpt lat="49.67821" lon="-1.81622">
        <ele>70.398438</ele>
        <time>2019-09-02T12:34:17Z</time>
      </trkpt>
      <trkpt lat="49.6782" lon="-1.81596">
        <ele>70.097656</ele>
        <time>2019-09-02T12:34:19Z</time>
      </trkpt>
      <trkpt lat="49.67818" lon="-1.81573">
        <ele>69.597656</ele>
        <time>2019-09-02T12:34:21Z</time>
      </trkpt>
      <trkpt lat="49.67818" lon="-1.81551">
        <ele>69.699219</ele>
        <time>2019-09-02T12:34:23Z</time>
      </trkpt>
      <trkpt lat="49.67822" lon="-1.81533">
        <ele>69.597656</ele>
        <time>2019-09-02T12:34:25Z</time>
      </trkpt>
      <trkpt lat="49.67828" lon="-1.81519">
        <ele>70.199219</ele>
        <time>2019-09-02T12:34:27Z</time>
      </trkpt>
      <trkpt lat="49.67835" lon="-1.81508">
        <ele>71.796875</ele>
        <time>2019-09-02T12:34:29Z</time>
      </trkpt>
      <trkpt lat="49.67846" lon="-1.81497">
        <ele>73.597656</ele>
        <time>2019-09-02T12:34:32Z</time>
      </trkpt>
      <trkpt lat="49.67856" lon="-1.81489">
        <ele>75.898438</ele>
        <time>2019-09-02T12:34:35Z</time>
      </trkpt>
      <trkpt lat="49.67866" lon="-1.81484">
        <ele>77.796875</ele>
        <time>2019-09-02T12:34:39Z</time>
      </trkpt>
      <trkpt lat="49.67876" lon="-1.81481">
        <ele>79.199219</ele>
        <time>2019-09-02T12:34:43Z</time>
      </trkpt>
      <trkpt lat="49.67886" lon="-1.8148">
        <ele>81</ele>
        <time>2019-09-02T12:34:47Z</time>
      </trkpt>
      <trkpt lat="49.67896" lon="-1.8148">
        <ele>82.699219</ele>
        <time>2019-09-02T12:34:51Z</time>
      </trkpt>
      <trkpt lat="49.67936" lon="-1.81483">
        <ele>89.597656</ele>
        <time>2019-09-02T12:35:09Z</time>
      </trkpt>
      <trkpt lat="49.67947" lon="-1.81481">
        <ele>90.199219</ele>
        <time>2019-09-02T12:35:14Z</time>
      </trkpt>
      <trkpt lat="49.67957" lon="-1.81477">
        <ele>91.199219</ele>
        <time>2019-09-02T12:35:19Z</time>
      </trkpt>
      <trkpt lat="49.67968" lon="-1.81473">
        <ele>91.699219</ele>
        <time>2019-09-02T12:35:24Z</time>
      </trkpt>
      <trkpt lat="49.67985" lon="-1.81463">
        <ele>92.296875</ele>
        <time>2019-09-02T12:35:32Z</time>
      </trkpt>
      <trkpt lat="49.67995" lon="-1.81457">
        <ele>92.597656</ele>
        <time>2019-09-02T12:35:37Z</time>
      </trkpt>
      <trkpt lat="49.68003" lon="-1.8145">
        <ele>93</ele>
        <time>2019-09-02T12:35:41Z</time>
      </trkpt>
      <trkpt lat="49.68011" lon="-1.81442">
        <ele>93.898438</ele>
        <time>2019-09-02T12:35:45Z</time>
      </trkpt>
      <trkpt lat="49.68019" lon="-1.81431">
        <ele>94</ele>
        <time>2019-09-02T12:35:50Z</time>
      </trkpt>
      <trkpt lat="49.68024" lon="-1.81418">
        <ele>93.796875</ele>
        <time>2019-09-02T12:35:55Z</time>
      </trkpt>
      <trkpt lat="49.68026" lon="-1.81403">
        <ele>94.5</ele>
        <time>2019-09-02T12:36:00Z</time>
      </trkpt>
      <trkpt lat="49.68024" lon="-1.81389">
        <ele>95.398438</ele>
        <time>2019-09-02T12:36:05Z</time>
      </trkpt>
      <trkpt lat="49.6802" lon="-1.81376">
        <ele>94.699219</ele>
        <time>2019-09-02T12:36:10Z</time>
      </trkpt>
      <trkpt lat="49.68015" lon="-1.81363">
        <ele>94.699219</ele>
        <time>2019-09-02T12:36:15Z</time>
      </trkpt>
      <trkpt lat="49.67998" lon="-1.81322">
        <ele>100.097656</ele>
        <time>2019-09-02T12:36:30Z</time>
      </trkpt>
      <trkpt lat="49.67973" lon="-1.8127">
        <ele>107.296875</ele>
        <time>2019-09-02T12:36:51Z</time>
      </trkpt>
      <trkpt lat="49.67916" lon="-1.81166">
        <ele>113.699219</ele>
        <time>2019-09-02T12:37:38Z</time>
      </trkpt>
      <trkpt lat="49.67909" lon="-1.81156">
        <ele>114.398438</ele>
        <time>2019-09-02T12:37:42Z</time>
      </trkpt>
      <trkpt lat="49.679" lon="-1.81147">
        <ele>114.898438</ele>
        <time>2019-09-02T12:37:47Z</time>
      </trkpt>
      <trkpt lat="49.67892" lon="-1.81141">
        <ele>115.699219</ele>
        <time>2019-09-02T12:37:51Z</time>
      </trkpt>
      <trkpt lat="49.67883" lon="-1.81137">
        <ele>116.5</ele>
        <time>2019-09-02T12:37:55Z</time>
      </trkpt>
      <trkpt lat="49.67856" lon="-1.81126">
        <ele>119</ele>
        <time>2019-09-02T12:38:07Z</time>
      </trkpt>
      <trkpt lat="49.67847" lon="-1.81119">
        <ele>120</ele>
        <time>2019-09-02T12:38:12Z</time>
      </trkpt>
      <trkpt lat="49.67839" lon="-1.81106">
        <ele>121.097656</ele>
        <time>2019-09-02T12:38:17Z</time>
      </trkpt>
      <trkpt lat="49.67834" lon="-1.81093">
        <ele>122</ele>
        <time>2019-09-02T12:38:22Z</time>
      </trkpt>
      <trkpt lat="49.67831" lon="-1.81079">
        <ele>122.898438</ele>
        <time>2019-09-02T12:38:27Z</time>
      </trkpt>
      <trkpt lat="49.67759" lon="-1.808">
        <ele>137.097656</ele>
        <time>2019-09-02T12:39:57Z</time>
      </trkpt>
      <trkpt lat="49.67718" lon="-1.80609">
        <ele>143.199219</ele>
        <time>2019-09-02T12:40:40Z</time>
      </trkpt>
      <trkpt lat="49.67713" lon="-1.80593">
        <ele>143.597656</ele>
        <time>2019-09-02T12:40:44Z</time>
      </trkpt>
      <trkpt lat="49.67707" lon="-1.80578">
        <ele>143.597656</ele>
        <time>2019-09-02T12:40:48Z</time>
      </trkpt>
      <trkpt lat="49.6766" lon="-1.80465">
        <ele>142.796875</ele>
        <time>2019-09-02T12:41:18Z</time>
      </trkpt>
      <trkpt lat="49.67653" lon="-1.80454">
        <ele>142.699219</ele>
        <time>2019-09-02T12:41:22Z</time>
      </trkpt>
      <trkpt lat="49.676" lon="-1.80372">
        <ele>142</ele>
        <time>2019-09-02T12:41:46Z</time>
      </trkpt>
      <trkpt lat="49.67593" lon="-1.80357">
        <ele>142</ele>
        <time>2019-09-02T12:41:49Z</time>
      </trkpt>
      <trkpt lat="49.67532" lon="-1.80219">
        <ele>138.898438</ele>
        <time>2019-09-02T12:42:13Z</time>
      </trkpt>
      <trkpt lat="49.67515" lon="-1.80177">
        <ele>137.597656</ele>
        <time>2019-09-02T12:42:19Z</time>
      </trkpt>
      <trkpt lat="49.67503" lon="-1.80145">
        <ele>136.699219</ele>
        <time>2019-09-02T12:42:23Z</time>
      </trkpt>
      <trkpt lat="49.67494" lon="-1.80119">
        <ele>136.296875</ele>
        <time>2019-09-02T12:42:27Z</time>
      </trkpt>
      <trkpt lat="49.67488" lon="-1.80106">
        <ele>136</ele>
        <time>2019-09-02T12:42:30Z</time>
      </trkpt>
      <trkpt lat="49.67478" lon="-1.80101">
        <ele>136</ele>
        <time>2019-09-02T12:42:33Z</time>
      </trkpt>
      <trkpt lat="49.67475" lon="-1.80085">
        <ele>136.296875</ele>
        <time>2019-09-02T12:42:36Z</time>
      </trkpt>
      <trkpt lat="49.67474" lon="-1.80068">
        <ele>136.796875</ele>
        <time>2019-09-02T12:42:39Z</time>
      </trkpt>
      <trkpt lat="49.67473" lon="-1.80032">
        <ele>137</ele>
        <time>2019-09-02T12:42:45Z</time>
      </trkpt>
      <trkpt lat="49.67469" lon="-1.80016">
        <ele>136.796875</ele>
        <time>2019-09-02T12:42:48Z</time>
      </trkpt>
      <trkpt lat="49.67459" lon="-1.80016">
        <ele>136.699219</ele>
        <time>2019-09-02T12:42:51Z</time>
      </trkpt>
      <trkpt lat="49.67449" lon="-1.80019">
        <ele>136.699219</ele>
        <time>2019-09-02T12:42:54Z</time>
      </trkpt>
      <trkpt lat="49.67439" lon="-1.80019">
        <ele>136.597656</ele>
        <time>2019-09-02T12:42:57Z</time>
      </trkpt>
      <trkpt lat="49.67431" lon="-1.80009">
        <ele>136.199219</ele>
        <time>2019-09-02T12:43:00Z</time>
      </trkpt>
      <trkpt lat="49.67426" lon="-1.79996">
        <ele>136</ele>
        <time>2019-09-02T12:43:03Z</time>
      </trkpt>
      <trkpt lat="49.67421" lon="-1.79981">
        <ele>135.796875</ele>
        <time>2019-09-02T12:43:06Z</time>
      </trkpt>
      <trkpt lat="49.67411" lon="-1.79947">
        <ele>135.796875</ele>
        <time>2019-09-02T12:43:12Z</time>
      </trkpt>
      <trkpt lat="49.67407" lon="-1.7993">
        <ele>135.796875</ele>
        <time>2019-09-02T12:43:15Z</time>
      </trkpt>
      <trkpt lat="49.67405" lon="-1.79912">
        <ele>135.597656</ele>
        <time>2019-09-02T12:43:18Z</time>
      </trkpt>
      <trkpt lat="49.67406" lon="-1.79892">
        <ele>135.199219</ele>
        <time>2019-09-02T12:43:21Z</time>
      </trkpt>
      <trkpt lat="49.67407" lon="-1.79871">
        <ele>135</ele>
        <time>2019-09-02T12:43:24Z</time>
      </trkpt>
      <trkpt lat="49.67406" lon="-1.79856">
        <ele>134.796875</ele>
        <time>2019-09-02T12:43:26Z</time>
      </trkpt>
      <trkpt lat="49.67403" lon="-1.79841">
        <ele>134.5</ele>
        <time>2019-09-02T12:43:28Z</time>
      </trkpt>
      <trkpt lat="49.67398" lon="-1.79826">
        <ele>134.199219</ele>
        <time>2019-09-02T12:43:30Z</time>
      </trkpt>
      <trkpt lat="49.67364" lon="-1.79724">
        <ele>131.097656</ele>
        <time>2019-09-02T12:43:42Z</time>
      </trkpt>
      <trkpt lat="49.67357" lon="-1.79706">
        <ele>130.5</ele>
        <time>2019-09-02T12:43:44Z</time>
      </trkpt>
      <trkpt lat="49.67339" lon="-1.79669">
        <ele>128.898438</ele>
        <time>2019-09-02T12:43:48Z</time>
      </trkpt>
      <trkpt lat="49.67308" lon="-1.79613">
        <ele>126.898438</ele>
        <time>2019-09-02T12:43:54Z</time>
      </trkpt>
      <trkpt lat="49.67299" lon="-1.79592">
        <ele>126.097656</ele>
        <time>2019-09-02T12:43:56Z</time>
      </trkpt>
      <trkpt lat="49.67291" lon="-1.79568">
        <ele>125.199219</ele>
        <time>2019-09-02T12:43:58Z</time>
      </trkpt>
      <trkpt lat="49.67231" lon="-1.79356">
        <ele>114.796875</ele>
        <time>2019-09-02T12:44:13Z</time>
      </trkpt>
      <trkpt lat="49.67195" lon="-1.79231">
        <ele>107.398438</ele>
        <time>2019-09-02T12:44:22Z</time>
      </trkpt>
      <trkpt lat="49.6719" lon="-1.79219">
        <ele>106.898438</ele>
        <time>2019-09-02T12:44:23Z</time>
      </trkpt>
      <trkpt lat="49.67183" lon="-1.79208">
        <ele>106.597656</ele>
        <time>2019-09-02T12:44:24Z</time>
      </trkpt>
      <trkpt lat="49.67176" lon="-1.79199">
        <ele>106.5</ele>
        <time>2019-09-02T12:44:25Z</time>
      </trkpt>
      <trkpt lat="49.67161" lon="-1.79185">
        <ele>107.097656</ele>
        <time>2019-09-02T12:44:27Z</time>
      </trkpt>
      <trkpt lat="49.67137" lon="-1.79164">
        <ele>109</ele>
        <time>2019-09-02T12:44:31Z</time>
      </trkpt>
      <trkpt lat="49.67129" lon="-1.79153">
        <ele>109.796875</ele>
        <time>2019-09-02T12:44:33Z</time>
      </trkpt>
      <trkpt lat="49.67122" lon="-1.79137">
        <ele>110.699219</ele>
        <time>2019-09-02T12:44:36Z</time>
      </trkpt>
      <trkpt lat="49.67119" lon="-1.79122">
        <ele>111.796875</ele>
        <time>2019-09-02T12:44:39Z</time>
      </trkpt>
      <trkpt lat="49.67107" lon="-1.79062">
        <ele>115.5</ele>
        <time>2019-09-02T12:44:56Z</time>
      </trkpt>
      <trkpt lat="49.67102" lon="-1.79049">
        <ele>115.199219</ele>
        <time>2019-09-02T12:45:01Z</time>
      </trkpt>
      <trkpt lat="49.67096" lon="-1.79039">
        <ele>115.097656</ele>
        <time>2019-09-02T12:45:06Z</time>
      </trkpt>
      <trkpt lat="49.67088" lon="-1.7903">
        <ele>115.296875</ele>
        <time>2019-09-02T12:45:11Z</time>
      </trkpt>
      <trkpt lat="49.67057" lon="-1.78996">
        <ele>117.097656</ele>
        <time>2019-09-02T12:45:31Z</time>
      </trkpt>
      <trkpt lat="49.67055" lon="-1.78981">
        <ele>117.398438</ele>
        <time>2019-09-02T12:45:36Z</time>
      </trkpt>
      <trkpt lat="49.67058" lon="-1.78967">
        <ele>118.296875</ele>
        <time>2019-09-02T12:45:41Z</time>
      </trkpt>
      <trkpt lat="49.67086" lon="-1.78847">
        <ele>114.5</ele>
        <time>2019-09-02T12:46:09Z</time>
      </trkpt>
      <trkpt lat="49.67088" lon="-1.78831">
        <ele>115.5</ele>
        <time>2019-09-02T12:46:13Z</time>
      </trkpt>
      <trkpt lat="49.67091" lon="-1.78815">
        <ele>116.296875</ele>
        <time>2019-09-02T12:46:17Z</time>
      </trkpt>
      <trkpt lat="49.67093" lon="-1.78799">
        <ele>116</ele>
        <time>2019-09-02T12:46:21Z</time>
      </trkpt>
      <trkpt lat="49.67095" lon="-1.78785">
        <ele>116.5</ele>
        <time>2019-09-02T12:46:25Z</time>
      </trkpt>
      <trkpt lat="49.67096" lon="-1.7877">
        <ele>117.597656</ele>
        <time>2019-09-02T12:46:29Z</time>
      </trkpt>
      <trkpt lat="49.67098" lon="-1.78708">
        <ele>118.796875</ele>
        <time>2019-09-02T12:46:46Z</time>
      </trkpt>
      <trkpt lat="49.67097" lon="-1.78679">
        <ele>117</ele>
        <time>2019-09-02T12:46:53Z</time>
      </trkpt>
      <trkpt lat="49.67096" lon="-1.78664">
        <ele>116.097656</ele>
        <time>2019-09-02T12:46:56Z</time>
      </trkpt>
      <trkpt lat="49.67094" lon="-1.78649">
        <ele>115.398438</ele>
        <time>2019-09-02T12:46:59Z</time>
      </trkpt>
      <trkpt lat="49.6709" lon="-1.78632">
        <ele>115.097656</ele>
        <time>2019-09-02T12:47:02Z</time>
      </trkpt>
      <trkpt lat="49.67086" lon="-1.78619">
        <ele>115.398438</ele>
        <time>2019-09-02T12:47:04Z</time>
      </trkpt>
      <trkpt lat="49.67081" lon="-1.78602">
        <ele>116.199219</ele>
        <time>2019-09-02T12:47:07Z</time>
      </trkpt>
      <trkpt lat="49.6708" lon="-1.78588">
        <ele>116.796875</ele>
        <time>2019-09-02T12:47:10Z</time>
      </trkpt>
      <trkpt lat="49.67073" lon="-1.7847">
        <ele>122.699219</ele>
        <time>2019-09-02T12:47:38Z</time>
      </trkpt>
      <trkpt lat="49.6707" lon="-1.78452">
        <ele>123.398438</ele>
        <time>2019-09-02T12:47:42Z</time>
      </trkpt>
      <trkpt lat="49.67066" lon="-1.78437">
        <ele>123.398438</ele>
        <time>2019-09-02T12:47:46Z</time>
      </trkpt>
      <trkpt lat="49.67062" lon="-1.78422">
        <ele>123.597656</ele>
        <time>2019-09-02T12:47:50Z</time>
      </trkpt>
      <trkpt lat="49.67057" lon="-1.78407">
        <ele>123.796875</ele>
        <time>2019-09-02T12:47:54Z</time>
      </trkpt>
      <trkpt lat="49.67049" lon="-1.78394">
        <ele>123.597656</ele>
        <time>2019-09-02T12:47:58Z</time>
      </trkpt>
      <trkpt lat="49.67041" lon="-1.78383">
        <ele>123</ele>
        <time>2019-09-02T12:48:02Z</time>
      </trkpt>
      <trkpt lat="49.67033" lon="-1.78369">
        <ele>122.597656</ele>
        <time>2019-09-02T12:48:06Z</time>
      </trkpt>
      <trkpt lat="49.67021" lon="-1.78342">
        <ele>121.398438</ele>
        <time>2019-09-02T12:48:12Z</time>
      </trkpt>
      <trkpt lat="49.67016" lon="-1.78327">
        <ele>120.5</ele>
        <time>2019-09-02T12:48:15Z</time>
      </trkpt>
      <trkpt lat="49.67018" lon="-1.78311">
        <ele>119.5</ele>
        <time>2019-09-02T12:48:18Z</time>
      </trkpt>
      <trkpt lat="49.67027" lon="-1.78295">
        <ele>119.296875</ele>
        <time>2019-09-02T12:48:21Z</time>
      </trkpt>
      <trkpt lat="49.67039" lon="-1.78271">
        <ele>117.296875</ele>
        <time>2019-09-02T12:48:25Z</time>
      </trkpt>
      <trkpt lat="49.67047" lon="-1.78254">
        <ele>116</ele>
        <time>2019-09-02T12:48:28Z</time>
      </trkpt>
      <trkpt lat="49.67053" lon="-1.78238">
        <ele>115.199219</ele>
        <time>2019-09-02T12:48:31Z</time>
      </trkpt>
      <trkpt lat="49.67055" lon="-1.78221">
        <ele>114</ele>
        <time>2019-09-02T12:48:34Z</time>
      </trkpt>
      <trkpt lat="49.67053" lon="-1.78208">
        <ele>112.898438</ele>
        <time>2019-09-02T12:48:36Z</time>
      </trkpt>
      <trkpt lat="49.67046" lon="-1.78196">
        <ele>111.796875</ele>
        <time>2019-09-02T12:48:38Z</time>
      </trkpt>
      <trkpt lat="49.67037" lon="-1.78184">
        <ele>110.097656</ele>
        <time>2019-09-02T12:48:40Z</time>
      </trkpt>
      <trkpt lat="49.67018" lon="-1.78159">
        <ele>106.199219</ele>
        <time>2019-09-02T12:48:44Z</time>
      </trkpt>
      <trkpt lat="49.6701" lon="-1.78141">
        <ele>105.097656</ele>
        <time>2019-09-02T12:48:46Z</time>
      </trkpt>
      <trkpt lat="49.67003" lon="-1.7812">
        <ele>104.199219</ele>
        <time>2019-09-02T12:48:48Z</time>
      </trkpt>
      <trkpt lat="49.66997" lon="-1.78099">
        <ele>103.796875</ele>
        <time>2019-09-02T12:48:50Z</time>
      </trkpt>
      <trkpt lat="49.66991" lon="-1.78083">
        <ele>103.296875</ele>
        <time>2019-09-02T12:48:52Z</time>
      </trkpt>
      <trkpt lat="49.66982" lon="-1.78072">
        <ele>103.398438</ele>
        <time>2019-09-02T12:48:54Z</time>
      </trkpt>
      <trkpt lat="49.66971" lon="-1.78065">
        <ele>103</ele>
        <time>2019-09-02T12:48:56Z</time>
      </trkpt>
      <trkpt lat="49.66963" lon="-1.78055">
        <ele>102.699219</ele>
        <time>2019-09-02T12:48:58Z</time>
      </trkpt>
      <trkpt lat="49.66958" lon="-1.78041">
        <ele>102.699219</ele>
        <time>2019-09-02T12:49:00Z</time>
      </trkpt>
      <trkpt lat="49.66952" lon="-1.78025">
        <ele>102</ele>
        <time>2019-09-02T12:49:03Z</time>
      </trkpt>
      <trkpt lat="49.66935" lon="-1.77988">
        <ele>104.898438</ele>
        <time>2019-09-02T12:49:12Z</time>
      </trkpt>
      <trkpt lat="49.66904" lon="-1.77928">
        <ele>109.398438</ele>
        <time>2019-09-02T12:49:34Z</time>
      </trkpt>
      <trkpt lat="49.66897" lon="-1.77917">
        <ele>108.699219</ele>
        <time>2019-09-02T12:49:39Z</time>
      </trkpt>
      <trkpt lat="49.66876" lon="-1.77884">
        <ele>110.5</ele>
        <time>2019-09-02T12:49:54Z</time>
      </trkpt>
      <trkpt lat="49.66858" lon="-1.77846">
        <ele>111.796875</ele>
        <time>2019-09-02T12:50:09Z</time>
      </trkpt>
      <trkpt lat="49.6685" lon="-1.77836">
        <ele>113.097656</ele>
        <time>2019-09-02T12:50:14Z</time>
      </trkpt>
      <trkpt lat="49.66841" lon="-1.77832">
        <ele>114.796875</ele>
        <time>2019-09-02T12:50:19Z</time>
      </trkpt>
      <trkpt lat="49.66832" lon="-1.77829">
        <ele>117.296875</ele>
        <time>2019-09-02T12:50:25Z</time>
      </trkpt>
      <trkpt lat="49.66813" lon="-1.77826">
        <ele>119.199219</ele>
        <time>2019-09-02T12:50:38Z</time>
      </trkpt>
      <trkpt lat="49.66794" lon="-1.7782">
        <ele>120.398438</ele>
        <time>2019-09-02T12:50:48Z</time>
      </trkpt>
      <trkpt lat="49.66785" lon="-1.77816">
        <ele>120.296875</ele>
        <time>2019-09-02T12:50:53Z</time>
      </trkpt>
      <trkpt lat="49.66777" lon="-1.77807">
        <ele>120.699219</ele>
        <time>2019-09-02T12:50:58Z</time>
      </trkpt>
      <trkpt lat="49.66775" lon="-1.77791">
        <ele>120.898438</ele>
        <time>2019-09-02T12:51:03Z</time>
      </trkpt>
      <trkpt lat="49.66775" lon="-1.77775">
        <ele>120.699219</ele>
        <time>2019-09-02T12:51:07Z</time>
      </trkpt>
      <trkpt lat="49.66775" lon="-1.77759">
        <ele>119.898438</ele>
        <time>2019-09-02T12:51:10Z</time>
      </trkpt>
      <trkpt lat="49.66773" lon="-1.77723">
        <ele>119.597656</ele>
        <time>2019-09-02T12:51:16Z</time>
      </trkpt>
      <trkpt lat="49.66774" lon="-1.77706">
        <ele>120.097656</ele>
        <time>2019-09-02T12:51:19Z</time>
      </trkpt>
      <trkpt lat="49.66775" lon="-1.77692">
        <ele>121</ele>
        <time>2019-09-02T12:51:22Z</time>
      </trkpt>
      <trkpt lat="49.6678" lon="-1.77657">
        <ele>123.398438</ele>
        <time>2019-09-02T12:51:30Z</time>
      </trkpt>
      <trkpt lat="49.66781" lon="-1.77641">
        <ele>124</ele>
        <time>2019-09-02T12:51:34Z</time>
      </trkpt>
      <trkpt lat="49.66778" lon="-1.77625">
        <ele>124.597656</ele>
        <time>2019-09-02T12:51:38Z</time>
      </trkpt>
      <trkpt lat="49.66773" lon="-1.7761">
        <ele>124.796875</ele>
        <time>2019-09-02T12:51:42Z</time>
      </trkpt>
      <trkpt lat="49.6674" lon="-1.7751">
        <ele>124.597656</ele>
        <time>2019-09-02T12:52:06Z</time>
      </trkpt>
      <trkpt lat="49.66738" lon="-1.77493">
        <ele>124.5</ele>
        <time>2019-09-02T12:52:09Z</time>
      </trkpt>
      <trkpt lat="49.66739" lon="-1.77475">
        <ele>124.296875</ele>
        <time>2019-09-02T12:52:12Z</time>
      </trkpt>
      <trkpt lat="49.66742" lon="-1.77457">
        <ele>124.097656</ele>
        <time>2019-09-02T12:52:15Z</time>
      </trkpt>
      <trkpt lat="49.66745" lon="-1.77439">
        <ele>123.597656</ele>
        <time>2019-09-02T12:52:18Z</time>
      </trkpt>
      <trkpt lat="49.6675" lon="-1.77421">
        <ele>123.296875</ele>
        <time>2019-09-02T12:52:21Z</time>
      </trkpt>
      <trkpt lat="49.66757" lon="-1.77391">
        <ele>122</ele>
        <time>2019-09-02T12:52:26Z</time>
      </trkpt>
      <trkpt lat="49.66755" lon="-1.77376">
        <ele>120.898438</ele>
        <time>2019-09-02T12:52:29Z</time>
      </trkpt>
      <trkpt lat="49.66745" lon="-1.77367">
        <ele>120.097656</ele>
        <time>2019-09-02T12:52:32Z</time>
      </trkpt>
      <trkpt lat="49.66735" lon="-1.77361">
        <ele>120</ele>
        <time>2019-09-02T12:52:35Z</time>
      </trkpt>
      <trkpt lat="49.66637" lon="-1.77304">
        <ele>121.398438</ele>
        <time>2019-09-02T12:53:10Z</time>
      </trkpt>
      <trkpt lat="49.66627" lon="-1.773">
        <ele>121.199219</ele>
        <time>2019-09-02T12:53:15Z</time>
      </trkpt>
      <trkpt lat="49.66624" lon="-1.77286">
        <ele>120.597656</ele>
        <time>2019-09-02T12:53:27Z</time>
      </trkpt>
      <trkpt lat="49.66629" lon="-1.77271">
        <ele>119.398438</ele>
        <time>2019-09-02T12:53:30Z</time>
      </trkpt>
      <trkpt lat="49.66686" lon="-1.77104">
        <ele>112.296875</ele>
        <time>2019-09-02T12:53:49Z</time>
      </trkpt>
      <trkpt lat="49.66692" lon="-1.7708">
        <ele>111.199219</ele>
        <time>2019-09-02T12:53:51Z</time>
      </trkpt>
      <trkpt lat="49.66728" lon="-1.76912">
        <ele>107.199219</ele>
        <time>2019-09-02T12:54:04Z</time>
      </trkpt>
      <trkpt lat="49.66733" lon="-1.76899">
        <ele>106.898438</ele>
        <time>2019-09-02T12:54:05Z</time>
      </trkpt>
      <trkpt lat="49.66738" lon="-1.76887">
        <ele>106.597656</ele>
        <time>2019-09-02T12:54:06Z</time>
      </trkpt>
      <trkpt lat="49.66748" lon="-1.76864">
        <ele>106</ele>
        <time>2019-09-02T12:54:08Z</time>
      </trkpt>
      <trkpt lat="49.66754" lon="-1.76853">
        <ele>105.796875</ele>
        <time>2019-09-02T12:54:09Z</time>
      </trkpt>
      <trkpt lat="49.6676" lon="-1.76843">
        <ele>105.199219</ele>
        <time>2019-09-02T12:54:10Z</time>
      </trkpt>
      <trkpt lat="49.66775" lon="-1.76826">
        <ele>105</ele>
        <time>2019-09-02T12:54:12Z</time>
      </trkpt>
      <trkpt lat="49.66783" lon="-1.7682">
        <ele>104.796875</ele>
        <time>2019-09-02T12:54:13Z</time>
      </trkpt>
      <trkpt lat="49.668" lon="-1.76809">
        <ele>104.097656</ele>
        <time>2019-09-02T12:54:15Z</time>
      </trkpt>
      <trkpt lat="49.66817" lon="-1.76802">
        <ele>103.5</ele>
        <time>2019-09-02T12:54:17Z</time>
      </trkpt>
      <trkpt lat="49.66832" lon="-1.76791">
        <ele>103.398438</ele>
        <time>2019-09-02T12:54:19Z</time>
      </trkpt>
      <trkpt lat="49.66844" lon="-1.76775">
        <ele>103.699219</ele>
        <time>2019-09-02T12:54:21Z</time>
      </trkpt>
      <trkpt lat="49.66854" lon="-1.76757">
        <ele>104.199219</ele>
        <time>2019-09-02T12:54:23Z</time>
      </trkpt>
      <trkpt lat="49.66875" lon="-1.76711">
        <ele>105.5</ele>
        <time>2019-09-02T12:54:29Z</time>
      </trkpt>
      <trkpt lat="49.66905" lon="-1.76641">
        <ele>104.597656</ele>
        <time>2019-09-02T12:54:39Z</time>
      </trkpt>
      <trkpt lat="49.66913" lon="-1.76625">
        <ele>104</ele>
        <time>2019-09-02T12:54:41Z</time>
      </trkpt>
      <trkpt lat="49.66923" lon="-1.76609">
        <ele>103.296875</ele>
        <time>2019-09-02T12:54:43Z</time>
      </trkpt>
      <trkpt lat="49.66936" lon="-1.76597">
        <ele>102.699219</ele>
        <time>2019-09-02T12:54:45Z</time>
      </trkpt>
      <trkpt lat="49.6695" lon="-1.76589">
        <ele>102</ele>
        <time>2019-09-02T12:54:47Z</time>
      </trkpt>
      <trkpt lat="49.66966" lon="-1.76584">
        <ele>101.097656</ele>
        <time>2019-09-02T12:54:49Z</time>
      </trkpt>
      <trkpt lat="49.67013" lon="-1.7657">
        <ele>98.097656</ele>
        <time>2019-09-02T12:54:55Z</time>
      </trkpt>
      <trkpt lat="49.67029" lon="-1.76562">
        <ele>97.097656</ele>
        <time>2019-09-02T12:54:57Z</time>
      </trkpt>
      <trkpt lat="49.67045" lon="-1.76551">
        <ele>96</ele>
        <time>2019-09-02T12:54:59Z</time>
      </trkpt>
      <trkpt lat="49.67059" lon="-1.76538">
        <ele>94.597656</ele>
        <time>2019-09-02T12:55:01Z</time>
      </trkpt>
      <trkpt lat="49.67073" lon="-1.76523">
        <ele>94</ele>
        <time>2019-09-02T12:55:03Z</time>
      </trkpt>
      <trkpt lat="49.6708" lon="-1.76513">
        <ele>93.398438</ele>
        <time>2019-09-02T12:55:04Z</time>
      </trkpt>
      <trkpt lat="49.67094" lon="-1.76493">
        <ele>92.5</ele>
        <time>2019-09-02T12:55:06Z</time>
      </trkpt>
      <trkpt lat="49.671" lon="-1.76482">
        <ele>92.296875</ele>
        <time>2019-09-02T12:55:07Z</time>
      </trkpt>
      <trkpt lat="49.6712" lon="-1.7645">
        <ele>91.296875</ele>
        <time>2019-09-02T12:55:10Z</time>
      </trkpt>
      <trkpt lat="49.67127" lon="-1.76441">
        <ele>90.699219</ele>
        <time>2019-09-02T12:55:11Z</time>
      </trkpt>
      <trkpt lat="49.67136" lon="-1.76433">
        <ele>90</ele>
        <time>2019-09-02T12:55:12Z</time>
      </trkpt>
      <trkpt lat="49.67275" lon="-1.76315">
        <ele>80.296875</ele>
        <time>2019-09-02T12:55:28Z</time>
      </trkpt>
      <trkpt lat="49.67284" lon="-1.7631">
        <ele>79.097656</ele>
        <time>2019-09-02T12:55:29Z</time>
      </trkpt>
      <trkpt lat="49.67305" lon="-1.76301">
        <ele>76.898438</ele>
        <time>2019-09-02T12:55:31Z</time>
      </trkpt>
      <trkpt lat="49.67316" lon="-1.76297">
        <ele>75.796875</ele>
        <time>2019-09-02T12:55:32Z</time>
      </trkpt>
      <trkpt lat="49.67362" lon="-1.76287">
        <ele>72.796875</ele>
        <time>2019-09-02T12:55:36Z</time>
      </trkpt>
      <trkpt lat="49.67424" lon="-1.76271">
        <ele>68.898438</ele>
        <time>2019-09-02T12:55:43Z</time>
      </trkpt>
      <trkpt lat="49.67439" lon="-1.76263">
        <ele>68</ele>
        <time>2019-09-02T12:55:45Z</time>
      </trkpt>
      <trkpt lat="49.67451" lon="-1.76253">
        <ele>66.699219</ele>
        <time>2019-09-02T12:55:47Z</time>
      </trkpt>
      <trkpt lat="49.67462" lon="-1.76239">
        <ele>65.097656</ele>
        <time>2019-09-02T12:55:49Z</time>
      </trkpt>
      <trkpt lat="49.67484" lon="-1.76214">
        <ele>62.597656</ele>
        <time>2019-09-02T12:55:53Z</time>
      </trkpt>
      <trkpt lat="49.67494" lon="-1.76205">
        <ele>61.898438</ele>
        <time>2019-09-02T12:55:55Z</time>
      </trkpt>
      <trkpt lat="49.67507" lon="-1.762">
        <ele>61.296875</ele>
        <time>2019-09-02T12:55:57Z</time>
      </trkpt>
      <trkpt lat="49.6752" lon="-1.76197">
        <ele>59.898438</ele>
        <time>2019-09-02T12:55:59Z</time>
      </trkpt>
      <trkpt lat="49.67535" lon="-1.76196">
        <ele>58.296875</ele>
        <time>2019-09-02T12:56:01Z</time>
      </trkpt>
      <trkpt lat="49.67551" lon="-1.76198">
        <ele>56.699219</ele>
        <time>2019-09-02T12:56:03Z</time>
      </trkpt>
      <trkpt lat="49.67565" lon="-1.76206">
        <ele>54.796875</ele>
        <time>2019-09-02T12:56:05Z</time>
      </trkpt>
      <trkpt lat="49.67579" lon="-1.76217">
        <ele>53</ele>
        <time>2019-09-02T12:56:07Z</time>
      </trkpt>
      <trkpt lat="49.67593" lon="-1.76225">
        <ele>51.199219</ele>
        <time>2019-09-02T12:56:09Z</time>
      </trkpt>
      <trkpt lat="49.67609" lon="-1.76225">
        <ele>49.097656</ele>
        <time>2019-09-02T12:56:11Z</time>
      </trkpt>
      <trkpt lat="49.67625" lon="-1.76222">
        <ele>47.097656</ele>
        <time>2019-09-02T12:56:13Z</time>
      </trkpt>
      <trkpt lat="49.6764" lon="-1.76223">
        <ele>45</ele>
        <time>2019-09-02T12:56:15Z</time>
      </trkpt>
      <trkpt lat="49.67652" lon="-1.76231">
        <ele>42.097656</ele>
        <time>2019-09-02T12:56:17Z</time>
      </trkpt>
      <trkpt lat="49.67664" lon="-1.76246">
        <ele>39.699219</ele>
        <time>2019-09-02T12:56:19Z</time>
      </trkpt>
      <trkpt lat="49.67675" lon="-1.76261">
        <ele>37.699219</ele>
        <time>2019-09-02T12:56:21Z</time>
      </trkpt>
      <trkpt lat="49.67683" lon="-1.76274">
        <ele>35.597656</ele>
        <time>2019-09-02T12:56:23Z</time>
      </trkpt>
      <trkpt lat="49.67692" lon="-1.76285">
        <ele>33.5</ele>
        <time>2019-09-02T12:56:26Z</time>
      </trkpt>
      <trkpt lat="49.67701" lon="-1.76281">
        <ele>32.597656</ele>
        <time>2019-09-02T12:56:29Z</time>
      </trkpt>
      <trkpt lat="49.67707" lon="-1.76268">
        <ele>32</ele>
        <time>2019-09-02T12:56:32Z</time>
      </trkpt>
      <trkpt lat="49.67722" lon="-1.76241">
        <ele>30.597656</ele>
        <time>2019-09-02T12:56:37Z</time>
      </trkpt>
      <trkpt lat="49.6773" lon="-1.7623">
        <ele>30.296875</ele>
        <time>2019-09-02T12:56:39Z</time>
      </trkpt>
      <trkpt lat="49.67739" lon="-1.76217">
        <ele>29.398438</ele>
        <time>2019-09-02T12:56:41Z</time>
      </trkpt>
      <trkpt lat="49.67748" lon="-1.762">
        <ele>28.199219</ele>
        <time>2019-09-02T12:56:43Z</time>
      </trkpt>
      <trkpt lat="49.67758" lon="-1.76181">
        <ele>26.796875</ele>
        <time>2019-09-02T12:56:45Z</time>
      </trkpt>
      <trkpt lat="49.67766" lon="-1.76158">
        <ele>26.097656</ele>
        <time>2019-09-02T12:56:47Z</time>
      </trkpt>
      <trkpt lat="49.67769" lon="-1.76145">
        <ele>25.398438</ele>
        <time>2019-09-02T12:56:48Z</time>
      </trkpt>
      <trkpt lat="49.67774" lon="-1.76116">
        <ele>24.097656</ele>
        <time>2019-09-02T12:56:50Z</time>
      </trkpt>
      <trkpt lat="49.67776" lon="-1.76101">
        <ele>23.597656</ele>
        <time>2019-09-02T12:56:51Z</time>
      </trkpt>
      <trkpt lat="49.67781" lon="-1.76036">
        <ele>20.398438</ele>
        <time>2019-09-02T12:56:55Z</time>
      </trkpt>
      <trkpt lat="49.67782" lon="-1.76003">
        <ele>18.898438</ele>
        <time>2019-09-02T12:56:57Z</time>
      </trkpt>
      <trkpt lat="49.67778" lon="-1.75935">
        <ele>16.699219</ele>
        <time>2019-09-02T12:57:01Z</time>
      </trkpt>
      <trkpt lat="49.67771" lon="-1.7584">
        <ele>15.296875</ele>
        <time>2019-09-02T12:57:07Z</time>
      </trkpt>
      <trkpt lat="49.67768" lon="-1.75826">
        <ele>15.296875</ele>
        <time>2019-09-02T12:57:08Z</time>
      </trkpt>
      <trkpt lat="49.67765" lon="-1.75813">
        <ele>15.296875</ele>
        <time>2019-09-02T12:57:09Z</time>
      </trkpt>
      <trkpt lat="49.67757" lon="-1.75788">
        <ele>15.296875</ele>
        <time>2019-09-02T12:57:11Z</time>
      </trkpt>
      <trkpt lat="49.67653" lon="-1.75481">
        <ele>17.597656</ele>
        <time>2019-09-02T12:57:51Z</time>
      </trkpt>
      <trkpt lat="49.6765" lon="-1.75464">
        <ele>18.398438</ele>
        <time>2019-09-02T12:57:54Z</time>
      </trkpt>
      <trkpt lat="49.6765" lon="-1.75447">
        <ele>20</ele>
        <time>2019-09-02T12:57:57Z</time>
      </trkpt>
      <trkpt lat="49.67651" lon="-1.75429">
        <ele>20.097656</ele>
        <time>2019-09-02T12:58:00Z</time>
      </trkpt>
      <trkpt lat="49.6765" lon="-1.75413">
        <ele>19.898438</ele>
        <time>2019-09-02T12:58:02Z</time>
      </trkpt>
      <trkpt lat="49.67649" lon="-1.75316">
        <ele>17.699219</ele>
        <time>2019-09-02T12:58:12Z</time>
      </trkpt>
      <trkpt lat="49.6765" lon="-1.75295">
        <ele>17.199219</ele>
        <time>2019-09-02T12:58:14Z</time>
      </trkpt>
      <trkpt lat="49.67658" lon="-1.75179">
        <ele>15</ele>
        <time>2019-09-02T12:58:24Z</time>
      </trkpt>
      <trkpt lat="49.67657" lon="-1.75156">
        <ele>14.699219</ele>
        <time>2019-09-02T12:58:26Z</time>
      </trkpt>
      <trkpt lat="49.67655" lon="-1.75133">
        <ele>14.5</ele>
        <time>2019-09-02T12:58:28Z</time>
      </trkpt>
      <trkpt lat="49.67652" lon="-1.75111">
        <ele>14.398438</ele>
        <time>2019-09-02T12:58:30Z</time>
      </trkpt>
      <trkpt lat="49.67645" lon="-1.75068">
        <ele>14.296875</ele>
        <time>2019-09-02T12:58:34Z</time>
      </trkpt>
      <trkpt lat="49.67636" lon="-1.75028">
        <ele>13.898438</ele>
        <time>2019-09-02T12:58:38Z</time>
      </trkpt>
      <trkpt lat="49.67626" lon="-1.74991">
        <ele>13.796875</ele>
        <time>2019-09-02T12:58:42Z</time>
      </trkpt>
      <trkpt lat="49.67562" lon="-1.74761">
        <ele>13.199219</ele>
        <time>2019-09-02T12:59:10Z</time>
      </trkpt>
      <trkpt lat="49.67556" lon="-1.74745">
        <ele>13.296875</ele>
        <time>2019-09-02T12:59:12Z</time>
      </trkpt>
      <trkpt lat="49.67527" lon="-1.74676">
        <ele>12.597656</ele>
        <time>2019-09-02T12:59:22Z</time>
      </trkpt>
      <trkpt lat="49.67522" lon="-1.74661">
        <ele>12.398438</ele>
        <time>2019-09-02T12:59:24Z</time>
      </trkpt>
      <trkpt lat="49.67518" lon="-1.74645">
        <ele>12.097656</ele>
        <time>2019-09-02T12:59:26Z</time>
      </trkpt>
      <trkpt lat="49.67515" lon="-1.74629">
        <ele>12.5</ele>
        <time>2019-09-02T12:59:28Z</time>
      </trkpt>
      <trkpt lat="49.67507" lon="-1.74581">
        <ele>14</ele>
        <time>2019-09-02T12:59:34Z</time>
      </trkpt>
      <trkpt lat="49.67505" lon="-1.74565">
        <ele>13.796875</ele>
        <time>2019-09-02T12:59:36Z</time>
      </trkpt>
      <trkpt lat="49.67502" lon="-1.74549">
        <ele>13.5</ele>
        <time>2019-09-02T12:59:38Z</time>
      </trkpt>
      <trkpt lat="49.67498" lon="-1.74533">
        <ele>13.398438</ele>
        <time>2019-09-02T12:59:40Z</time>
      </trkpt>
      <trkpt lat="49.67488" lon="-1.74501">
        <ele>13.097656</ele>
        <time>2019-09-02T12:59:44Z</time>
      </trkpt>
      <trkpt lat="49.67448" lon="-1.74384">
        <ele>12.5</ele>
        <time>2019-09-02T13:00:03Z</time>
      </trkpt>
      <trkpt lat="49.67441" lon="-1.74369">
        <ele>12.796875</ele>
        <time>2019-09-02T13:00:06Z</time>
      </trkpt>
      <trkpt lat="49.67434" lon="-1.74355">
        <ele>13</ele>
        <time>2019-09-02T13:00:09Z</time>
      </trkpt>
      <trkpt lat="49.67426" lon="-1.74343">
        <ele>13.097656</ele>
        <time>2019-09-02T13:00:12Z</time>
      </trkpt>
      <trkpt lat="49.67415" lon="-1.7434">
        <ele>13.296875</ele>
        <time>2019-09-02T13:00:16Z</time>
      </trkpt>
      <trkpt lat="49.67405" lon="-1.74346">
        <ele>13.199219</ele>
        <time>2019-09-02T13:00:21Z</time>
      </trkpt>
      <trkpt lat="49.67396" lon="-1.7435">
        <ele>13.097656</ele>
        <time>2019-09-02T13:00:26Z</time>
      </trkpt>
      <trkpt lat="49.67386" lon="-1.74352">
        <ele>13.097656</ele>
        <time>2019-09-02T13:00:30Z</time>
      </trkpt>
      <trkpt lat="49.67335" lon="-1.74368">
        <ele>13.398438</ele>
        <time>2019-09-02T13:00:45Z</time>
      </trkpt>
      <trkpt lat="49.67326" lon="-1.74374">
        <ele>13.898438</ele>
        <time>2019-09-02T13:00:48Z</time>
      </trkpt>
      <trkpt lat="49.67317" lon="-1.74385">
        <ele>14.398438</ele>
        <time>2019-09-02T13:00:52Z</time>
      </trkpt>
      <trkpt lat="49.67302" lon="-1.74405">
        <ele>16.597656</ele>
        <time>2019-09-02T13:00:58Z</time>
      </trkpt>
      <trkpt lat="49.67297" lon="-1.74415">
        <ele>17.296875</ele>
        <time>2019-09-02T13:01:01Z</time>
      </trkpt>
      <trkpt lat="49.6729" lon="-1.74431">
        <ele>17.898438</ele>
        <time>2019-09-02T13:01:05Z</time>
      </trkpt>
      <trkpt lat="49.67284" lon="-1.74443">
        <ele>18.597656</ele>
        <time>2019-09-02T13:01:08Z</time>
      </trkpt>
      <trkpt lat="49.67277" lon="-1.74454">
        <ele>19.398438</ele>
        <time>2019-09-02T13:01:11Z</time>
      </trkpt>
      <trkpt lat="49.67269" lon="-1.74465">
        <ele>20.296875</ele>
        <time>2019-09-02T13:01:14Z</time>
      </trkpt>
      <trkpt lat="49.67262" lon="-1.74476">
        <ele>20.597656</ele>
        <time>2019-09-02T13:01:17Z</time>
      </trkpt>
      <trkpt lat="49.67254" lon="-1.74485">
        <ele>21</ele>
        <time>2019-09-02T13:01:20Z</time>
      </trkpt>
      <trkpt lat="49.67246" lon="-1.74493">
        <ele>21.898438</ele>
        <time>2019-09-02T13:01:23Z</time>
      </trkpt>
      <trkpt lat="49.67237" lon="-1.74499">
        <ele>24.097656</ele>
        <time>2019-09-02T13:01:26Z</time>
      </trkpt>
      <trkpt lat="49.67228" lon="-1.74504">
        <ele>26.097656</ele>
        <time>2019-09-02T13:01:30Z</time>
      </trkpt>
      <trkpt lat="49.67219" lon="-1.74508">
        <ele>28</ele>
        <time>2019-09-02T13:01:34Z</time>
      </trkpt>
      <trkpt lat="49.67209" lon="-1.7451">
        <ele>29.5</ele>
        <time>2019-09-02T13:01:39Z</time>
      </trkpt>
      <trkpt lat="49.672" lon="-1.74512">
        <ele>30.597656</ele>
        <time>2019-09-02T13:01:44Z</time>
      </trkpt>
      <trkpt lat="49.6719" lon="-1.74512">
        <ele>30.898438</ele>
        <time>2019-09-02T13:01:49Z</time>
      </trkpt>
      <trkpt lat="49.67094" lon="-1.74504">
        <ele>34.199219</ele>
        <time>2019-09-02T13:02:21Z</time>
      </trkpt>
      <trkpt lat="49.67085" lon="-1.74507">
        <ele>33.898438</ele>
        <time>2019-09-02T13:02:24Z</time>
      </trkpt>
      <trkpt lat="49.67075" lon="-1.7451">
        <ele>33.898438</ele>
        <time>2019-09-02T13:02:27Z</time>
      </trkpt>
      <trkpt lat="49.67057" lon="-1.74519">
        <ele>34.5</ele>
        <time>2019-09-02T13:02:33Z</time>
      </trkpt>
      <trkpt lat="49.67049" lon="-1.74527">
        <ele>34.699219</ele>
        <time>2019-09-02T13:02:36Z</time>
      </trkpt>
      <trkpt lat="49.66979" lon="-1.74589">
        <ele>36.898438</ele>
        <time>2019-09-02T13:03:03Z</time>
      </trkpt>
      <trkpt lat="49.66969" lon="-1.74595">
        <ele>38.097656</ele>
        <time>2019-09-02T13:03:07Z</time>
      </trkpt>
      <trkpt lat="49.66958" lon="-1.74598">
        <ele>40.097656</ele>
        <time>2019-09-02T13:03:11Z</time>
      </trkpt>
      <trkpt lat="49.66948" lon="-1.74598">
        <ele>42.398438</ele>
        <time>2019-09-02T13:03:14Z</time>
      </trkpt>
      <trkpt lat="49.66939" lon="-1.74596">
        <ele>44.296875</ele>
        <time>2019-09-02T13:03:17Z</time>
      </trkpt>
      <trkpt lat="49.6693" lon="-1.74592">
        <ele>45</ele>
        <time>2019-09-02T13:03:20Z</time>
      </trkpt>
      <trkpt lat="49.66899" lon="-1.74582">
        <ele>43.5</ele>
        <time>2019-09-02T13:03:30Z</time>
      </trkpt>
      <trkpt lat="49.66879" lon="-1.74579">
        <ele>42.097656</ele>
        <time>2019-09-02T13:03:37Z</time>
      </trkpt>
      <trkpt lat="49.66867" lon="-1.74579">
        <ele>41</ele>
        <time>2019-09-02T13:03:41Z</time>
      </trkpt>
      <trkpt lat="49.66858" lon="-1.7458">
        <ele>40.796875</ele>
        <time>2019-09-02T13:03:44Z</time>
      </trkpt>
      <trkpt lat="49.66848" lon="-1.74583">
        <ele>41.398438</ele>
        <time>2019-09-02T13:03:47Z</time>
      </trkpt>
      <trkpt lat="49.66839" lon="-1.74589">
        <ele>42.398438</ele>
        <time>2019-09-02T13:03:50Z</time>
      </trkpt>
      <trkpt lat="49.66829" lon="-1.74594">
        <ele>43.699219</ele>
        <time>2019-09-02T13:03:53Z</time>
      </trkpt>
      <trkpt lat="49.66821" lon="-1.74602">
        <ele>46.296875</ele>
        <time>2019-09-02T13:03:56Z</time>
      </trkpt>
      <trkpt lat="49.66814" lon="-1.74614">
        <ele>49.199219</ele>
        <time>2019-09-02T13:04:00Z</time>
      </trkpt>
      <trkpt lat="49.66808" lon="-1.74628">
        <ele>52.597656</ele>
        <time>2019-09-02T13:04:05Z</time>
      </trkpt>
      <trkpt lat="49.66781" lon="-1.74694">
        <ele>60.199219</ele>
        <time>2019-09-02T13:04:33Z</time>
      </trkpt>
      <trkpt lat="49.66764" lon="-1.74749">
        <ele>60.097656</ele>
        <time>2019-09-02T13:04:55Z</time>
      </trkpt>
      <trkpt lat="49.66756" lon="-1.74778">
        <ele>61.898438</ele>
        <time>2019-09-02T13:05:05Z</time>
      </trkpt>
      <trkpt lat="49.66754" lon="-1.74794">
        <ele>62</ele>
        <time>2019-09-02T13:05:10Z</time>
      </trkpt>
      <trkpt lat="49.66754" lon="-1.7481">
        <ele>62.296875</ele>
        <time>2019-09-02T13:05:15Z</time>
      </trkpt>
      <trkpt lat="49.66756" lon="-1.74825">
        <ele>62.398438</ele>
        <time>2019-09-02T13:05:20Z</time>
      </trkpt>
      <trkpt lat="49.66763" lon="-1.74836">
        <ele>63.097656</ele>
        <time>2019-09-02T13:05:25Z</time>
      </trkpt>
      <trkpt lat="49.6677" lon="-1.74847">
        <ele>63.898438</ele>
        <time>2019-09-02T13:05:30Z</time>
      </trkpt>
      <trkpt lat="49.66775" lon="-1.74861">
        <ele>64.898438</ele>
        <time>2019-09-02T13:05:35Z</time>
      </trkpt>
      <trkpt lat="49.66779" lon="-1.74875">
        <ele>65.398438</ele>
        <time>2019-09-02T13:05:39Z</time>
      </trkpt>
      <trkpt lat="49.66798" lon="-1.74947">
        <ele>69.898438</ele>
        <time>2019-09-02T13:05:56Z</time>
      </trkpt>
      <trkpt lat="49.66804" lon="-1.74959">
        <ele>70.898438</ele>
        <time>2019-09-02T13:06:00Z</time>
      </trkpt>
      <trkpt lat="49.66839" lon="-1.75032">
        <ele>74.898438</ele>
        <time>2019-09-02T13:06:26Z</time>
      </trkpt>
      <trkpt lat="49.66891" lon="-1.75136">
        <ele>82.199219</ele>
        <time>2019-09-02T13:06:58Z</time>
      </trkpt>
      <trkpt lat="49.66908" lon="-1.75176">
        <ele>89.699219</ele>
        <time>2019-09-02T13:07:12Z</time>
      </trkpt>
      <trkpt lat="49.6691" lon="-1.7519">
        <ele>89.796875</ele>
        <time>2019-09-02T13:08:32Z</time>
      </trkpt>
      <trkpt lat="49.66907" lon="-1.75204">
        <ele>89.898438</ele>
        <time>2019-09-02T13:08:37Z</time>
      </trkpt>
      <trkpt lat="49.669" lon="-1.75213">
        <ele>90.398438</ele>
        <time>2019-09-02T13:08:41Z</time>
      </trkpt>
      <trkpt lat="49.6689" lon="-1.75221">
        <ele>90.796875</ele>
        <time>2019-09-02T13:08:46Z</time>
      </trkpt>
      <trkpt lat="49.66824" lon="-1.75279">
        <ele>90.5</ele>
        <time>2019-09-02T13:09:09Z</time>
      </trkpt>
      <trkpt lat="49.66803" lon="-1.75303">
        <ele>90.296875</ele>
        <time>2019-09-02T13:09:15Z</time>
      </trkpt>
      <trkpt lat="49.66793" lon="-1.75317">
        <ele>90.398438</ele>
        <time>2019-09-02T13:09:18Z</time>
      </trkpt>
      <trkpt lat="49.66784" lon="-1.75332">
        <ele>90.398438</ele>
        <time>2019-09-02T13:09:21Z</time>
      </trkpt>
      <trkpt lat="49.66767" lon="-1.7536">
        <ele>91</ele>
        <time>2019-09-02T13:09:27Z</time>
      </trkpt>
      <trkpt lat="49.66758" lon="-1.75371">
        <ele>91.296875</ele>
        <time>2019-09-02T13:09:30Z</time>
      </trkpt>
      <trkpt lat="49.66749" lon="-1.75381">
        <ele>91.296875</ele>
        <time>2019-09-02T13:09:33Z</time>
      </trkpt>
      <trkpt lat="49.6673" lon="-1.75399">
        <ele>91.199219</ele>
        <time>2019-09-02T13:09:39Z</time>
      </trkpt>
      <trkpt lat="49.66721" lon="-1.75411">
        <ele>90.597656</ele>
        <time>2019-09-02T13:09:42Z</time>
      </trkpt>
      <trkpt lat="49.66712" lon="-1.75427">
        <ele>90.097656</ele>
        <time>2019-09-02T13:09:45Z</time>
      </trkpt>
      <trkpt lat="49.66679" lon="-1.75491">
        <ele>86.296875</ele>
        <time>2019-09-02T13:09:55Z</time>
      </trkpt>
      <trkpt lat="49.66674" lon="-1.75504">
        <ele>85.796875</ele>
        <time>2019-09-02T13:09:57Z</time>
      </trkpt>
      <trkpt lat="49.6667" lon="-1.75519">
        <ele>85</ele>
        <time>2019-09-02T13:09:59Z</time>
      </trkpt>
      <trkpt lat="49.66666" lon="-1.75533">
        <ele>83.597656</ele>
        <time>2019-09-02T13:10:02Z</time>
      </trkpt>
      <trkpt lat="49.66654" lon="-1.75531">
        <ele>82.5</ele>
        <time>2019-09-02T13:10:06Z</time>
      </trkpt>
      <trkpt lat="49.66642" lon="-1.7552">
        <ele>81.398438</ele>
        <time>2019-09-02T13:10:09Z</time>
      </trkpt>
      <trkpt lat="49.66623" lon="-1.75503">
        <ele>78.296875</ele>
        <time>2019-09-02T13:10:13Z</time>
      </trkpt>
      <trkpt lat="49.6661" lon="-1.75495">
        <ele>76.699219</ele>
        <time>2019-09-02T13:10:15Z</time>
      </trkpt>
      <trkpt lat="49.66595" lon="-1.7549">
        <ele>75.296875</ele>
        <time>2019-09-02T13:10:17Z</time>
      </trkpt>
      <trkpt lat="49.66578" lon="-1.75487">
        <ele>73.898438</ele>
        <time>2019-09-02T13:10:19Z</time>
      </trkpt>
      <trkpt lat="49.66543" lon="-1.7548">
        <ele>71.796875</ele>
        <time>2019-09-02T13:10:23Z</time>
      </trkpt>
      <trkpt lat="49.66535" lon="-1.75476">
        <ele>71.296875</ele>
        <time>2019-09-02T13:10:24Z</time>
      </trkpt>
      <trkpt lat="49.66526" lon="-1.7547">
        <ele>70.597656</ele>
        <time>2019-09-02T13:10:25Z</time>
      </trkpt>
      <trkpt lat="49.66518" lon="-1.75464">
        <ele>69.699219</ele>
        <time>2019-09-02T13:10:26Z</time>
      </trkpt>
      <trkpt lat="49.6651" lon="-1.75457">
        <ele>69</ele>
        <time>2019-09-02T13:10:27Z</time>
      </trkpt>
      <trkpt lat="49.66502" lon="-1.75448">
        <ele>68.296875</ele>
        <time>2019-09-02T13:10:28Z</time>
      </trkpt>
      <trkpt lat="49.66494" lon="-1.75438">
        <ele>67.796875</ele>
        <time>2019-09-02T13:10:29Z</time>
      </trkpt>
      <trkpt lat="49.66487" lon="-1.75426">
        <ele>67.199219</ele>
        <time>2019-09-02T13:10:30Z</time>
      </trkpt>
      <trkpt lat="49.6648" lon="-1.75413">
        <ele>66.398438</ele>
        <time>2019-09-02T13:10:31Z</time>
      </trkpt>
      <trkpt lat="49.66461" lon="-1.75371">
        <ele>63.796875</ele>
        <time>2019-09-02T13:10:34Z</time>
      </trkpt>
      <trkpt lat="49.66456" lon="-1.75356">
        <ele>63.296875</ele>
        <time>2019-09-02T13:10:35Z</time>
      </trkpt>
      <trkpt lat="49.66452" lon="-1.75341">
        <ele>62.398438</ele>
        <time>2019-09-02T13:10:36Z</time>
      </trkpt>
      <trkpt lat="49.66425" lon="-1.75253">
        <ele>60.398438</ele>
        <time>2019-09-02T13:10:42Z</time>
      </trkpt>
      <trkpt lat="49.66422" lon="-1.75239">
        <ele>59.5</ele>
        <time>2019-09-02T13:10:43Z</time>
      </trkpt>
      <trkpt lat="49.6642" lon="-1.75225">
        <ele>58.199219</ele>
        <time>2019-09-02T13:10:44Z</time>
      </trkpt>
      <trkpt lat="49.66419" lon="-1.75209">
        <ele>56.898438</ele>
        <time>2019-09-02T13:10:45Z</time>
      </trkpt>
      <trkpt lat="49.66419" lon="-1.75193">
        <ele>55.597656</ele>
        <time>2019-09-02T13:10:46Z</time>
      </trkpt>
      <trkpt lat="49.66416" lon="-1.75081">
        <ele>47.796875</ele>
        <time>2019-09-02T13:10:52Z</time>
      </trkpt>
      <trkpt lat="49.66417" lon="-1.75062">
        <ele>46.898438</ele>
        <time>2019-09-02T13:10:53Z</time>
      </trkpt>
      <trkpt lat="49.66417" lon="-1.75026">
        <ele>46.097656</ele>
        <time>2019-09-02T13:10:55Z</time>
      </trkpt>
      <trkpt lat="49.66416" lon="-1.75011">
        <ele>46.296875</ele>
        <time>2019-09-02T13:10:56Z</time>
      </trkpt>
      <trkpt lat="49.66408" lon="-1.7499">
        <ele>47.398438</ele>
        <time>2019-09-02T13:10:58Z</time>
      </trkpt>
      <trkpt lat="49.66398" lon="-1.7498">
        <ele>49.5</ele>
        <time>2019-09-02T13:11:00Z</time>
      </trkpt>
      <trkpt lat="49.6638" lon="-1.74962">
        <ele>53.898438</ele>
        <time>2019-09-02T13:11:08Z</time>
      </trkpt>
      <trkpt lat="49.6637" lon="-1.74955">
        <ele>56.5</ele>
        <time>2019-09-02T13:11:14Z</time>
      </trkpt>
      <trkpt lat="49.66361" lon="-1.74954">
        <ele>59.199219</ele>
        <time>2019-09-02T13:11:19Z</time>
      </trkpt>
      <trkpt lat="49.66352" lon="-1.74955">
        <ele>61.097656</ele>
        <time>2019-09-02T13:11:25Z</time>
      </trkpt>
      <trkpt lat="49.66333" lon="-1.74957">
        <ele>64.296875</ele>
        <time>2019-09-02T13:11:38Z</time>
      </trkpt>
      <trkpt lat="49.66313" lon="-1.74954">
        <ele>66.699219</ele>
        <time>2019-09-02T13:11:50Z</time>
      </trkpt>
      <trkpt lat="49.66304" lon="-1.7495">
        <ele>67.199219</ele>
        <time>2019-09-02T13:11:56Z</time>
      </trkpt>
      <trkpt lat="49.66295" lon="-1.74946">
        <ele>68.398438</ele>
        <time>2019-09-02T13:12:02Z</time>
      </trkpt>
      <trkpt lat="49.66278" lon="-1.74936">
        <ele>70.5</ele>
        <time>2019-09-02T13:12:14Z</time>
      </trkpt>
      <trkpt lat="49.6624" lon="-1.74915">
        <ele>75.398438</ele>
        <time>2019-09-02T13:12:38Z</time>
      </trkpt>
      <trkpt lat="49.66111" lon="-1.7485">
        <ele>84.597656</ele>
        <time>2019-09-02T13:13:49Z</time>
      </trkpt>
      <trkpt lat="49.66101" lon="-1.74843">
        <ele>84.199219</ele>
        <time>2019-09-02T13:13:51Z</time>
      </trkpt>
      <trkpt lat="49.66091" lon="-1.74834">
        <ele>84.097656</ele>
        <time>2019-09-02T13:13:53Z</time>
      </trkpt>
      <trkpt lat="49.66081" lon="-1.74823">
        <ele>84.296875</ele>
        <time>2019-09-02T13:13:55Z</time>
      </trkpt>
      <trkpt lat="49.66073" lon="-1.74812">
        <ele>84.597656</ele>
        <time>2019-09-02T13:13:57Z</time>
      </trkpt>
      <trkpt lat="49.66059" lon="-1.7479">
        <ele>86.296875</ele>
        <time>2019-09-02T13:14:01Z</time>
      </trkpt>
      <trkpt lat="49.66045" lon="-1.74764">
        <ele>88.5</ele>
        <time>2019-09-02T13:14:07Z</time>
      </trkpt>
      <trkpt lat="49.66038" lon="-1.7475">
        <ele>89.296875</ele>
        <time>2019-09-02T13:14:11Z</time>
      </trkpt>
      <trkpt lat="49.6603" lon="-1.74738">
        <ele>89.398438</ele>
        <time>2019-09-02T13:14:15Z</time>
      </trkpt>
      <trkpt lat="49.66019" lon="-1.74732">
        <ele>89.699219</ele>
        <time>2019-09-02T13:14:19Z</time>
      </trkpt>
      <trkpt lat="49.66009" lon="-1.74725">
        <ele>90.699219</ele>
        <time>2019-09-02T13:14:23Z</time>
      </trkpt>
      <trkpt lat="49.66006" lon="-1.74712">
        <ele>91.398438</ele>
        <time>2019-09-02T13:14:27Z</time>
      </trkpt>
      <trkpt lat="49.66004" lon="-1.74698">
        <ele>92.5</ele>
        <time>2019-09-02T13:14:31Z</time>
      </trkpt>
      <trkpt lat="49.66003" lon="-1.74684">
        <ele>93.296875</ele>
        <time>2019-09-02T13:14:35Z</time>
      </trkpt>
      <trkpt lat="49.65998" lon="-1.74655">
        <ele>94.597656</ele>
        <time>2019-09-02T13:14:44Z</time>
      </trkpt>
      <trkpt lat="49.65997" lon="-1.74639">
        <ele>94.699219</ele>
        <time>2019-09-02T13:14:48Z</time>
      </trkpt>
      <trkpt lat="49.65999" lon="-1.74623">
        <ele>94.5</ele>
        <time>2019-09-02T13:14:52Z</time>
      </trkpt>
      <trkpt lat="49.66015" lon="-1.74493">
        <ele>100.5</ele>
        <time>2019-09-02T13:15:24Z</time>
      </trkpt>
      <trkpt lat="49.66014" lon="-1.74479">
        <ele>101.398438</ele>
        <time>2019-09-02T13:15:28Z</time>
      </trkpt>
      <trkpt lat="49.66013" lon="-1.74463">
        <ele>103.097656</ele>
        <time>2019-09-02T13:15:33Z</time>
      </trkpt>
      <trkpt lat="49.66007" lon="-1.74449">
        <ele>104.5</ele>
        <time>2019-09-02T13:15:38Z</time>
      </trkpt>
      <trkpt lat="49.66" lon="-1.74441">
        <ele>106.199219</ele>
        <time>2019-09-02T13:15:43Z</time>
      </trkpt>
      <trkpt lat="49.65989" lon="-1.74445">
        <ele>106.199219</ele>
        <time>2019-09-02T13:15:59Z</time>
      </trkpt>
      <trkpt lat="49.6598" lon="-1.74441">
        <ele>104.699219</ele>
        <time>2019-09-02T13:16:04Z</time>
      </trkpt>
      <trkpt lat="49.65981" lon="-1.74424">
        <ele>103.199219</ele>
        <time>2019-09-02T13:16:11Z</time>
      </trkpt>
      <trkpt lat="49.65983" lon="-1.74407">
        <ele>102.597656</ele>
        <time>2019-09-02T13:16:15Z</time>
      </trkpt>
      <trkpt lat="49.65982" lon="-1.74392">
        <ele>105.398438</ele>
        <time>2019-09-02T13:16:20Z</time>
      </trkpt>
      <trkpt lat="49.65981" lon="-1.74378">
        <ele>103.699219</ele>
        <time>2019-09-02T13:16:53Z</time>
      </trkpt>
      <trkpt lat="49.65978" lon="-1.74362">
        <ele>101.199219</ele>
        <time>2019-09-02T13:16:57Z</time>
      </trkpt>
      <trkpt lat="49.65973" lon="-1.74343">
        <ele>98.398438</ele>
        <time>2019-09-02T13:17:00Z</time>
      </trkpt>
      <trkpt lat="49.65959" lon="-1.7428">
        <ele>90.796875</ele>
        <time>2019-09-02T13:17:08Z</time>
      </trkpt>
      <trkpt lat="49.6595" lon="-1.74227">
        <ele>89.097656</ele>
        <time>2019-09-02T13:17:14Z</time>
      </trkpt>
      <trkpt lat="49.65948" lon="-1.74211">
        <ele>88.898438</ele>
        <time>2019-09-02T13:17:16Z</time>
      </trkpt>
      <trkpt lat="49.65948" lon="-1.74195">
        <ele>88.796875</ele>
        <time>2019-09-02T13:17:18Z</time>
      </trkpt>
      <trkpt lat="49.65948" lon="-1.7418">
        <ele>88.5</ele>
        <time>2019-09-02T13:17:20Z</time>
      </trkpt>
      <trkpt lat="49.6595" lon="-1.74167">
        <ele>87.5</ele>
        <time>2019-09-02T13:17:22Z</time>
      </trkpt>
      <trkpt lat="49.65955" lon="-1.74153">
        <ele>86</ele>
        <time>2019-09-02T13:17:24Z</time>
      </trkpt>
      <trkpt lat="49.65969" lon="-1.74125">
        <ele>82.5</ele>
        <time>2019-09-02T13:17:28Z</time>
      </trkpt>
      <trkpt lat="49.65974" lon="-1.74109">
        <ele>81.597656</ele>
        <time>2019-09-02T13:17:30Z</time>
      </trkpt>
      <trkpt lat="49.65976" lon="-1.74092">
        <ele>81</ele>
        <time>2019-09-02T13:17:32Z</time>
      </trkpt>
      <trkpt lat="49.65979" lon="-1.74078">
        <ele>80.898438</ele>
        <time>2019-09-02T13:17:34Z</time>
      </trkpt>
      <trkpt lat="49.65982" lon="-1.7406">
        <ele>80.398438</ele>
        <time>2019-09-02T13:17:37Z</time>
      </trkpt>
      <trkpt lat="49.65974" lon="-1.74048">
        <ele>79.5</ele>
        <time>2019-09-02T13:17:40Z</time>
      </trkpt>
      <trkpt lat="49.65966" lon="-1.74039">
        <ele>78.699219</ele>
        <time>2019-09-02T13:17:42Z</time>
      </trkpt>
      <trkpt lat="49.65915" lon="-1.7398">
        <ele>75.796875</ele>
        <time>2019-09-02T13:17:52Z</time>
      </trkpt>
      <trkpt lat="49.65906" lon="-1.73972">
        <ele>75.5</ele>
        <time>2019-09-02T13:17:54Z</time>
      </trkpt>
      <trkpt lat="49.65886" lon="-1.73958">
        <ele>74.296875</ele>
        <time>2019-09-02T13:17:58Z</time>
      </trkpt>
      <trkpt lat="49.65874" lon="-1.73955">
        <ele>73</ele>
        <time>2019-09-02T13:18:00Z</time>
      </trkpt>
      <trkpt lat="49.6586" lon="-1.73954">
        <ele>71.597656</ele>
        <time>2019-09-02T13:18:02Z</time>
      </trkpt>
      <trkpt lat="49.65808" lon="-1.73951">
        <ele>69.199219</ele>
        <time>2019-09-02T13:18:08Z</time>
      </trkpt>
      <trkpt lat="49.6579" lon="-1.73946">
        <ele>68.296875</ele>
        <time>2019-09-02T13:18:10Z</time>
      </trkpt>
      <trkpt lat="49.65761" lon="-1.73936">
        <ele>66.796875</ele>
        <time>2019-09-02T13:18:14Z</time>
      </trkpt>
      <trkpt lat="49.65749" lon="-1.73929">
        <ele>66.296875</ele>
        <time>2019-09-02T13:18:16Z</time>
      </trkpt>
      <trkpt lat="49.65741" lon="-1.73915">
        <ele>65.597656</ele>
        <time>2019-09-02T13:18:18Z</time>
      </trkpt>
      <trkpt lat="49.65736" lon="-1.73897">
        <ele>65.097656</ele>
        <time>2019-09-02T13:18:20Z</time>
      </trkpt>
      <trkpt lat="49.65733" lon="-1.73877">
        <ele>64.597656</ele>
        <time>2019-09-02T13:18:22Z</time>
      </trkpt>
      <trkpt lat="49.65731" lon="-1.73858">
        <ele>64.597656</ele>
        <time>2019-09-02T13:18:24Z</time>
      </trkpt>
      <trkpt lat="49.6573" lon="-1.73824">
        <ele>64.796875</ele>
        <time>2019-09-02T13:18:28Z</time>
      </trkpt>
      <trkpt lat="49.65728" lon="-1.73806">
        <ele>65</ele>
        <time>2019-09-02T13:18:31Z</time>
      </trkpt>
      <trkpt lat="49.65724" lon="-1.73791">
        <ele>65.296875</ele>
        <time>2019-09-02T13:18:35Z</time>
      </trkpt>
      <trkpt lat="49.65719" lon="-1.73779">
        <ele>66.898438</ele>
        <time>2019-09-02T13:18:39Z</time>
      </trkpt>
      <trkpt lat="49.65716" lon="-1.73762">
        <ele>67.5</ele>
        <time>2019-09-02T13:18:44Z</time>
      </trkpt>
      <trkpt lat="49.65715" lon="-1.73748">
        <ele>68.5</ele>
        <time>2019-09-02T13:18:48Z</time>
      </trkpt>
      <trkpt lat="49.65714" lon="-1.73733">
        <ele>70.597656</ele>
        <time>2019-09-02T13:18:52Z</time>
      </trkpt>
      <trkpt lat="49.65712" lon="-1.73687">
        <ele>76.699219</ele>
        <time>2019-09-02T13:19:08Z</time>
      </trkpt>
      <trkpt lat="49.6571" lon="-1.73672">
        <ele>77.898438</ele>
        <time>2019-09-02T13:19:14Z</time>
      </trkpt>
      <trkpt lat="49.65697" lon="-1.73613">
        <ele>83.898438</ele>
        <time>2019-09-02T13:19:37Z</time>
      </trkpt>
      <trkpt lat="49.65677" lon="-1.73511">
        <ele>96.296875</ele>
        <time>2019-09-02T13:20:15Z</time>
      </trkpt>
      <trkpt lat="49.65673" lon="-1.73497">
        <ele>98</ele>
        <time>2019-09-02T13:20:20Z</time>
      </trkpt>
      <trkpt lat="49.65669" lon="-1.73482">
        <ele>97.699219</ele>
        <time>2019-09-02T13:20:25Z</time>
      </trkpt>
      <trkpt lat="49.65663" lon="-1.73467">
        <ele>98</ele>
        <time>2019-09-02T13:20:30Z</time>
      </trkpt>
      <trkpt lat="49.65657" lon="-1.73453">
        <ele>97.796875</ele>
        <time>2019-09-02T13:20:34Z</time>
      </trkpt>
      <trkpt lat="49.65648" lon="-1.73444">
        <ele>97.699219</ele>
        <time>2019-09-02T13:20:38Z</time>
      </trkpt>
      <trkpt lat="49.6564" lon="-1.73454">
        <ele>98.5</ele>
        <time>2019-09-02T13:20:43Z</time>
      </trkpt>
      <trkpt lat="49.65634" lon="-1.73467">
        <ele>98.699219</ele>
        <time>2019-09-02T13:20:48Z</time>
      </trkpt>
      <trkpt lat="49.65623" lon="-1.73493">
        <ele>98.898438</ele>
        <time>2019-09-02T13:20:57Z</time>
      </trkpt>
      <trkpt lat="49.65553" lon="-1.73674">
        <ele>112.296875</ele>
        <time>2019-09-02T13:22:04Z</time>
      </trkpt>
      <trkpt lat="49.6555" lon="-1.7369">
        <ele>112.398438</ele>
        <time>2019-09-02T13:22:10Z</time>
      </trkpt>
      <trkpt lat="49.65545" lon="-1.73705">
        <ele>112.398438</ele>
        <time>2019-09-02T13:22:16Z</time>
      </trkpt>
      <trkpt lat="49.65495" lon="-1.73845">
        <ele>119.898438</ele>
        <time>2019-09-02T13:23:11Z</time>
      </trkpt>
      <trkpt lat="49.65483" lon="-1.73888">
        <ele>119.597656</ele>
        <time>2019-09-02T13:23:24Z</time>
      </trkpt>
      <trkpt lat="49.65477" lon="-1.73903">
        <ele>119.296875</ele>
        <time>2019-09-02T13:23:28Z</time>
      </trkpt>
      <trkpt lat="49.6547" lon="-1.73917">
        <ele>119.296875</ele>
        <time>2019-09-02T13:23:32Z</time>
      </trkpt>
      <trkpt lat="49.65422" lon="-1.74">
        <ele>120.597656</ele>
        <time>2019-09-02T13:23:56Z</time>
      </trkpt>
      <trkpt lat="49.65416" lon="-1.74012">
        <ele>120.898438</ele>
        <time>2019-09-02T13:23:59Z</time>
      </trkpt>
      <trkpt lat="49.65405" lon="-1.74038">
        <ele>121.796875</ele>
        <time>2019-09-02T13:24:05Z</time>
      </trkpt>
      <trkpt lat="49.65366" lon="-1.74142">
        <ele>122</ele>
        <time>2019-09-02T13:24:26Z</time>
      </trkpt>
      <trkpt lat="49.65355" lon="-1.74175">
        <ele>121.597656</ele>
        <time>2019-09-02T13:24:32Z</time>
      </trkpt>
      <trkpt lat="49.65348" lon="-1.74191">
        <ele>121.796875</ele>
        <time>2019-09-02T13:24:35Z</time>
      </trkpt>
      <trkpt lat="49.6534" lon="-1.74205">
        <ele>122.097656</ele>
        <time>2019-09-02T13:24:38Z</time>
      </trkpt>
      <trkpt lat="49.65289" lon="-1.743">
        <ele>124.398438</ele>
        <time>2019-09-02T13:24:59Z</time>
      </trkpt>
      <trkpt lat="49.65279" lon="-1.74314">
        <ele>124.398438</ele>
        <time>2019-09-02T13:25:02Z</time>
      </trkpt>
      <trkpt lat="49.65252" lon="-1.74349">
        <ele>124.597656</ele>
        <time>2019-09-02T13:25:11Z</time>
      </trkpt>
      <trkpt lat="49.65244" lon="-1.74358">
        <ele>124.097656</ele>
        <time>2019-09-02T13:25:14Z</time>
      </trkpt>
      <trkpt lat="49.65235" lon="-1.74364">
        <ele>123.898438</ele>
        <time>2019-09-02T13:25:17Z</time>
      </trkpt>
      <trkpt lat="49.65225" lon="-1.74375">
        <ele>123.398438</ele>
        <time>2019-09-02T13:25:21Z</time>
      </trkpt>
      <trkpt lat="49.65139" lon="-1.74469">
        <ele>118.597656</ele>
        <time>2019-09-02T13:25:41Z</time>
      </trkpt>
      <trkpt lat="49.65094" lon="-1.74526">
        <ele>114.597656</ele>
        <time>2019-09-02T13:25:49Z</time>
      </trkpt>
      <trkpt lat="49.6508" lon="-1.7454">
        <ele>113.398438</ele>
        <time>2019-09-02T13:25:51Z</time>
      </trkpt>
      <trkpt lat="49.65066" lon="-1.74552">
        <ele>112.898438</ele>
        <time>2019-09-02T13:25:53Z</time>
      </trkpt>
      <trkpt lat="49.64982" lon="-1.74617">
        <ele>110.199219</ele>
        <time>2019-09-02T13:26:05Z</time>
      </trkpt>
      <trkpt lat="49.6497" lon="-1.74626">
        <ele>110.199219</ele>
        <time>2019-09-02T13:26:07Z</time>
      </trkpt>
      <trkpt lat="49.64958" lon="-1.74632">
        <ele>110</ele>
        <time>2019-09-02T13:26:09Z</time>
      </trkpt>
      <trkpt lat="49.64903" lon="-1.7466">
        <ele>111.097656</ele>
        <time>2019-09-02T13:26:19Z</time>
      </trkpt>
      <trkpt lat="49.64827" lon="-1.74711">
        <ele>118</ele>
        <time>2019-09-02T13:26:47Z</time>
      </trkpt>
      <trkpt lat="49.64809" lon="-1.74719">
        <ele>120.398438</ele>
        <time>2019-09-02T13:26:58Z</time>
      </trkpt>
      <trkpt lat="49.648" lon="-1.74721">
        <ele>121.5</ele>
        <time>2019-09-02T13:27:04Z</time>
      </trkpt>
      <trkpt lat="49.64734" lon="-1.74736">
        <ele>129.097656</ele>
        <time>2019-09-02T13:27:46Z</time>
      </trkpt>
      <trkpt lat="49.64714" lon="-1.74737">
        <ele>130.699219</ele>
        <time>2019-09-02T13:27:58Z</time>
      </trkpt>
      <trkpt lat="49.64694" lon="-1.74737">
        <ele>132.097656</ele>
        <time>2019-09-02T13:28:10Z</time>
      </trkpt>
      <trkpt lat="49.64653" lon="-1.74733">
        <ele>132</ele>
        <time>2019-09-02T13:28:30Z</time>
      </trkpt>
      <trkpt lat="49.64522" lon="-1.74991">
        <ele>140.4375</ele>
        <time>2019-09-02T13:32:03Z</time>
      </trkpt>
      <trkpt lat="49.64532" lon="-1.74988">
        <ele>135.296875</ele>
        <time>2019-09-02T14:25:55Z</time>
      </trkpt>
      <trkpt lat="49.64536" lon="-1.74973">
        <ele>135.597656</ele>
        <time>2019-09-02T14:26:00Z</time>
      </trkpt>
      <trkpt lat="49.64539" lon="-1.74959">
        <ele>135</ele>
        <time>2019-09-02T14:26:04Z</time>
      </trkpt>
      <trkpt lat="49.64538" lon="-1.74942">
        <ele>133.898438</ele>
        <time>2019-09-02T14:26:08Z</time>
      </trkpt>
      <trkpt lat="49.64529" lon="-1.74938">
        <ele>133.5</ele>
        <time>2019-09-02T14:26:12Z</time>
      </trkpt>
      <trkpt lat="49.64524" lon="-1.74953">
        <ele>133.097656</ele>
        <time>2019-09-02T14:26:17Z</time>
      </trkpt>
      <trkpt lat="49.64521" lon="-1.74971">
        <ele>132.796875</ele>
        <time>2019-09-02T14:26:21Z</time>
      </trkpt>
      <trkpt lat="49.64506" lon="-1.75061">
        <ele>130.898438</ele>
        <time>2019-09-02T14:26:39Z</time>
      </trkpt>
      <trkpt lat="49.64494" lon="-1.75116">
        <ele>132.796875</ele>
        <time>2019-09-02T14:26:55Z</time>
      </trkpt>
      <trkpt lat="49.64472" lon="-1.75219">
        <ele>132.097656</ele>
        <time>2019-09-02T14:27:35Z</time>
      </trkpt>
      <trkpt lat="49.6447" lon="-1.75234">
        <ele>132.398438</ele>
        <time>2019-09-02T14:27:38Z</time>
      </trkpt>
      <trkpt lat="49.64457" lon="-1.75347">
        <ele>129.898438</ele>
        <time>2019-09-02T14:27:59Z</time>
      </trkpt>
      <trkpt lat="49.64436" lon="-1.7554">
        <ele>134.398438</ele>
        <time>2019-09-02T14:28:39Z</time>
      </trkpt>
      <trkpt lat="49.64433" lon="-1.75557">
        <ele>135.199219</ele>
        <time>2019-09-02T14:28:43Z</time>
      </trkpt>
      <trkpt lat="49.64415" lon="-1.75656">
        <ele>139.5</ele>
        <time>2019-09-02T14:29:07Z</time>
      </trkpt>
      <trkpt lat="49.64409" lon="-1.75716">
        <ele>142.597656</ele>
        <time>2019-09-02T14:29:24Z</time>
      </trkpt>
      <trkpt lat="49.64408" lon="-1.75733">
        <ele>142.699219</ele>
        <time>2019-09-02T14:29:29Z</time>
      </trkpt>
      <trkpt lat="49.64408" lon="-1.75749">
        <ele>142.296875</ele>
        <time>2019-09-02T14:29:34Z</time>
      </trkpt>
      <trkpt lat="49.6441" lon="-1.75765">
        <ele>141.699219</ele>
        <time>2019-09-02T14:29:39Z</time>
      </trkpt>
      <trkpt lat="49.64413" lon="-1.75794">
        <ele>142.5</ele>
        <time>2019-09-02T14:29:48Z</time>
      </trkpt>
      <trkpt lat="49.64431" lon="-1.75935">
        <ele>146</ele>
        <time>2019-09-02T14:30:26Z</time>
      </trkpt>
      <trkpt lat="49.64433" lon="-1.75949">
        <ele>146.097656</ele>
        <time>2019-09-02T14:30:30Z</time>
      </trkpt>
      <trkpt lat="49.64438" lon="-1.75979">
        <ele>150</ele>
        <time>2019-09-02T14:31:05Z</time>
      </trkpt>
      <trkpt lat="49.64439" lon="-1.75993">
        <ele>150.398438</ele>
        <time>2019-09-02T14:31:09Z</time>
      </trkpt>
      <trkpt lat="49.64443" lon="-1.76023">
        <ele>151</ele>
        <time>2019-09-02T14:31:16Z</time>
      </trkpt>
      <trkpt lat="49.64459" lon="-1.76134">
        <ele>152.796875</ele>
        <time>2019-09-02T14:31:37Z</time>
      </trkpt>
      <trkpt lat="49.6447" lon="-1.76183">
        <ele>152.796875</ele>
        <time>2019-09-02T14:31:46Z</time>
      </trkpt>
      <trkpt lat="49.64477" lon="-1.76214">
        <ele>152.699219</ele>
        <time>2019-09-02T14:31:52Z</time>
      </trkpt>
      <trkpt lat="49.64485" lon="-1.76243">
        <ele>152.796875</ele>
        <time>2019-09-02T14:31:58Z</time>
      </trkpt>
      <trkpt lat="49.64551" lon="-1.76484">
        <ele>153.5</ele>
        <time>2019-09-02T14:32:40Z</time>
      </trkpt>
      <trkpt lat="49.64553" lon="-1.76499">
        <ele>153.398438</ele>
        <time>2019-09-02T14:32:42Z</time>
      </trkpt>
      <trkpt lat="49.64555" lon="-1.76515">
        <ele>153.199219</ele>
        <time>2019-09-02T14:32:44Z</time>
      </trkpt>
      <trkpt lat="49.64557" lon="-1.76548">
        <ele>153.097656</ele>
        <time>2019-09-02T14:32:48Z</time>
      </trkpt>
      <trkpt lat="49.64558" lon="-1.76581">
        <ele>156.398438</ele>
        <time>2019-09-02T14:33:11Z</time>
      </trkpt>
      <trkpt lat="49.64558" lon="-1.76598">
        <ele>157.097656</ele>
        <time>2019-09-02T14:33:15Z</time>
      </trkpt>
      <trkpt lat="49.64558" lon="-1.76658">
        <ele>159.398438</ele>
        <time>2019-09-02T14:33:24Z</time>
      </trkpt>
      <trkpt lat="49.64558" lon="-1.76678">
        <ele>159.796875</ele>
        <time>2019-09-02T14:33:27Z</time>
      </trkpt>
      <trkpt lat="49.64569" lon="-1.77082">
        <ele>158.699219</ele>
        <time>2019-09-02T14:34:36Z</time>
      </trkpt>
      <trkpt lat="49.64566" lon="-1.771">
        <ele>158.097656</ele>
        <time>2019-09-02T14:34:39Z</time>
      </trkpt>
      <trkpt lat="49.64564" lon="-1.77119">
        <ele>158.5</ele>
        <time>2019-09-02T14:34:42Z</time>
      </trkpt>
      <trkpt lat="49.64566" lon="-1.77134">
        <ele>158.796875</ele>
        <time>2019-09-02T14:34:45Z</time>
      </trkpt>
      <trkpt lat="49.64573" lon="-1.77144">
        <ele>159.398438</ele>
        <time>2019-09-02T14:34:50Z</time>
      </trkpt>
      <trkpt lat="49.64576" lon="-1.77157">
        <ele>159.5</ele>
        <time>2019-09-02T14:34:55Z</time>
      </trkpt>
      <trkpt lat="49.64587" lon="-1.77203">
        <ele>157.296875</ele>
        <time>2019-09-02T14:35:11Z</time>
      </trkpt>
      <trkpt lat="49.64589" lon="-1.77217">
        <ele>157.398438</ele>
        <time>2019-09-02T14:35:17Z</time>
      </trkpt>
      <trkpt lat="49.64593" lon="-1.77229">
        <ele>156.898438</ele>
        <time>2019-09-02T14:35:21Z</time>
      </trkpt>
      <trkpt lat="49.64602" lon="-1.77257">
        <ele>155.5</ele>
        <time>2019-09-02T14:35:30Z</time>
      </trkpt>
      <trkpt lat="49.64627" lon="-1.77346">
        <ele>155.097656</ele>
        <time>2019-09-02T14:35:56Z</time>
      </trkpt>
      <trkpt lat="49.64632" lon="-1.77358">
        <ele>155.097656</ele>
        <time>2019-09-02T14:35:59Z</time>
      </trkpt>
      <trkpt lat="49.64644" lon="-1.77383">
        <ele>154.699219</ele>
        <time>2019-09-02T14:36:05Z</time>
      </trkpt>
      <trkpt lat="49.64652" lon="-1.77396">
        <ele>154.5</ele>
        <time>2019-09-02T14:36:08Z</time>
      </trkpt>
      <trkpt lat="49.64666" lon="-1.77421">
        <ele>154</ele>
        <time>2019-09-02T14:36:14Z</time>
      </trkpt>
      <trkpt lat="49.64672" lon="-1.77433">
        <ele>153.296875</ele>
        <time>2019-09-02T14:36:17Z</time>
      </trkpt>
      <trkpt lat="49.64678" lon="-1.7745">
        <ele>152.296875</ele>
        <time>2019-09-02T14:36:20Z</time>
      </trkpt>
      <trkpt lat="49.64683" lon="-1.77467">
        <ele>150.699219</ele>
        <time>2019-09-02T14:36:23Z</time>
      </trkpt>
      <trkpt lat="49.6469" lon="-1.77499">
        <ele>148.699219</ele>
        <time>2019-09-02T14:36:28Z</time>
      </trkpt>
      <trkpt lat="49.64695" lon="-1.77513">
        <ele>147.796875</ele>
        <time>2019-09-02T14:36:30Z</time>
      </trkpt>
      <trkpt lat="49.64703" lon="-1.77527">
        <ele>147.199219</ele>
        <time>2019-09-02T14:36:32Z</time>
      </trkpt>
      <trkpt lat="49.64714" lon="-1.77538">
        <ele>146.597656</ele>
        <time>2019-09-02T14:36:34Z</time>
      </trkpt>
      <trkpt lat="49.64739" lon="-1.77557">
        <ele>144.699219</ele>
        <time>2019-09-02T14:36:38Z</time>
      </trkpt>
      <trkpt lat="49.64749" lon="-1.77573">
        <ele>143.199219</ele>
        <time>2019-09-02T14:36:40Z</time>
      </trkpt>
      <trkpt lat="49.64753" lon="-1.77594">
        <ele>141.296875</ele>
        <time>2019-09-02T14:36:42Z</time>
      </trkpt>
      <trkpt lat="49.64754" lon="-1.77615">
        <ele>139.898438</ele>
        <time>2019-09-02T14:36:44Z</time>
      </trkpt>
      <trkpt lat="49.64751" lon="-1.77638">
        <ele>139.097656</ele>
        <time>2019-09-02T14:36:46Z</time>
      </trkpt>
      <trkpt lat="49.64749" lon="-1.77662">
        <ele>138.199219</ele>
        <time>2019-09-02T14:36:48Z</time>
      </trkpt>
      <trkpt lat="49.64749" lon="-1.77687">
        <ele>137</ele>
        <time>2019-09-02T14:36:50Z</time>
      </trkpt>
      <trkpt lat="49.64752" lon="-1.77712">
        <ele>136.699219</ele>
        <time>2019-09-02T14:36:52Z</time>
      </trkpt>
      <trkpt lat="49.64758" lon="-1.77735">
        <ele>136.699219</ele>
        <time>2019-09-02T14:36:54Z</time>
      </trkpt>
      <trkpt lat="49.64765" lon="-1.77756">
        <ele>136.699219</ele>
        <time>2019-09-02T14:36:56Z</time>
      </trkpt>
      <trkpt lat="49.64774" lon="-1.77776">
        <ele>136.398438</ele>
        <time>2019-09-02T14:36:58Z</time>
      </trkpt>
      <trkpt lat="49.64782" lon="-1.77793">
        <ele>136.097656</ele>
        <time>2019-09-02T14:37:00Z</time>
      </trkpt>
      <trkpt lat="49.64791" lon="-1.77808">
        <ele>135.199219</ele>
        <time>2019-09-02T14:37:02Z</time>
      </trkpt>
      <trkpt lat="49.64801" lon="-1.77823">
        <ele>134.398438</ele>
        <time>2019-09-02T14:37:04Z</time>
      </trkpt>
      <trkpt lat="49.64869" lon="-1.77912">
        <ele>126.699219</ele>
        <time>2019-09-02T14:37:18Z</time>
      </trkpt>
      <trkpt lat="49.64878" lon="-1.77914">
        <ele>126.796875</ele>
        <time>2019-09-02T14:37:20Z</time>
      </trkpt>
      <trkpt lat="49.64888" lon="-1.7791">
        <ele>126.699219</ele>
        <time>2019-09-02T14:37:22Z</time>
      </trkpt>
      <trkpt lat="49.64899" lon="-1.77907">
        <ele>126.597656</ele>
        <time>2019-09-02T14:37:24Z</time>
      </trkpt>
      <trkpt lat="49.64911" lon="-1.77908">
        <ele>126.898438</ele>
        <time>2019-09-02T14:37:26Z</time>
      </trkpt>
      <trkpt lat="49.64923" lon="-1.7791">
        <ele>127.097656</ele>
        <time>2019-09-02T14:37:28Z</time>
      </trkpt>
      <trkpt lat="49.64936" lon="-1.77913">
        <ele>126.796875</ele>
        <time>2019-09-02T14:37:30Z</time>
      </trkpt>
      <trkpt lat="49.64949" lon="-1.77917">
        <ele>125.796875</ele>
        <time>2019-09-02T14:37:32Z</time>
      </trkpt>
      <trkpt lat="49.64961" lon="-1.77923">
        <ele>125.699219</ele>
        <time>2019-09-02T14:37:34Z</time>
      </trkpt>
      <trkpt lat="49.64973" lon="-1.77933">
        <ele>125.898438</ele>
        <time>2019-09-02T14:37:36Z</time>
      </trkpt>
      <trkpt lat="49.64984" lon="-1.77944">
        <ele>126.097656</ele>
        <time>2019-09-02T14:37:38Z</time>
      </trkpt>
      <trkpt lat="49.65004" lon="-1.77968">
        <ele>126.898438</ele>
        <time>2019-09-02T14:37:42Z</time>
      </trkpt>
      <trkpt lat="49.65015" lon="-1.77973">
        <ele>127.699219</ele>
        <time>2019-09-02T14:37:44Z</time>
      </trkpt>
      <trkpt lat="49.65025" lon="-1.77973">
        <ele>128</ele>
        <time>2019-09-02T14:37:46Z</time>
      </trkpt>
      <trkpt lat="49.65105" lon="-1.77973">
        <ele>126.898438</ele>
        <time>2019-09-02T14:38:02Z</time>
      </trkpt>
      <trkpt lat="49.65118" lon="-1.77971">
        <ele>126.5</ele>
        <time>2019-09-02T14:38:04Z</time>
      </trkpt>
      <trkpt lat="49.65131" lon="-1.77968">
        <ele>126</ele>
        <time>2019-09-02T14:38:06Z</time>
      </trkpt>
      <trkpt lat="49.65143" lon="-1.77963">
        <ele>125.699219</ele>
        <time>2019-09-02T14:38:08Z</time>
      </trkpt>
      <trkpt lat="49.65156" lon="-1.77956">
        <ele>125.199219</ele>
        <time>2019-09-02T14:38:10Z</time>
      </trkpt>
      <trkpt lat="49.65168" lon="-1.77948">
        <ele>124.898438</ele>
        <time>2019-09-02T14:38:12Z</time>
      </trkpt>
      <trkpt lat="49.65224" lon="-1.77906">
        <ele>123.796875</ele>
        <time>2019-09-02T14:38:22Z</time>
      </trkpt>
      <trkpt lat="49.65235" lon="-1.77901">
        <ele>124</ele>
        <time>2019-09-02T14:38:24Z</time>
      </trkpt>
      <trkpt lat="49.65246" lon="-1.77898">
        <ele>123.898438</ele>
        <time>2019-09-02T14:38:26Z</time>
      </trkpt>
      <trkpt lat="49.65256" lon="-1.77898">
        <ele>125.296875</ele>
        <time>2019-09-02T14:38:28Z</time>
      </trkpt>
      <trkpt lat="49.65267" lon="-1.77903">
        <ele>125.597656</ele>
        <time>2019-09-02T14:38:31Z</time>
      </trkpt>
      <trkpt lat="49.65277" lon="-1.77911">
        <ele>126.796875</ele>
        <time>2019-09-02T14:38:35Z</time>
      </trkpt>
      <trkpt lat="49.65285" lon="-1.77919">
        <ele>126.199219</ele>
        <time>2019-09-02T14:38:39Z</time>
      </trkpt>
      <trkpt lat="49.65318" lon="-1.77958">
        <ele>131.199219</ele>
        <time>2019-09-02T14:39:02Z</time>
      </trkpt>
      <trkpt lat="49.65365" lon="-1.78014">
        <ele>135.796875</ele>
        <time>2019-09-02T14:39:36Z</time>
      </trkpt>
      <trkpt lat="49.65373" lon="-1.78021">
        <ele>137.699219</ele>
        <time>2019-09-02T14:39:41Z</time>
      </trkpt>
      <trkpt lat="49.65382" lon="-1.78024">
        <ele>138.597656</ele>
        <time>2019-09-02T14:39:46Z</time>
      </trkpt>
      <trkpt lat="49.65392" lon="-1.78026">
        <ele>138.898438</ele>
        <time>2019-09-02T14:39:52Z</time>
      </trkpt>
      <trkpt lat="49.65402" lon="-1.78025">
        <ele>138.898438</ele>
        <time>2019-09-02T14:39:58Z</time>
      </trkpt>
      <trkpt lat="49.65442" lon="-1.78023">
        <ele>142</ele>
        <time>2019-09-02T14:40:21Z</time>
      </trkpt>
      <trkpt lat="49.65451" lon="-1.78025">
        <ele>141.898438</ele>
        <time>2019-09-02T14:40:27Z</time>
      </trkpt>
      <trkpt lat="49.6546" lon="-1.7803">
        <ele>141.296875</ele>
        <time>2019-09-02T14:40:35Z</time>
      </trkpt>
      <trkpt lat="49.65489" lon="-1.78044">
        <ele>143.699219</ele>
        <time>2019-09-02T14:40:52Z</time>
      </trkpt>
      <trkpt lat="49.65536" lon="-1.78069">
        <ele>145.296875</ele>
        <time>2019-09-02T14:41:20Z</time>
      </trkpt>
      <trkpt lat="49.65544" lon="-1.78076">
        <ele>140.296875</ele>
        <time>2019-09-02T14:41:25Z</time>
      </trkpt>
      <trkpt lat="49.65544" lon="-1.78094">
        <ele>141.597656</ele>
        <time>2019-09-02T14:44:16Z</time>
      </trkpt>
      <trkpt lat="49.65541" lon="-1.78109">
        <ele>143.699219</ele>
        <time>2019-09-02T14:44:21Z</time>
      </trkpt>
      <trkpt lat="49.65539" lon="-1.78126">
        <ele>144.796875</ele>
        <time>2019-09-02T14:44:25Z</time>
      </trkpt>
      <trkpt lat="49.65524" lon="-1.78254">
        <ele>147.296875</ele>
        <time>2019-09-02T14:44:46Z</time>
      </trkpt>
      <trkpt lat="49.65522" lon="-1.78272">
        <ele>147.597656</ele>
        <time>2019-09-02T14:44:49Z</time>
      </trkpt>
      <trkpt lat="49.65523" lon="-1.78292">
        <ele>147.597656</ele>
        <time>2019-09-02T14:44:52Z</time>
      </trkpt>
      <trkpt lat="49.65526" lon="-1.78358">
        <ele>146.5</ele>
        <time>2019-09-02T14:45:00Z</time>
      </trkpt>
      <trkpt lat="49.65528" lon="-1.78376">
        <ele>146.5</ele>
        <time>2019-09-02T14:45:02Z</time>
      </trkpt>
      <trkpt lat="49.65546" lon="-1.78512">
        <ele>150.296875</ele>
        <time>2019-09-02T14:45:19Z</time>
      </trkpt>
      <trkpt lat="49.65547" lon="-1.7853">
        <ele>150.699219</ele>
        <time>2019-09-02T14:45:22Z</time>
      </trkpt>
      <trkpt lat="49.65547" lon="-1.78548">
        <ele>150.699219</ele>
        <time>2019-09-02T14:45:25Z</time>
      </trkpt>
      <trkpt lat="49.65546" lon="-1.78567">
        <ele>150.597656</ele>
        <time>2019-09-02T14:45:28Z</time>
      </trkpt>
      <trkpt lat="49.65543" lon="-1.78587">
        <ele>150.5</ele>
        <time>2019-09-02T14:45:31Z</time>
      </trkpt>
      <trkpt lat="49.65537" lon="-1.786">
        <ele>150.296875</ele>
        <time>2019-09-02T14:45:33Z</time>
      </trkpt>
      <trkpt lat="49.65531" lon="-1.78611">
        <ele>150.199219</ele>
        <time>2019-09-02T14:45:35Z</time>
      </trkpt>
      <trkpt lat="49.65509" lon="-1.78646">
        <ele>149.898438</ele>
        <time>2019-09-02T14:45:41Z</time>
      </trkpt>
      <trkpt lat="49.65502" lon="-1.7866">
        <ele>149.898438</ele>
        <time>2019-09-02T14:45:43Z</time>
      </trkpt>
      <trkpt lat="49.65496" lon="-1.78674">
        <ele>150</ele>
        <time>2019-09-02T14:45:45Z</time>
      </trkpt>
      <trkpt lat="49.65491" lon="-1.7869">
        <ele>150.097656</ele>
        <time>2019-09-02T14:45:47Z</time>
      </trkpt>
      <trkpt lat="49.65468" lon="-1.78764">
        <ele>150.898438</ele>
        <time>2019-09-02T14:45:57Z</time>
      </trkpt>
      <trkpt lat="49.65465" lon="-1.78779">
        <ele>151.199219</ele>
        <time>2019-09-02T14:45:59Z</time>
      </trkpt>
      <trkpt lat="49.65451" lon="-1.78874">
        <ele>152.699219</ele>
        <time>2019-09-02T14:46:12Z</time>
      </trkpt>
      <trkpt lat="49.65442" lon="-1.78911">
        <ele>153.296875</ele>
        <time>2019-09-02T14:46:18Z</time>
      </trkpt>
      <trkpt lat="49.65428" lon="-1.78964">
        <ele>153.898438</ele>
        <time>2019-09-02T14:46:27Z</time>
      </trkpt>
      <trkpt lat="49.65424" lon="-1.78983">
        <ele>154.199219</ele>
        <time>2019-09-02T14:46:30Z</time>
      </trkpt>
      <trkpt lat="49.65412" lon="-1.79058">
        <ele>154.898438</ele>
        <time>2019-09-02T14:46:42Z</time>
      </trkpt>
      <trkpt lat="49.65407" lon="-1.79073">
        <ele>155.699219</ele>
        <time>2019-09-02T14:46:45Z</time>
      </trkpt>
      <trkpt lat="49.65402" lon="-1.79087">
        <ele>156.296875</ele>
        <time>2019-09-02T14:46:48Z</time>
      </trkpt>
      <trkpt lat="49.65396" lon="-1.791">
        <ele>156.597656</ele>
        <time>2019-09-02T14:46:51Z</time>
      </trkpt>
      <trkpt lat="49.65388" lon="-1.79113">
        <ele>157</ele>
        <time>2019-09-02T14:46:55Z</time>
      </trkpt>
      <trkpt lat="49.6536" lon="-1.79156">
        <ele>155.699219</ele>
        <time>2019-09-02T14:47:11Z</time>
      </trkpt>
      <trkpt lat="49.65289" lon="-1.7925">
        <ele>155.898438</ele>
        <time>2019-09-02T14:47:47Z</time>
      </trkpt>
      <trkpt lat="49.65236" lon="-1.79306">
        <ele>156.097656</ele>
        <time>2019-09-02T14:48:06Z</time>
      </trkpt>
      <trkpt lat="49.6517" lon="-1.79365">
        <ele>155.5</ele>
        <time>2019-09-02T14:48:23Z</time>
      </trkpt>
      <trkpt lat="49.65162" lon="-1.79378">
        <ele>155.597656</ele>
        <time>2019-09-02T14:48:26Z</time>
      </trkpt>
      <trkpt lat="49.65157" lon="-1.79391">
        <ele>155.597656</ele>
        <time>2019-09-02T14:48:29Z</time>
      </trkpt>
      <trkpt lat="49.65158" lon="-1.79407">
        <ele>155.597656</ele>
        <time>2019-09-02T14:48:32Z</time>
      </trkpt>
      <trkpt lat="49.65162" lon="-1.79424">
        <ele>155.699219</ele>
        <time>2019-09-02T14:48:35Z</time>
      </trkpt>
      <trkpt lat="49.65166" lon="-1.79436">
        <ele>155.796875</ele>
        <time>2019-09-02T14:48:37Z</time>
      </trkpt>
      <trkpt lat="49.65429" lon="-1.80121">
        <ele>161</ele>
        <time>2019-09-02T14:51:12Z</time>
      </trkpt>
      <trkpt lat="49.65433" lon="-1.80138">
        <ele>161.296875</ele>
        <time>2019-09-02T14:51:15Z</time>
      </trkpt>
      <trkpt lat="49.65434" lon="-1.80157">
        <ele>161.5</ele>
        <time>2019-09-02T14:51:18Z</time>
      </trkpt>
      <trkpt lat="49.6543" lon="-1.80177">
        <ele>161.796875</ele>
        <time>2019-09-02T14:51:21Z</time>
      </trkpt>
      <trkpt lat="49.65422" lon="-1.80193">
        <ele>161.898438</ele>
        <time>2019-09-02T14:51:24Z</time>
      </trkpt>
      <trkpt lat="49.65412" lon="-1.80206">
        <ele>162</ele>
        <time>2019-09-02T14:51:27Z</time>
      </trkpt>
      <trkpt lat="49.65396" lon="-1.8022">
        <ele>162.097656</ele>
        <time>2019-09-02T14:51:31Z</time>
      </trkpt>
      <trkpt lat="49.65378" lon="-1.80234">
        <ele>161.898438</ele>
        <time>2019-09-02T14:51:35Z</time>
      </trkpt>
      <trkpt lat="49.65349" lon="-1.80257">
        <ele>162.796875</ele>
        <time>2019-09-02T14:51:42Z</time>
      </trkpt>
      <trkpt lat="49.65337" lon="-1.80265">
        <ele>163.097656</ele>
        <time>2019-09-02T14:51:45Z</time>
      </trkpt>
      <trkpt lat="49.65315" lon="-1.80278">
        <ele>164</ele>
        <time>2019-09-02T14:51:51Z</time>
      </trkpt>
      <trkpt lat="49.65304" lon="-1.80282">
        <ele>164.296875</ele>
        <time>2019-09-02T14:51:54Z</time>
      </trkpt>
      <trkpt lat="49.65294" lon="-1.80286">
        <ele>164.796875</ele>
        <time>2019-09-02T14:51:57Z</time>
      </trkpt>
      <trkpt lat="49.65284" lon="-1.80288">
        <ele>165.296875</ele>
        <time>2019-09-02T14:52:00Z</time>
      </trkpt>
      <trkpt lat="49.65275" lon="-1.80294">
        <ele>166.097656</ele>
        <time>2019-09-02T14:52:03Z</time>
      </trkpt>
      <trkpt lat="49.65276" lon="-1.8031">
        <ele>166.097656</ele>
        <time>2019-09-02T14:52:07Z</time>
      </trkpt>
      <trkpt lat="49.65285" lon="-1.80313">
        <ele>166.097656</ele>
        <time>2019-09-02T14:52:10Z</time>
      </trkpt>
      <trkpt lat="49.65296" lon="-1.8031">
        <ele>166</ele>
        <time>2019-09-02T14:52:13Z</time>
      </trkpt>
      <trkpt lat="49.65307" lon="-1.80307">
        <ele>165.898438</ele>
        <time>2019-09-02T14:52:16Z</time>
      </trkpt>
      <trkpt lat="49.65319" lon="-1.80307">
        <ele>165.796875</ele>
        <time>2019-09-02T14:52:19Z</time>
      </trkpt>
      <trkpt lat="49.65333" lon="-1.80311">
        <ele>165.796875</ele>
        <time>2019-09-02T14:52:22Z</time>
      </trkpt>
      <trkpt lat="49.65341" lon="-1.80316">
        <ele>166</ele>
        <time>2019-09-02T14:52:24Z</time>
      </trkpt>
      <trkpt lat="49.65349" lon="-1.80323">
        <ele>166.199219</ele>
        <time>2019-09-02T14:52:26Z</time>
      </trkpt>
      <trkpt lat="49.65356" lon="-1.80332">
        <ele>166.199219</ele>
        <time>2019-09-02T14:52:28Z</time>
      </trkpt>
      <trkpt lat="49.65366" lon="-1.80346">
        <ele>166.296875</ele>
        <time>2019-09-02T14:52:31Z</time>
      </trkpt>
      <trkpt lat="49.65375" lon="-1.80362">
        <ele>166.398438</ele>
        <time>2019-09-02T14:52:34Z</time>
      </trkpt>
      <trkpt lat="49.65392" lon="-1.80395">
        <ele>166.699219</ele>
        <time>2019-09-02T14:52:40Z</time>
      </trkpt>
      <trkpt lat="49.65403" lon="-1.8042">
        <ele>166.699219</ele>
        <time>2019-09-02T14:52:44Z</time>
      </trkpt>
      <trkpt lat="49.65446" lon="-1.8054">
        <ele>165.398438</ele>
        <time>2019-09-02T14:53:00Z</time>
      </trkpt>
      <trkpt lat="49.65469" lon="-1.80615">
        <ele>162.898438</ele>
        <time>2019-09-02T14:53:08Z</time>
      </trkpt>
      <trkpt lat="49.65548" lon="-1.80877">
        <ele>161.5</ele>
        <time>2019-09-02T14:53:36Z</time>
      </trkpt>
      <trkpt lat="49.65558" lon="-1.80931">
        <ele>159.398438</ele>
        <time>2019-09-02T14:53:42Z</time>
      </trkpt>
      <trkpt lat="49.65567" lon="-1.80943">
        <ele>159</ele>
        <time>2019-09-02T14:53:44Z</time>
      </trkpt>
      <trkpt lat="49.65579" lon="-1.80944">
        <ele>158.296875</ele>
        <time>2019-09-02T14:53:46Z</time>
      </trkpt>
      <trkpt lat="49.65589" lon="-1.80936">
        <ele>158</ele>
        <time>2019-09-02T14:53:48Z</time>
      </trkpt>
      <trkpt lat="49.65597" lon="-1.80928">
        <ele>158.5</ele>
        <time>2019-09-02T14:53:50Z</time>
      </trkpt>
      <trkpt lat="49.65609" lon="-1.8093">
        <ele>159.199219</ele>
        <time>2019-09-02T14:53:53Z</time>
      </trkpt>
      <trkpt lat="49.65618" lon="-1.80939">
        <ele>160.199219</ele>
        <time>2019-09-02T14:53:56Z</time>
      </trkpt>
      <trkpt lat="49.65625" lon="-1.80953">
        <ele>160.796875</ele>
        <time>2019-09-02T14:54:00Z</time>
      </trkpt>
      <trkpt lat="49.65662" lon="-1.81024">
        <ele>164.699219</ele>
        <time>2019-09-02T14:54:24Z</time>
      </trkpt>
      <trkpt lat="49.65671" lon="-1.81029">
        <ele>164.898438</ele>
        <time>2019-09-02T14:54:28Z</time>
      </trkpt>
      <trkpt lat="49.6568" lon="-1.81027">
        <ele>165</ele>
        <time>2019-09-02T14:54:32Z</time>
      </trkpt>
      <trkpt lat="49.6569" lon="-1.81021">
        <ele>165</ele>
        <time>2019-09-02T14:54:36Z</time>
      </trkpt>
      <trkpt lat="49.65903" lon="-1.80902">
        <ele>161.296875</ele>
        <time>2019-09-02T14:55:25Z</time>
      </trkpt>
      <trkpt lat="49.65915" lon="-1.80899">
        <ele>161.199219</ele>
        <time>2019-09-02T14:55:27Z</time>
      </trkpt>
      <trkpt lat="49.65927" lon="-1.80897">
        <ele>160.796875</ele>
        <time>2019-09-02T14:55:29Z</time>
      </trkpt>
      <trkpt lat="49.66051" lon="-1.80887">
        <ele>155.898438</ele>
        <time>2019-09-02T14:55:49Z</time>
      </trkpt>
      <trkpt lat="49.66064" lon="-1.80883">
        <ele>155.796875</ele>
        <time>2019-09-02T14:55:51Z</time>
      </trkpt>
      <trkpt lat="49.66077" lon="-1.80878">
        <ele>155.296875</ele>
        <time>2019-09-02T14:55:53Z</time>
      </trkpt>
      <trkpt lat="49.66131" lon="-1.80855">
        <ele>153.699219</ele>
        <time>2019-09-02T14:56:01Z</time>
      </trkpt>
      <trkpt lat="49.66152" lon="-1.80849">
        <ele>151.699219</ele>
        <time>2019-09-02T14:56:05Z</time>
      </trkpt>
      <trkpt lat="49.66161" lon="-1.80854">
        <ele>150.796875</ele>
        <time>2019-09-02T14:56:08Z</time>
      </trkpt>
      <trkpt lat="49.66162" lon="-1.80869">
        <ele>150.796875</ele>
        <time>2019-09-02T14:56:12Z</time>
      </trkpt>
      <trkpt lat="49.66159" lon="-1.80882">
        <ele>150.898438</ele>
        <time>2019-09-02T14:56:15Z</time>
      </trkpt>
      <trkpt lat="49.66144" lon="-1.80938">
        <ele>151.097656</ele>
        <time>2019-09-02T14:56:27Z</time>
      </trkpt>
      <trkpt lat="49.66139" lon="-1.80951">
        <ele>151.398438</ele>
        <time>2019-09-02T14:56:30Z</time>
      </trkpt>
      <trkpt lat="49.66133" lon="-1.80961">
        <ele>152.199219</ele>
        <time>2019-09-02T14:56:33Z</time>
      </trkpt>
      <trkpt lat="49.66124" lon="-1.8097">
        <ele>152.699219</ele>
        <time>2019-09-02T14:56:36Z</time>
      </trkpt>
      <trkpt lat="49.66117" lon="-1.80981">
        <ele>153.097656</ele>
        <time>2019-09-02T14:56:39Z</time>
      </trkpt>
      <trkpt lat="49.6611" lon="-1.80994">
        <ele>153.097656</ele>
        <time>2019-09-02T14:56:42Z</time>
      </trkpt>
      <trkpt lat="49.66103" lon="-1.81011">
        <ele>152.796875</ele>
        <time>2019-09-02T14:56:45Z</time>
      </trkpt>
      <trkpt lat="49.66046" lon="-1.81168">
        <ele>152.296875</ele>
        <time>2019-09-02T14:57:08Z</time>
      </trkpt>
      <trkpt lat="49.66043" lon="-1.81181">
        <ele>153</ele>
        <time>2019-09-02T14:57:10Z</time>
      </trkpt>
      <trkpt lat="49.6604" lon="-1.812">
        <ele>153.898438</ele>
        <time>2019-09-02T14:57:13Z</time>
      </trkpt>
      <trkpt lat="49.66034" lon="-1.81232">
        <ele>155.5</ele>
        <time>2019-09-02T14:57:19Z</time>
      </trkpt>
      <trkpt lat="49.66031" lon="-1.81246">
        <ele>156.398438</ele>
        <time>2019-09-02T14:57:22Z</time>
      </trkpt>
      <trkpt lat="49.66023" lon="-1.81272">
        <ele>157.597656</ele>
        <time>2019-09-02T14:57:28Z</time>
      </trkpt>
      <trkpt lat="49.66007" lon="-1.81314">
        <ele>159.296875</ele>
        <time>2019-09-02T14:57:39Z</time>
      </trkpt>
      <trkpt lat="49.65908" lon="-1.81549">
        <ele>158.296875</ele>
        <time>2019-09-02T14:58:41Z</time>
      </trkpt>
      <trkpt lat="49.65902" lon="-1.8156">
        <ele>157.796875</ele>
        <time>2019-09-02T14:58:45Z</time>
      </trkpt>
      <trkpt lat="49.65894" lon="-1.81568">
        <ele>157.296875</ele>
        <time>2019-09-02T14:58:49Z</time>
      </trkpt>
      <trkpt lat="49.65884" lon="-1.8157">
        <ele>156.796875</ele>
        <time>2019-09-02T14:58:53Z</time>
      </trkpt>
      <trkpt lat="49.65873" lon="-1.8157">
        <ele>157.199219</ele>
        <time>2019-09-02T14:58:58Z</time>
      </trkpt>
      <trkpt lat="49.65864" lon="-1.81572">
        <ele>158</ele>
        <time>2019-09-02T14:59:02Z</time>
      </trkpt>
      <trkpt lat="49.65854" lon="-1.81576">
        <ele>158.898438</ele>
        <time>2019-09-02T14:59:06Z</time>
      </trkpt>
      <trkpt lat="49.65845" lon="-1.8158">
        <ele>160.199219</ele>
        <time>2019-09-02T14:59:10Z</time>
      </trkpt>
      <trkpt lat="49.65837" lon="-1.81587">
        <ele>161.398438</ele>
        <time>2019-09-02T14:59:14Z</time>
      </trkpt>
      <trkpt lat="49.65832" lon="-1.816">
        <ele>162</ele>
        <time>2019-09-02T14:59:19Z</time>
      </trkpt>
      <trkpt lat="49.65821" lon="-1.81629">
        <ele>163.398438</ele>
        <time>2019-09-02T14:59:29Z</time>
      </trkpt>
      <trkpt lat="49.65821" lon="-1.81646">
        <ele>163.699219</ele>
        <time>2019-09-02T14:59:34Z</time>
      </trkpt>
      <trkpt lat="49.65823" lon="-1.8166">
        <ele>164.097656</ele>
        <time>2019-09-02T14:59:38Z</time>
      </trkpt>
      <trkpt lat="49.65828" lon="-1.81676">
        <ele>164.296875</ele>
        <time>2019-09-02T14:59:42Z</time>
      </trkpt>
      <trkpt lat="49.66047" lon="-1.82373">
        <ele>165.199219</ele>
        <time>2019-09-02T15:01:24Z</time>
      </trkpt>
      <trkpt lat="49.66054" lon="-1.82385">
        <ele>165</ele>
        <time>2019-09-02T15:01:27Z</time>
      </trkpt>
      <trkpt lat="49.66064" lon="-1.82393">
        <ele>164.199219</ele>
        <time>2019-09-02T15:01:30Z</time>
      </trkpt>
      <trkpt lat="49.66074" lon="-1.82406">
        <ele>163.597656</ele>
        <time>2019-09-02T15:01:33Z</time>
      </trkpt>
      <trkpt lat="49.66081" lon="-1.82416">
        <ele>162.898438</ele>
        <time>2019-09-02T15:01:35Z</time>
      </trkpt>
      <trkpt lat="49.66127" lon="-1.82488">
        <ele>158.898438</ele>
        <time>2019-09-02T15:01:49Z</time>
      </trkpt>
      <trkpt lat="49.66149" lon="-1.82529">
        <ele>159.898438</ele>
        <time>2019-09-02T15:01:58Z</time>
      </trkpt>
      <trkpt lat="49.6617" lon="-1.82573">
        <ele>162.296875</ele>
        <time>2019-09-02T15:02:07Z</time>
      </trkpt>
      <trkpt lat="49.66187" lon="-1.82618">
        <ele>163.796875</ele>
        <time>2019-09-02T15:02:16Z</time>
      </trkpt>
      <trkpt lat="49.66252" lon="-1.82791">
        <ele>163.597656</ele>
        <time>2019-09-02T15:02:44Z</time>
      </trkpt>
      <trkpt lat="49.66265" lon="-1.82837">
        <ele>163.097656</ele>
        <time>2019-09-02T15:02:50Z</time>
      </trkpt>
      <trkpt lat="49.66274" lon="-1.82871">
        <ele>163.199219</ele>
        <time>2019-09-02T15:02:55Z</time>
      </trkpt>
      <trkpt lat="49.66288" lon="-1.8294">
        <ele>162.796875</ele>
        <time>2019-09-02T15:03:07Z</time>
      </trkpt>
      <trkpt lat="49.66294" lon="-1.82972">
        <ele>160.199219</ele>
        <time>2019-09-02T15:03:13Z</time>
      </trkpt>
      <trkpt lat="49.66301" lon="-1.83001">
        <ele>155.699219</ele>
        <time>2019-09-02T15:03:19Z</time>
      </trkpt>
      <trkpt lat="49.66305" lon="-1.83013">
        <ele>154.097656</ele>
        <time>2019-09-02T15:03:22Z</time>
      </trkpt>
      <trkpt lat="49.66308" lon="-1.83028">
        <ele>154.199219</ele>
        <time>2019-09-02T15:03:25Z</time>
      </trkpt>
      <trkpt lat="49.6631" lon="-1.83044">
        <ele>154.5</ele>
        <time>2019-09-02T15:03:28Z</time>
      </trkpt>
      <trkpt lat="49.66313" lon="-1.83074">
        <ele>155.5</ele>
        <time>2019-09-02T15:03:34Z</time>
      </trkpt>
      <trkpt lat="49.66326" lon="-1.83201">
        <ele>160.898438</ele>
        <time>2019-09-02T15:03:58Z</time>
      </trkpt>
      <trkpt lat="49.66329" lon="-1.83217">
        <ele>161.898438</ele>
        <time>2019-09-02T15:04:01Z</time>
      </trkpt>
      <trkpt lat="49.66332" lon="-1.83232">
        <ele>162.796875</ele>
        <time>2019-09-02T15:04:04Z</time>
      </trkpt>
      <trkpt lat="49.66339" lon="-1.83261">
        <ele>164.796875</ele>
        <time>2019-09-02T15:04:10Z</time>
      </trkpt>
      <trkpt lat="49.66345" lon="-1.83272">
        <ele>165.796875</ele>
        <time>2019-09-02T15:04:13Z</time>
      </trkpt>
      <trkpt lat="49.66354" lon="-1.83276">
        <ele>166.898438</ele>
        <time>2019-09-02T15:04:16Z</time>
      </trkpt>
      <trkpt lat="49.66361" lon="-1.83287">
        <ele>167.199219</ele>
        <time>2019-09-02T15:04:20Z</time>
      </trkpt>
      <trkpt lat="49.66356" lon="-1.833">
        <ele>167.851563</ele>
        <time>2019-09-02T15:04:40Z</time>
      </trkpt>
    </trkseg>
  </trk>
</gpx>